<?xml version="1.0" encoding="UTF-8" standalone="no" ?>
<gpx xmlns="http://www.topografix.com/GPX/1/1" xmlns:xsi="http://www.w3.org/2001/XMLSchema-instance" xsi:schemaLocation="http://www.topografix.com/GPX/1/1 http://www.topografix.com/GPX/1/1/gpx.xsd" version="1.1" creator="VisuGPX - https://www.visugpx.com">
  <metadata>
    <name>Prepa MegaRando</name>
    <desc><![CDATA[Total: 4.9km]]></desc>
  </metadata>
  <trk>
    <name><![CDATA[randogps33-764]]></name>
    <extensions>
      <line xmlns="http://www.topografix.com/GPX/gpx_style/0/2">
        <color>0000FF</color>
        <width>4</width>
      </line>
    </extensions>
    <trkseg>
      <trkpt lat="44.77106" lon="-0.22787">
        <ele>79</ele>
        <time>2017-05-23T09:37:07Z</time>
      </trkpt>
      <trkpt lat="44.77102" lon="-0.22795">
        <ele>77</ele>
        <time>2017-05-23T09:37:07Z</time>
      </trkpt>
      <trkpt lat="44.77095" lon="-0.22799">
        <ele>77</ele>
        <time>2017-05-23T09:37:07Z</time>
      </trkpt>
      <trkpt lat="44.77092" lon="-0.228">
        <ele>77</ele>
        <time>2017-05-23T09:37:07Z</time>
      </trkpt>
      <trkpt lat="44.77088" lon="-0.22799">
        <ele>77</ele>
        <time>2017-05-23T09:37:31Z</time>
      </trkpt>
      <trkpt lat="44.77087" lon="-0.22803">
        <ele>77</ele>
        <time>2017-05-23T09:37:31Z</time>
      </trkpt>
      <trkpt lat="44.77092" lon="-0.22805">
        <ele>77</ele>
        <time>2017-05-23T09:37:31Z</time>
      </trkpt>
      <trkpt lat="44.77099" lon="-0.22811">
        <ele>77</ele>
        <time>2017-05-23T09:37:31Z</time>
      </trkpt>
      <trkpt lat="44.77098" lon="-0.22822">
        <ele>77</ele>
        <time>2017-05-23T09:37:47Z</time>
      </trkpt>
      <trkpt lat="44.771" lon="-0.22832">
        <ele>77</ele>
        <time>2017-05-23T09:37:47Z</time>
      </trkpt>
      <trkpt lat="44.77101" lon="-0.22838">
        <ele>77</ele>
        <time>2017-05-23T09:37:47Z</time>
      </trkpt>
      <trkpt lat="44.77103" lon="-0.22845">
        <ele>77</ele>
        <time>2017-05-23T09:38:03Z</time>
      </trkpt>
      <trkpt lat="44.77109" lon="-0.22853">
        <ele>77</ele>
        <time>2017-05-23T09:38:03Z</time>
      </trkpt>
      <trkpt lat="44.77111" lon="-0.22864">
        <ele>77</ele>
        <time>2017-05-23T09:38:03Z</time>
      </trkpt>
      <trkpt lat="44.77109" lon="-0.22872">
        <ele>77</ele>
        <time>2017-05-23T09:38:03Z</time>
      </trkpt>
      <trkpt lat="44.77111" lon="-0.22878">
        <ele>78</ele>
        <time>2017-05-23T09:38:19Z</time>
      </trkpt>
      <trkpt lat="44.7711" lon="-0.22885">
        <ele>78</ele>
        <time>2017-05-23T09:38:19Z</time>
      </trkpt>
      <trkpt lat="44.77104" lon="-0.22896">
        <ele>78</ele>
        <time>2017-05-23T09:38:19Z</time>
      </trkpt>
      <trkpt lat="44.77098" lon="-0.229">
        <ele>78</ele>
        <time>2017-05-23T09:38:35Z</time>
      </trkpt>
      <trkpt lat="44.77079" lon="-0.22907">
        <ele>78</ele>
        <time>2017-05-23T09:38:35Z</time>
      </trkpt>
      <trkpt lat="44.7707" lon="-0.22913">
        <ele>78</ele>
        <time>2017-05-23T09:38:51Z</time>
      </trkpt>
      <trkpt lat="44.77063" lon="-0.22913">
        <ele>78</ele>
        <time>2017-05-23T09:38:51Z</time>
      </trkpt>
      <trkpt lat="44.77059" lon="-0.22914">
        <ele>78</ele>
        <time>2017-05-23T09:38:51Z</time>
      </trkpt>
      <trkpt lat="44.77045" lon="-0.22928">
        <ele>78</ele>
        <time>2017-05-23T09:39:07Z</time>
      </trkpt>
      <trkpt lat="44.77041" lon="-0.22933">
        <ele>75</ele>
        <time>2017-05-23T09:39:23Z</time>
      </trkpt>
      <trkpt lat="44.77037" lon="-0.22946">
        <ele>75</ele>
        <time>2017-05-23T09:39:23Z</time>
      </trkpt>
      <trkpt lat="44.77035" lon="-0.22951">
        <ele>75</ele>
        <time>2017-05-23T09:39:23Z</time>
      </trkpt>
      <trkpt lat="44.77031" lon="-0.22963">
        <ele>74</ele>
        <time>2017-05-23T09:39:39Z</time>
      </trkpt>
      <trkpt lat="44.7703" lon="-0.2297">
        <ele>74</ele>
        <time>2017-05-23T09:39:39Z</time>
      </trkpt>
      <trkpt lat="44.77028" lon="-0.22975">
        <ele>74</ele>
        <time>2017-05-23T09:39:39Z</time>
      </trkpt>
      <trkpt lat="44.77027" lon="-0.22981">
        <ele>74</ele>
        <time>2017-05-23T09:39:55Z</time>
      </trkpt>
      <trkpt lat="44.77023" lon="-0.22994">
        <ele>74</ele>
        <time>2017-05-23T09:39:56Z</time>
      </trkpt>
      <trkpt lat="44.77023" lon="-0.22999">
        <ele>74</ele>
        <time>2017-05-23T09:39:56Z</time>
      </trkpt>
      <trkpt lat="44.7702" lon="-0.23004">
        <ele>74</ele>
        <time>2017-05-23T09:40:11Z</time>
      </trkpt>
      <trkpt lat="44.7702" lon="-0.23012">
        <ele>74</ele>
        <time>2017-05-23T09:40:11Z</time>
      </trkpt>
      <trkpt lat="44.77018" lon="-0.23018">
        <ele>74</ele>
        <time>2017-05-23T09:40:11Z</time>
      </trkpt>
      <trkpt lat="44.77018" lon="-0.23026">
        <ele>74</ele>
        <time>2017-05-23T09:40:11Z</time>
      </trkpt>
      <trkpt lat="44.77015" lon="-0.2304">
        <ele>74</ele>
        <time>2017-05-23T09:40:27Z</time>
      </trkpt>
      <trkpt lat="44.77014" lon="-0.23048">
        <ele>75</ele>
        <time>2017-05-23T09:40:27Z</time>
      </trkpt>
      <trkpt lat="44.77012" lon="-0.23055">
        <ele>75</ele>
        <time>2017-05-23T09:40:27Z</time>
      </trkpt>
      <trkpt lat="44.77012" lon="-0.23061">
        <ele>75</ele>
        <time>2017-05-23T09:40:43Z</time>
      </trkpt>
      <trkpt lat="44.77006" lon="-0.23081">
        <ele>75</ele>
        <time>2017-05-23T09:40:43Z</time>
      </trkpt>
      <trkpt lat="44.77004" lon="-0.23087">
        <ele>75</ele>
        <time>2017-05-23T09:40:59Z</time>
      </trkpt>
      <trkpt lat="44.77005" lon="-0.23101">
        <ele>75</ele>
        <time>2017-05-23T09:40:59Z</time>
      </trkpt>
      <trkpt lat="44.77004" lon="-0.23115">
        <ele>75</ele>
        <time>2017-05-23T09:41:15Z</time>
      </trkpt>
      <trkpt lat="44.77" lon="-0.2312">
        <ele>75</ele>
        <time>2017-05-23T09:41:15Z</time>
      </trkpt>
      <trkpt lat="44.77001" lon="-0.23128">
        <ele>76</ele>
        <time>2017-05-23T09:41:15Z</time>
      </trkpt>
      <trkpt lat="44.77001" lon="-0.23135">
        <ele>76</ele>
        <time>2017-05-23T09:41:15Z</time>
      </trkpt>
      <trkpt lat="44.76996" lon="-0.23148">
        <ele>76</ele>
        <time>2017-05-23T09:41:31Z</time>
      </trkpt>
      <trkpt lat="44.76997" lon="-0.23156">
        <ele>76</ele>
        <time>2017-05-23T09:41:31Z</time>
      </trkpt>
      <trkpt lat="44.76996" lon="-0.2317">
        <ele>76</ele>
        <time>2017-05-23T09:41:47Z</time>
      </trkpt>
      <trkpt lat="44.7699" lon="-0.23196">
        <ele>76</ele>
        <time>2017-05-23T09:42:03Z</time>
      </trkpt>
      <trkpt lat="44.76979" lon="-0.23223">
        <ele>77</ele>
        <time>2017-05-23T09:42:19Z</time>
      </trkpt>
      <trkpt lat="44.76974" lon="-0.23227">
        <ele>77</ele>
        <time>2017-05-23T09:42:19Z</time>
      </trkpt>
      <trkpt lat="44.76969" lon="-0.23239">
        <ele>77</ele>
        <time>2017-05-23T09:42:19Z</time>
      </trkpt>
      <trkpt lat="44.76964" lon="-0.23252">
        <ele>77</ele>
        <time>2017-05-23T09:42:35Z</time>
      </trkpt>
      <trkpt lat="44.76958" lon="-0.23263">
        <ele>79</ele>
        <time>2017-05-23T09:42:35Z</time>
      </trkpt>
      <trkpt lat="44.76954" lon="-0.23281">
        <ele>79</ele>
        <time>2017-05-23T09:42:51Z</time>
      </trkpt>
      <trkpt lat="44.7695" lon="-0.23286">
        <ele>79</ele>
        <time>2017-05-23T09:42:51Z</time>
      </trkpt>
      <trkpt lat="44.76946" lon="-0.23291">
        <ele>79</ele>
        <time>2017-05-23T09:43:07Z</time>
      </trkpt>
      <trkpt lat="44.76933" lon="-0.23327">
        <ele>79</ele>
        <time>2017-05-23T09:43:23Z</time>
      </trkpt>
      <trkpt lat="44.76933" lon="-0.23334">
        <ele>79</ele>
        <time>2017-05-23T09:43:23Z</time>
      </trkpt>
      <trkpt lat="44.76931" lon="-0.23339">
        <ele>79</ele>
        <time>2017-05-23T09:43:39Z</time>
      </trkpt>
      <trkpt lat="44.76926" lon="-0.23344">
        <ele>79</ele>
        <time>2017-05-23T09:43:39Z</time>
      </trkpt>
      <trkpt lat="44.76925" lon="-0.23352">
        <ele>79</ele>
        <time>2017-05-23T09:43:39Z</time>
      </trkpt>
      <trkpt lat="44.76921" lon="-0.23365">
        <ele>79</ele>
        <time>2017-05-23T09:43:55Z</time>
      </trkpt>
      <trkpt lat="44.76918" lon="-0.23379">
        <ele>78</ele>
        <time>2017-05-23T09:43:55Z</time>
      </trkpt>
      <trkpt lat="44.7692" lon="-0.23384">
        <ele>78</ele>
        <time>2017-05-23T09:43:55Z</time>
      </trkpt>
      <trkpt lat="44.76913" lon="-0.23399">
        <ele>78</ele>
        <time>2017-05-23T09:44:11Z</time>
      </trkpt>
      <trkpt lat="44.76915" lon="-0.2341">
        <ele>78</ele>
        <time>2017-05-23T09:44:27Z</time>
      </trkpt>
      <trkpt lat="44.76921" lon="-0.23428">
        <ele>78</ele>
        <time>2017-05-23T09:44:43Z</time>
      </trkpt>
      <trkpt lat="44.76921" lon="-0.23431">
        <ele>78</ele>
        <time>2017-05-23T09:44:43Z</time>
      </trkpt>
      <trkpt lat="44.76924" lon="-0.23437">
        <ele>78</ele>
        <time>2017-05-23T09:44:43Z</time>
      </trkpt>
      <trkpt lat="44.76928" lon="-0.23445">
        <ele>78</ele>
        <time>2017-05-23T09:44:43Z</time>
      </trkpt>
      <trkpt lat="44.76937" lon="-0.23465">
        <ele>77</ele>
        <time>2017-05-23T09:44:59Z</time>
      </trkpt>
      <trkpt lat="44.76945" lon="-0.23476">
        <ele>77</ele>
        <time>2017-05-23T09:45:15Z</time>
      </trkpt>
      <trkpt lat="44.76949" lon="-0.23486">
        <ele>77</ele>
        <time>2017-05-23T09:45:15Z</time>
      </trkpt>
      <trkpt lat="44.76952" lon="-0.23495">
        <ele>77</ele>
        <time>2017-05-23T09:45:31Z</time>
      </trkpt>
      <trkpt lat="44.76961" lon="-0.23515">
        <ele>73</ele>
        <time>2017-05-23T09:45:31Z</time>
      </trkpt>
      <trkpt lat="44.76971" lon="-0.23535">
        <ele>73</ele>
        <time>2017-05-23T09:45:47Z</time>
      </trkpt>
      <trkpt lat="44.76979" lon="-0.23547">
        <ele>74</ele>
        <time>2017-05-23T09:46:03Z</time>
      </trkpt>
      <trkpt lat="44.76988" lon="-0.23558">
        <ele>74</ele>
        <time>2017-05-23T09:46:03Z</time>
      </trkpt>
      <trkpt lat="44.76992" lon="-0.23568">
        <ele>74</ele>
        <time>2017-05-23T09:46:19Z</time>
      </trkpt>
      <trkpt lat="44.76994" lon="-0.23584">
        <ele>74</ele>
        <time>2017-05-23T09:46:19Z</time>
      </trkpt>
      <trkpt lat="44.76997" lon="-0.23589">
        <ele>74</ele>
        <time>2017-05-23T09:46:19Z</time>
      </trkpt>
      <trkpt lat="44.76994" lon="-0.23594">
        <ele>74</ele>
        <time>2017-05-23T09:48:15Z</time>
      </trkpt>
      <trkpt lat="44.7699" lon="-0.23593">
        <ele>74</ele>
        <time>2017-05-23T09:48:15Z</time>
      </trkpt>
      <trkpt lat="44.76989" lon="-0.23596">
        <ele>74</ele>
        <time>2017-05-23T09:48:15Z</time>
      </trkpt>
      <trkpt lat="44.76987" lon="-0.23599">
        <ele>74</ele>
        <time>2017-05-23T09:48:15Z</time>
      </trkpt>
      <trkpt lat="44.76992" lon="-0.23612">
        <ele>74</ele>
        <time>2017-05-23T09:48:31Z</time>
      </trkpt>
      <trkpt lat="44.7699" lon="-0.23618">
        <ele>74</ele>
        <time>2017-05-23T09:48:31Z</time>
      </trkpt>
      <trkpt lat="44.76991" lon="-0.23629">
        <ele>73</ele>
        <time>2017-05-23T09:48:47Z</time>
      </trkpt>
      <trkpt lat="44.76996" lon="-0.23639">
        <ele>73</ele>
        <time>2017-05-23T09:48:47Z</time>
      </trkpt>
      <trkpt lat="44.76998" lon="-0.23646">
        <ele>73</ele>
        <time>2017-05-23T09:48:47Z</time>
      </trkpt>
      <trkpt lat="44.77001" lon="-0.23649">
        <ele>73</ele>
        <time>2017-05-23T09:49:03Z</time>
      </trkpt>
      <trkpt lat="44.77008" lon="-0.23695">
        <ele>73</ele>
        <time>2017-05-23T09:49:19Z</time>
      </trkpt>
      <trkpt lat="44.77006" lon="-0.23709">
        <ele>72</ele>
        <time>2017-05-23T09:49:35Z</time>
      </trkpt>
      <trkpt lat="44.77003" lon="-0.23717">
        <ele>72</ele>
        <time>2017-05-23T09:49:35Z</time>
      </trkpt>
      <trkpt lat="44.77002" lon="-0.23726">
        <ele>72</ele>
        <time>2017-05-23T09:49:35Z</time>
      </trkpt>
      <trkpt lat="44.77" lon="-0.23754">
        <ele>72</ele>
        <time>2017-05-23T09:49:51Z</time>
      </trkpt>
      <trkpt lat="44.76997" lon="-0.23756">
        <ele>72</ele>
        <time>2017-05-23T09:50:19Z</time>
      </trkpt>
      <trkpt lat="44.76998" lon="-0.23765">
        <ele>72</ele>
        <time>2017-05-23T09:50:19Z</time>
      </trkpt>
      <trkpt lat="44.76998" lon="-0.23771">
        <ele>72</ele>
        <time>2017-05-23T09:50:19Z</time>
      </trkpt>
      <trkpt lat="44.76996" lon="-0.23778">
        <ele>72</ele>
        <time>2017-05-23T09:50:35Z</time>
      </trkpt>
      <trkpt lat="44.76996" lon="-0.23782">
        <ele>72</ele>
        <time>2017-05-23T09:50:35Z</time>
      </trkpt>
      <trkpt lat="44.76999" lon="-0.238">
        <ele>71</ele>
        <time>2017-05-23T09:50:35Z</time>
      </trkpt>
      <trkpt lat="44.77004" lon="-0.23815">
        <ele>71</ele>
        <time>2017-05-23T09:50:51Z</time>
      </trkpt>
      <trkpt lat="44.77006" lon="-0.2382">
        <ele>71</ele>
        <time>2017-05-23T09:50:51Z</time>
      </trkpt>
      <trkpt lat="44.77009" lon="-0.23832">
        <ele>71</ele>
        <time>2017-05-23T09:51:07Z</time>
      </trkpt>
      <trkpt lat="44.77009" lon="-0.23838">
        <ele>71</ele>
        <time>2017-05-23T09:51:07Z</time>
      </trkpt>
      <trkpt lat="44.77008" lon="-0.23847">
        <ele>71</ele>
        <time>2017-05-23T09:51:07Z</time>
      </trkpt>
      <trkpt lat="44.77007" lon="-0.2385">
        <ele>71</ele>
        <time>2017-05-23T09:51:23Z</time>
      </trkpt>
      <trkpt lat="44.77002" lon="-0.23856">
        <ele>71</ele>
        <time>2017-05-23T09:51:23Z</time>
      </trkpt>
      <trkpt lat="44.76995" lon="-0.23866">
        <ele>71</ele>
        <time>2017-05-23T09:51:23Z</time>
      </trkpt>
      <trkpt lat="44.76995" lon="-0.23866">
        <ele>71</ele>
        <time>2017-05-23T09:51:55Z</time>
      </trkpt>
      <trkpt lat="44.76991" lon="-0.2387">
        <ele>71</ele>
        <time>2017-05-23T09:51:55Z</time>
      </trkpt>
      <trkpt lat="44.76985" lon="-0.23872">
        <ele>71</ele>
        <time>2017-05-23T09:51:55Z</time>
      </trkpt>
      <trkpt lat="44.76978" lon="-0.23885">
        <ele>69</ele>
        <time>2017-05-23T09:52:11Z</time>
      </trkpt>
      <trkpt lat="44.76977" lon="-0.23892">
        <ele>69</ele>
        <time>2017-05-23T09:52:11Z</time>
      </trkpt>
      <trkpt lat="44.76974" lon="-0.23899">
        <ele>69</ele>
        <time>2017-05-23T09:52:11Z</time>
      </trkpt>
      <trkpt lat="44.76967" lon="-0.23906">
        <ele>69</ele>
        <time>2017-05-23T09:52:27Z</time>
      </trkpt>
      <trkpt lat="44.76964" lon="-0.23911">
        <ele>69</ele>
        <time>2017-05-23T09:52:27Z</time>
      </trkpt>
      <trkpt lat="44.76962" lon="-0.23918">
        <ele>69</ele>
        <time>2017-05-23T09:52:27Z</time>
      </trkpt>
      <trkpt lat="44.76959" lon="-0.23923">
        <ele>69</ele>
        <time>2017-05-23T09:52:27Z</time>
      </trkpt>
      <trkpt lat="44.76954" lon="-0.23927">
        <ele>67</ele>
        <time>2017-05-23T09:52:43Z</time>
      </trkpt>
      <trkpt lat="44.76952" lon="-0.23931">
        <ele>67</ele>
        <time>2017-05-23T09:52:43Z</time>
      </trkpt>
      <trkpt lat="44.76945" lon="-0.23949">
        <ele>67</ele>
        <time>2017-05-23T09:52:59Z</time>
      </trkpt>
      <trkpt lat="44.76945" lon="-0.23962">
        <ele>66</ele>
        <time>2017-05-23T09:52:59Z</time>
      </trkpt>
      <trkpt lat="44.76942" lon="-0.23966">
        <ele>66</ele>
        <time>2017-05-23T09:52:59Z</time>
      </trkpt>
      <trkpt lat="44.76931" lon="-0.23971">
        <ele>66</ele>
        <time>2017-05-23T09:53:15Z</time>
      </trkpt>
      <trkpt lat="44.76922" lon="-0.2398">
        <ele>66</ele>
        <time>2017-05-23T09:53:15Z</time>
      </trkpt>
      <trkpt lat="44.76913" lon="-0.23996">
        <ele>66</ele>
        <time>2017-05-23T09:53:31Z</time>
      </trkpt>
      <trkpt lat="44.76903" lon="-0.24006">
        <ele>66</ele>
        <time>2017-05-23T09:53:47Z</time>
      </trkpt>
      <trkpt lat="44.76892" lon="-0.24019">
        <ele>66</ele>
        <time>2017-05-23T09:53:47Z</time>
      </trkpt>
      <trkpt lat="44.76886" lon="-0.2403">
        <ele>66</ele>
        <time>2017-05-23T09:54:03Z</time>
      </trkpt>
      <trkpt lat="44.76878" lon="-0.24047">
        <ele>65</ele>
        <time>2017-05-23T09:54:19Z</time>
      </trkpt>
      <trkpt lat="44.76872" lon="-0.24055">
        <ele>68</ele>
        <time>2017-05-23T09:54:19Z</time>
      </trkpt>
      <trkpt lat="44.76868" lon="-0.24062">
        <ele>68</ele>
        <time>2017-05-23T09:54:19Z</time>
      </trkpt>
      <trkpt lat="44.76868" lon="-0.2406">
        <ele>68</ele>
        <time>2017-05-23T09:54:39Z</time>
      </trkpt>
      <trkpt lat="44.76871" lon="-0.24061">
        <ele>68</ele>
        <time>2017-05-23T09:54:39Z</time>
      </trkpt>
      <trkpt lat="44.7687" lon="-0.24064">
        <ele>68</ele>
        <time>2017-05-23T09:54:39Z</time>
      </trkpt>
      <trkpt lat="44.76873" lon="-0.2407">
        <ele>68</ele>
        <time>2017-05-23T09:54:39Z</time>
      </trkpt>
      <trkpt lat="44.76876" lon="-0.24091">
        <ele>65</ele>
        <time>2017-05-23T09:54:55Z</time>
      </trkpt>
      <trkpt lat="44.76876" lon="-0.24105">
        <ele>65</ele>
        <time>2017-05-23T09:55:11Z</time>
      </trkpt>
      <trkpt lat="44.76873" lon="-0.24111">
        <ele>68</ele>
        <time>2017-05-23T09:55:11Z</time>
      </trkpt>
      <trkpt lat="44.76871" lon="-0.24119">
        <ele>68</ele>
        <time>2017-05-23T09:55:11Z</time>
      </trkpt>
      <trkpt lat="44.76871" lon="-0.24133">
        <ele>72</ele>
        <time>2017-05-23T09:55:27Z</time>
      </trkpt>
      <trkpt lat="44.76869" lon="-0.24139">
        <ele>72</ele>
        <time>2017-05-23T09:55:27Z</time>
      </trkpt>
      <trkpt lat="44.76869" lon="-0.24145">
        <ele>72</ele>
        <time>2017-05-23T09:55:27Z</time>
      </trkpt>
      <trkpt lat="44.76866" lon="-0.24153">
        <ele>72</ele>
        <time>2017-05-23T09:55:27Z</time>
      </trkpt>
      <trkpt lat="44.76862" lon="-0.2416">
        <ele>72</ele>
        <time>2017-05-23T09:55:43Z</time>
      </trkpt>
      <trkpt lat="44.76859" lon="-0.24175">
        <ele>72</ele>
        <time>2017-05-23T09:55:43Z</time>
      </trkpt>
      <trkpt lat="44.76857" lon="-0.24196">
        <ele>72</ele>
        <time>2017-05-23T09:55:59Z</time>
      </trkpt>
      <trkpt lat="44.76854" lon="-0.24205">
        <ele>72</ele>
        <time>2017-05-23T09:55:59Z</time>
      </trkpt>
      <trkpt lat="44.7685" lon="-0.24211">
        <ele>73</ele>
        <time>2017-05-23T09:56:15Z</time>
      </trkpt>
      <trkpt lat="44.76847" lon="-0.24219">
        <ele>73</ele>
        <time>2017-05-23T09:56:15Z</time>
      </trkpt>
      <trkpt lat="44.76847" lon="-0.24224">
        <ele>73</ele>
        <time>2017-05-23T09:56:15Z</time>
      </trkpt>
      <trkpt lat="44.76841" lon="-0.24236">
        <ele>73</ele>
        <time>2017-05-23T09:56:31Z</time>
      </trkpt>
      <trkpt lat="44.76839" lon="-0.24249">
        <ele>73</ele>
        <time>2017-05-23T09:56:31Z</time>
      </trkpt>
      <trkpt lat="44.76838" lon="-0.24257">
        <ele>73</ele>
        <time>2017-05-23T09:56:31Z</time>
      </trkpt>
      <trkpt lat="44.76837" lon="-0.24267">
        <ele>73</ele>
        <time>2017-05-23T09:56:47Z</time>
      </trkpt>
      <trkpt lat="44.7683" lon="-0.24276">
        <ele>73</ele>
        <time>2017-05-23T09:56:47Z</time>
      </trkpt>
      <trkpt lat="44.76818" lon="-0.24289">
        <ele>73</ele>
        <time>2017-05-23T09:57:03Z</time>
      </trkpt>
      <trkpt lat="44.7682" lon="-0.24295">
        <ele>78</ele>
        <time>2017-05-23T09:57:03Z</time>
      </trkpt>
      <trkpt lat="44.76821" lon="-0.24303">
        <ele>78</ele>
        <time>2017-05-23T09:57:03Z</time>
      </trkpt>
      <trkpt lat="44.76819" lon="-0.24319">
        <ele>78</ele>
        <time>2017-05-23T09:57:19Z</time>
      </trkpt>
      <trkpt lat="44.76819" lon="-0.24334">
        <ele>78</ele>
        <time>2017-05-23T09:57:35Z</time>
      </trkpt>
      <trkpt lat="44.76806" lon="-0.24349">
        <ele>78</ele>
        <time>2017-05-23T09:57:35Z</time>
      </trkpt>
      <trkpt lat="44.76799" lon="-0.24355">
        <ele>78</ele>
        <time>2017-05-23T09:57:51Z</time>
      </trkpt>
      <trkpt lat="44.7679" lon="-0.24367">
        <ele>80</ele>
        <time>2017-05-23T09:57:51Z</time>
      </trkpt>
      <trkpt lat="44.76786" lon="-0.24369">
        <ele>80</ele>
        <time>2017-05-23T09:58:07Z</time>
      </trkpt>
      <trkpt lat="44.76785" lon="-0.24376">
        <ele>80</ele>
        <time>2017-05-23T09:58:07Z</time>
      </trkpt>
      <trkpt lat="44.76779" lon="-0.24388">
        <ele>80</ele>
        <time>2017-05-23T09:58:07Z</time>
      </trkpt>
      <trkpt lat="44.76773" lon="-0.24392">
        <ele>80</ele>
        <time>2017-05-23T09:58:23Z</time>
      </trkpt>
      <trkpt lat="44.76771" lon="-0.24398">
        <ele>80</ele>
        <time>2017-05-23T09:58:23Z</time>
      </trkpt>
      <trkpt lat="44.76763" lon="-0.24413">
        <ele>80</ele>
        <time>2017-05-23T09:58:39Z</time>
      </trkpt>
      <trkpt lat="44.76757" lon="-0.24419">
        <ele>80</ele>
        <time>2017-05-23T09:58:39Z</time>
      </trkpt>
      <trkpt lat="44.7675" lon="-0.2442">
        <ele>80</ele>
        <time>2017-05-23T09:58:39Z</time>
      </trkpt>
      <trkpt lat="44.7674" lon="-0.24424">
        <ele>80</ele>
        <time>2017-05-23T09:59:03Z</time>
      </trkpt>
      <trkpt lat="44.76736" lon="-0.24428">
        <ele>80</ele>
        <time>2017-05-23T09:59:03Z</time>
      </trkpt>
      <trkpt lat="44.76733" lon="-0.24439">
        <ele>80</ele>
        <time>2017-05-23T09:59:19Z</time>
      </trkpt>
      <trkpt lat="44.76727" lon="-0.24445">
        <ele>80</ele>
        <time>2017-05-23T09:59:19Z</time>
      </trkpt>
      <trkpt lat="44.76723" lon="-0.24448">
        <ele>80</ele>
        <time>2017-05-23T09:59:19Z</time>
      </trkpt>
      <trkpt lat="44.76717" lon="-0.24455">
        <ele>80</ele>
        <time>2017-05-23T09:59:19Z</time>
      </trkpt>
      <trkpt lat="44.76702" lon="-0.24468">
        <ele>85</ele>
        <time>2017-05-23T09:59:35Z</time>
      </trkpt>
      <trkpt lat="44.76695" lon="-0.24478">
        <ele>85</ele>
        <time>2017-05-23T09:59:51Z</time>
      </trkpt>
      <trkpt lat="44.76684" lon="-0.2449">
        <ele>85</ele>
        <time>2017-05-23T09:59:51Z</time>
      </trkpt>
      <trkpt lat="44.76682" lon="-0.24498">
        <ele>85</ele>
        <time>2017-05-23T10:00:07Z</time>
      </trkpt>
      <trkpt lat="44.76679" lon="-0.24502">
        <ele>85</ele>
        <time>2017-05-23T10:00:07Z</time>
      </trkpt>
      <trkpt lat="44.76679" lon="-0.24516">
        <ele>85</ele>
        <time>2017-05-23T10:00:07Z</time>
      </trkpt>
      <trkpt lat="44.76682" lon="-0.24529">
        <ele>85</ele>
        <time>2017-05-23T10:00:23Z</time>
      </trkpt>
      <trkpt lat="44.76683" lon="-0.24536">
        <ele>85</ele>
        <time>2017-05-23T10:00:23Z</time>
      </trkpt>
      <trkpt lat="44.76679" lon="-0.24565">
        <ele>83</ele>
        <time>2017-05-23T10:00:39Z</time>
      </trkpt>
      <trkpt lat="44.76676" lon="-0.24571">
        <ele>83</ele>
        <time>2017-05-23T10:00:55Z</time>
      </trkpt>
      <trkpt lat="44.76675" lon="-0.24576">
        <ele>83</ele>
        <time>2017-05-23T10:00:55Z</time>
      </trkpt>
      <trkpt lat="44.76677" lon="-0.2459">
        <ele>83</ele>
        <time>2017-05-23T10:00:55Z</time>
      </trkpt>
      <trkpt lat="44.76675" lon="-0.24599">
        <ele>83</ele>
        <time>2017-05-23T10:01:27Z</time>
      </trkpt>
      <trkpt lat="44.76673" lon="-0.246">
        <ele>83</ele>
        <time>2017-05-23T10:01:27Z</time>
      </trkpt>
      <trkpt lat="44.76677" lon="-0.24604">
        <ele>83</ele>
        <time>2017-05-23T10:01:27Z</time>
      </trkpt>
      <trkpt lat="44.76674" lon="-0.24606">
        <ele>83</ele>
        <time>2017-05-23T10:01:27Z</time>
      </trkpt>
      <trkpt lat="44.76684" lon="-0.24623">
        <ele>83</ele>
        <time>2017-05-23T10:01:43Z</time>
      </trkpt>
      <trkpt lat="44.76686" lon="-0.2463">
        <ele>85</ele>
        <time>2017-05-23T10:01:43Z</time>
      </trkpt>
      <trkpt lat="44.76685" lon="-0.24634">
        <ele>85</ele>
        <time>2017-05-23T10:01:59Z</time>
      </trkpt>
      <trkpt lat="44.76689" lon="-0.24644">
        <ele>85</ele>
        <time>2017-05-23T10:01:59Z</time>
      </trkpt>
      <trkpt lat="44.76692" lon="-0.24649">
        <ele>85</ele>
        <time>2017-05-23T10:01:59Z</time>
      </trkpt>
      <trkpt lat="44.76693" lon="-0.24655">
        <ele>85</ele>
        <time>2017-05-23T10:01:59Z</time>
      </trkpt>
      <trkpt lat="44.76691" lon="-0.24658">
        <ele>85</ele>
        <time>2017-05-23T10:02:15Z</time>
      </trkpt>
      <trkpt lat="44.76696" lon="-0.24663">
        <ele>85</ele>
        <time>2017-05-23T10:02:15Z</time>
      </trkpt>
      <trkpt lat="44.76695" lon="-0.24668">
        <ele>85</ele>
        <time>2017-05-23T10:02:15Z</time>
      </trkpt>
      <trkpt lat="44.76689" lon="-0.24674">
        <ele>85</ele>
        <time>2017-05-23T10:02:15Z</time>
      </trkpt>
      <trkpt lat="44.7669" lon="-0.24679">
        <ele>85</ele>
        <time>2017-05-23T10:02:39Z</time>
      </trkpt>
      <trkpt lat="44.76691" lon="-0.24679">
        <ele>85</ele>
        <time>2017-05-23T10:02:39Z</time>
      </trkpt>
      <trkpt lat="44.76689" lon="-0.24686">
        <ele>85</ele>
        <time>2017-05-23T10:02:39Z</time>
      </trkpt>
      <trkpt lat="44.76697" lon="-0.24698">
        <ele>85</ele>
        <time>2017-05-23T10:02:55Z</time>
      </trkpt>
      <trkpt lat="44.76694" lon="-0.24701">
        <ele>85</ele>
        <time>2017-05-23T10:02:55Z</time>
      </trkpt>
      <trkpt lat="44.76699" lon="-0.24706">
        <ele>85</ele>
        <time>2017-05-23T10:02:55Z</time>
      </trkpt>
      <trkpt lat="44.76694" lon="-0.2471">
        <ele>84</ele>
        <time>2017-05-23T10:02:55Z</time>
      </trkpt>
      <trkpt lat="44.76691" lon="-0.24716">
        <ele>84</ele>
        <time>2017-05-23T10:03:11Z</time>
      </trkpt>
      <trkpt lat="44.76684" lon="-0.24725">
        <ele>84</ele>
        <time>2017-05-23T10:03:11Z</time>
      </trkpt>
      <trkpt lat="44.76681" lon="-0.2473">
        <ele>84</ele>
        <time>2017-05-23T10:03:11Z</time>
      </trkpt>
      <trkpt lat="44.76695" lon="-0.2475">
        <ele>84</ele>
        <time>2017-05-23T10:03:43Z</time>
      </trkpt>
      <trkpt lat="44.76688" lon="-0.24761">
        <ele>84</ele>
        <time>2017-05-23T10:03:43Z</time>
      </trkpt>
      <trkpt lat="44.76688" lon="-0.24766">
        <ele>84</ele>
        <time>2017-05-23T10:03:43Z</time>
      </trkpt>
      <trkpt lat="44.76682" lon="-0.2477">
        <ele>84</ele>
        <time>2017-05-23T10:03:43Z</time>
      </trkpt>
      <trkpt lat="44.76676" lon="-0.24776">
        <ele>84</ele>
        <time>2017-05-23T10:03:43Z</time>
      </trkpt>
      <trkpt lat="44.76658" lon="-0.2479">
        <ele>84</ele>
        <time>2017-05-23T10:03:59Z</time>
      </trkpt>
      <trkpt lat="44.76656" lon="-0.24806">
        <ele>83</ele>
        <time>2017-05-23T10:03:59Z</time>
      </trkpt>
      <trkpt lat="44.76653" lon="-0.24816">
        <ele>83</ele>
        <time>2017-05-23T10:04:15Z</time>
      </trkpt>
      <trkpt lat="44.76655" lon="-0.2482">
        <ele>83</ele>
        <time>2017-05-23T10:04:15Z</time>
      </trkpt>
      <trkpt lat="44.76655" lon="-0.24825">
        <ele>83</ele>
        <time>2017-05-23T10:04:15Z</time>
      </trkpt>
      <trkpt lat="44.7665" lon="-0.24831">
        <ele>83</ele>
        <time>2017-05-23T10:04:31Z</time>
      </trkpt>
      <trkpt lat="44.76643" lon="-0.24839">
        <ele>83</ele>
        <time>2017-05-23T10:04:31Z</time>
      </trkpt>
      <trkpt lat="44.7664" lon="-0.24844">
        <ele>83</ele>
        <time>2017-05-23T10:04:31Z</time>
      </trkpt>
      <trkpt lat="44.76639" lon="-0.24849">
        <ele>83</ele>
        <time>2017-05-23T10:04:47Z</time>
      </trkpt>
      <trkpt lat="44.76639" lon="-0.24855">
        <ele>83</ele>
        <time>2017-05-23T10:04:47Z</time>
      </trkpt>
      <trkpt lat="44.76637" lon="-0.24859">
        <ele>83</ele>
        <time>2017-05-23T10:04:47Z</time>
      </trkpt>
      <trkpt lat="44.76635" lon="-0.24868">
        <ele>83</ele>
        <time>2017-05-23T10:05:03Z</time>
      </trkpt>
      <trkpt lat="44.76638" lon="-0.2487">
        <ele>83</ele>
        <time>2017-05-23T10:05:03Z</time>
      </trkpt>
      <trkpt lat="44.7664" lon="-0.24874">
        <ele>83</ele>
        <time>2017-05-23T10:05:03Z</time>
      </trkpt>
      <trkpt lat="44.76643" lon="-0.24882">
        <ele>82</ele>
        <time>2017-05-23T10:05:03Z</time>
      </trkpt>
      <trkpt lat="44.76639" lon="-0.24886">
        <ele>82</ele>
        <time>2017-05-23T10:05:19Z</time>
      </trkpt>
      <trkpt lat="44.76625" lon="-0.24895">
        <ele>91</ele>
        <time>2017-05-23T10:05:19Z</time>
      </trkpt>
      <trkpt lat="44.76603" lon="-0.24913">
        <ele>91</ele>
        <time>2017-05-23T10:05:19Z</time>
      </trkpt>
      <trkpt lat="44.76598" lon="-0.24921">
        <ele>91</ele>
        <time>2017-05-23T10:05:35Z</time>
      </trkpt>
      <trkpt lat="44.766" lon="-0.24928">
        <ele>91</ele>
        <time>2017-05-23T10:05:35Z</time>
      </trkpt>
      <trkpt lat="44.76599" lon="-0.24934">
        <ele>91</ele>
        <time>2017-05-23T10:05:35Z</time>
      </trkpt>
      <trkpt lat="44.76594" lon="-0.24943">
        <ele>91</ele>
        <time>2017-05-23T10:05:35Z</time>
      </trkpt>
      <trkpt lat="44.7658" lon="-0.24961">
        <ele>88</ele>
        <time>2017-05-23T10:06:15Z</time>
      </trkpt>
      <trkpt lat="44.76578" lon="-0.24968">
        <ele>88</ele>
        <time>2017-05-23T10:06:15Z</time>
      </trkpt>
      <trkpt lat="44.7658" lon="-0.24973">
        <ele>88</ele>
        <time>2017-05-23T10:06:15Z</time>
      </trkpt>
      <trkpt lat="44.76578" lon="-0.24975">
        <ele>88</ele>
        <time>2017-05-23T10:06:15Z</time>
      </trkpt>
      <trkpt lat="44.76582" lon="-0.24983">
        <ele>88</ele>
        <time>2017-05-23T10:07:03Z</time>
      </trkpt>
      <trkpt lat="44.76586" lon="-0.24982">
        <ele>88</ele>
        <time>2017-05-23T10:07:03Z</time>
      </trkpt>
      <trkpt lat="44.76593" lon="-0.24985">
        <ele>88</ele>
        <time>2017-05-23T10:07:03Z</time>
      </trkpt>
      <trkpt lat="44.76598" lon="-0.24993">
        <ele>88</ele>
        <time>2017-05-23T10:07:19Z</time>
      </trkpt>
      <trkpt lat="44.76617" lon="-0.24997">
        <ele>88</ele>
        <time>2017-05-23T10:07:19Z</time>
      </trkpt>
      <trkpt lat="44.76626" lon="-0.25002">
        <ele>81</ele>
        <time>2017-05-23T10:07:19Z</time>
      </trkpt>
      <trkpt lat="44.76639" lon="-0.25015">
        <ele>81</ele>
        <time>2017-05-23T10:07:35Z</time>
      </trkpt>
      <trkpt lat="44.76642" lon="-0.25021">
        <ele>81</ele>
        <time>2017-05-23T10:07:35Z</time>
      </trkpt>
      <trkpt lat="44.76643" lon="-0.25026">
        <ele>81</ele>
        <time>2017-05-23T10:07:35Z</time>
      </trkpt>
      <trkpt lat="44.7665" lon="-0.25038">
        <ele>81</ele>
        <time>2017-05-23T10:07:35Z</time>
      </trkpt>
      <trkpt lat="44.76655" lon="-0.25052">
        <ele>82</ele>
        <time>2017-05-23T10:07:51Z</time>
      </trkpt>
      <trkpt lat="44.76661" lon="-0.25058">
        <ele>82</ele>
        <time>2017-05-23T10:07:51Z</time>
      </trkpt>
      <trkpt lat="44.76669" lon="-0.25075">
        <ele>82</ele>
        <time>2017-05-23T10:08:07Z</time>
      </trkpt>
      <trkpt lat="44.76677" lon="-0.25081">
        <ele>82</ele>
        <time>2017-05-23T10:08:07Z</time>
      </trkpt>
      <trkpt lat="44.76684" lon="-0.25089">
        <ele>82</ele>
        <time>2017-05-23T10:08:23Z</time>
      </trkpt>
      <trkpt lat="44.76686" lon="-0.25097">
        <ele>82</ele>
        <time>2017-05-23T10:08:23Z</time>
      </trkpt>
      <trkpt lat="44.76697" lon="-0.25122">
        <ele>82</ele>
        <time>2017-05-23T10:08:39Z</time>
      </trkpt>
      <trkpt lat="44.76703" lon="-0.25133">
        <ele>81</ele>
        <time>2017-05-23T10:08:39Z</time>
      </trkpt>
      <trkpt lat="44.76705" lon="-0.25138">
        <ele>81</ele>
        <time>2017-05-23T10:08:55Z</time>
      </trkpt>
      <trkpt lat="44.76714" lon="-0.25155">
        <ele>78</ele>
        <time>2017-05-23T10:09:11Z</time>
      </trkpt>
      <trkpt lat="44.76727" lon="-0.2517">
        <ele>78</ele>
        <time>2017-05-23T10:09:11Z</time>
      </trkpt>
      <trkpt lat="44.7673" lon="-0.25175">
        <ele>78</ele>
        <time>2017-05-23T10:09:27Z</time>
      </trkpt>
      <trkpt lat="44.76731" lon="-0.25181">
        <ele>78</ele>
        <time>2017-05-23T10:09:27Z</time>
      </trkpt>
      <trkpt lat="44.76734" lon="-0.25183">
        <ele>78</ele>
        <time>2017-05-23T10:09:27Z</time>
      </trkpt>
      <trkpt lat="44.76742" lon="-0.25195">
        <ele>78</ele>
        <time>2017-05-23T10:09:47Z</time>
      </trkpt>
      <trkpt lat="44.76745" lon="-0.25196">
        <ele>78</ele>
        <time>2017-05-23T10:09:47Z</time>
      </trkpt>
      <trkpt lat="44.76745" lon="-0.25199">
        <ele>78</ele>
        <time>2017-05-23T10:09:47Z</time>
      </trkpt>
      <trkpt lat="44.76742" lon="-0.25202">
        <ele>78</ele>
        <time>2017-05-23T10:09:47Z</time>
      </trkpt>
      <trkpt lat="44.76739" lon="-0.25208">
        <ele>78</ele>
        <time>2017-05-23T10:09:47Z</time>
      </trkpt>
      <trkpt lat="44.76744" lon="-0.2521">
        <ele>75</ele>
        <time>2017-05-23T10:10:03Z</time>
      </trkpt>
      <trkpt lat="44.76749" lon="-0.25216">
        <ele>75</ele>
        <time>2017-05-23T10:10:03Z</time>
      </trkpt>
      <trkpt lat="44.76754" lon="-0.25219">
        <ele>75</ele>
        <time>2017-05-23T10:10:03Z</time>
      </trkpt>
      <trkpt lat="44.76764" lon="-0.25223">
        <ele>75</ele>
        <time>2017-05-23T10:10:19Z</time>
      </trkpt>
      <trkpt lat="44.76769" lon="-0.25229">
        <ele>75</ele>
        <time>2017-05-23T10:10:19Z</time>
      </trkpt>
      <trkpt lat="44.76788" lon="-0.25264">
        <ele>75</ele>
        <time>2017-05-23T10:10:35Z</time>
      </trkpt>
      <trkpt lat="44.76803" lon="-0.25283">
        <ele>71</ele>
        <time>2017-05-23T10:10:51Z</time>
      </trkpt>
      <trkpt lat="44.76806" lon="-0.25289">
        <ele>71</ele>
        <time>2017-05-23T10:10:51Z</time>
      </trkpt>
      <trkpt lat="44.76815" lon="-0.25299">
        <ele>72</ele>
        <time>2017-05-23T10:11:07Z</time>
      </trkpt>
      <trkpt lat="44.76818" lon="-0.25304">
        <ele>72</ele>
        <time>2017-05-23T10:11:07Z</time>
      </trkpt>
      <trkpt lat="44.76829" lon="-0.2532">
        <ele>72</ele>
        <time>2017-05-23T10:11:23Z</time>
      </trkpt>
      <trkpt lat="44.76833" lon="-0.25326">
        <ele>72</ele>
        <time>2017-05-23T10:11:23Z</time>
      </trkpt>
      <trkpt lat="44.76836" lon="-0.25334">
        <ele>72</ele>
        <time>2017-05-23T10:11:23Z</time>
      </trkpt>
      <trkpt lat="44.7685" lon="-0.25357">
        <ele>72</ele>
        <time>2017-05-23T10:11:39Z</time>
      </trkpt>
      <trkpt lat="44.76865" lon="-0.25378">
        <ele>75</ele>
        <time>2017-05-23T10:11:55Z</time>
      </trkpt>
      <trkpt lat="44.76873" lon="-0.25385">
        <ele>75</ele>
        <time>2017-05-23T10:12:11Z</time>
      </trkpt>
      <trkpt lat="44.7688" lon="-0.25398">
        <ele>72</ele>
        <time>2017-05-23T10:12:11Z</time>
      </trkpt>
      <trkpt lat="44.76889" lon="-0.25419">
        <ele>72</ele>
        <time>2017-05-23T10:12:27Z</time>
      </trkpt>
      <trkpt lat="44.76898" lon="-0.25436">
        <ele>72</ele>
        <time>2017-05-23T10:12:43Z</time>
      </trkpt>
      <trkpt lat="44.76901" lon="-0.25447">
        <ele>72</ele>
        <time>2017-05-23T10:12:43Z</time>
      </trkpt>
      <trkpt lat="44.76901" lon="-0.2546">
        <ele>73</ele>
        <time>2017-05-23T10:12:43Z</time>
      </trkpt>
      <trkpt lat="44.76902" lon="-0.25464">
        <ele>73</ele>
        <time>2017-05-23T10:12:43Z</time>
      </trkpt>
      <trkpt lat="44.76902" lon="-0.25466">
        <ele>73</ele>
        <time>2017-05-23T10:12:59Z</time>
      </trkpt>
      <trkpt lat="44.769" lon="-0.25466">
        <ele>73</ele>
        <time>2017-05-23T10:12:59Z</time>
      </trkpt>
      <trkpt lat="44.76895" lon="-0.25469">
        <ele>73</ele>
        <time>2017-05-23T10:12:59Z</time>
      </trkpt>
      <trkpt lat="44.76878" lon="-0.25485">
        <ele>73</ele>
        <time>2017-05-23T10:13:15Z</time>
      </trkpt>
      <trkpt lat="44.76876" lon="-0.25489">
        <ele>73</ele>
        <time>2017-05-23T10:13:15Z</time>
      </trkpt>
      <trkpt lat="44.76876" lon="-0.255">
        <ele>73</ele>
        <time>2017-05-23T10:13:15Z</time>
      </trkpt>
      <trkpt lat="44.76882" lon="-0.25512">
        <ele>73</ele>
        <time>2017-05-23T10:13:43Z</time>
      </trkpt>
      <trkpt lat="44.76894" lon="-0.25518">
        <ele>73</ele>
        <time>2017-05-23T10:13:43Z</time>
      </trkpt>
      <trkpt lat="44.76897" lon="-0.25522">
        <ele>73</ele>
        <time>2017-05-23T10:13:43Z</time>
      </trkpt>
      <trkpt lat="44.76902" lon="-0.25526">
        <ele>73</ele>
        <time>2017-05-23T10:13:43Z</time>
      </trkpt>
      <trkpt lat="44.76911" lon="-0.25523">
        <ele>73</ele>
        <time>2017-05-23T10:14:19Z</time>
      </trkpt>
      <trkpt lat="44.76904" lon="-0.25512">
        <ele>73</ele>
        <time>2017-05-23T10:14:19Z</time>
      </trkpt>
      <trkpt lat="44.76902" lon="-0.2551">
        <ele>73</ele>
        <time>2017-05-23T10:14:35Z</time>
      </trkpt>
      <trkpt lat="44.76905" lon="-0.25514">
        <ele>73</ele>
        <time>2017-05-23T10:14:35Z</time>
      </trkpt>
      <trkpt lat="44.76902" lon="-0.25523">
        <ele>73</ele>
        <time>2017-05-23T10:14:35Z</time>
      </trkpt>
      <trkpt lat="44.76906" lon="-0.25526">
        <ele>73</ele>
        <time>2017-05-23T10:14:55Z</time>
      </trkpt>
      <trkpt lat="44.76911" lon="-0.2554">
        <ele>73</ele>
        <time>2017-05-23T10:15:19Z</time>
      </trkpt>
      <trkpt lat="44.76911" lon="-0.25547">
        <ele>73</ele>
        <time>2017-05-23T10:15:19Z</time>
      </trkpt>
      <trkpt lat="44.76911" lon="-0.25548">
        <ele>73</ele>
        <time>2017-05-23T10:15:19Z</time>
      </trkpt>
      <trkpt lat="44.76913" lon="-0.25562">
        <ele>73</ele>
        <time>2017-05-23T10:15:19Z</time>
      </trkpt>
      <trkpt lat="44.76912" lon="-0.2558">
        <ele>73</ele>
        <time>2017-05-23T10:15:35Z</time>
      </trkpt>
      <trkpt lat="44.76914" lon="-0.25588">
        <ele>73</ele>
        <time>2017-05-23T10:15:35Z</time>
      </trkpt>
      <trkpt lat="44.76914" lon="-0.25596">
        <ele>73</ele>
        <time>2017-05-23T10:15:51Z</time>
      </trkpt>
      <trkpt lat="44.76913" lon="-0.25598">
        <ele>73</ele>
        <time>2017-05-23T10:15:51Z</time>
      </trkpt>
      <trkpt lat="44.76916" lon="-0.25605">
        <ele>73</ele>
        <time>2017-05-23T10:15:51Z</time>
      </trkpt>
      <trkpt lat="44.76918" lon="-0.25617">
        <ele>73</ele>
        <time>2017-05-23T10:15:51Z</time>
      </trkpt>
      <trkpt lat="44.7692" lon="-0.25625">
        <ele>72</ele>
        <time>2017-05-23T10:16:15Z</time>
      </trkpt>
      <trkpt lat="44.7692" lon="-0.25629">
        <ele>72</ele>
        <time>2017-05-23T10:16:15Z</time>
      </trkpt>
      <trkpt lat="44.76921" lon="-0.25632">
        <ele>72</ele>
        <time>2017-05-23T10:16:15Z</time>
      </trkpt>
      <trkpt lat="44.7692" lon="-0.25635">
        <ele>72</ele>
        <time>2017-05-23T10:16:15Z</time>
      </trkpt>
      <trkpt lat="44.76921" lon="-0.25649">
        <ele>72</ele>
        <time>2017-05-23T10:16:31Z</time>
      </trkpt>
      <trkpt lat="44.7692" lon="-0.25655">
        <ele>72</ele>
        <time>2017-05-23T10:16:31Z</time>
      </trkpt>
      <trkpt lat="44.76917" lon="-0.2567">
        <ele>72</ele>
        <time>2017-05-23T10:16:31Z</time>
      </trkpt>
      <trkpt lat="44.76917" lon="-0.25683">
        <ele>72</ele>
        <time>2017-05-23T10:16:47Z</time>
      </trkpt>
      <trkpt lat="44.76914" lon="-0.25697">
        <ele>72</ele>
        <time>2017-05-23T10:16:47Z</time>
      </trkpt>
      <trkpt lat="44.76914" lon="-0.25704">
        <ele>72</ele>
        <time>2017-05-23T10:16:47Z</time>
      </trkpt>
      <trkpt lat="44.76911" lon="-0.25724">
        <ele>72</ele>
        <time>2017-05-23T10:17:03Z</time>
      </trkpt>
      <trkpt lat="44.76912" lon="-0.25728">
        <ele>72</ele>
        <time>2017-05-23T10:17:03Z</time>
      </trkpt>
      <trkpt lat="44.76908" lon="-0.25741">
        <ele>72</ele>
        <time>2017-05-23T10:17:19Z</time>
      </trkpt>
      <trkpt lat="44.76905" lon="-0.25762">
        <ele>72</ele>
        <time>2017-05-23T10:17:35Z</time>
      </trkpt>
      <trkpt lat="44.76901" lon="-0.25776">
        <ele>72</ele>
        <time>2017-05-23T10:17:35Z</time>
      </trkpt>
      <trkpt lat="44.76897" lon="-0.25804">
        <ele>69</ele>
        <time>2017-05-23T10:17:51Z</time>
      </trkpt>
      <trkpt lat="44.76894" lon="-0.25816">
        <ele>69</ele>
        <time>2017-05-23T10:18:07Z</time>
      </trkpt>
      <trkpt lat="44.76893" lon="-0.25834">
        <ele>69</ele>
        <time>2017-05-23T10:18:07Z</time>
      </trkpt>
      <trkpt lat="44.76891" lon="-0.25838">
        <ele>69</ele>
        <time>2017-05-23T10:18:07Z</time>
      </trkpt>
      <trkpt lat="44.76888" lon="-0.25864">
        <ele>69</ele>
        <time>2017-05-23T10:18:23Z</time>
      </trkpt>
      <trkpt lat="44.76885" lon="-0.25874">
        <ele>69</ele>
        <time>2017-05-23T10:18:39Z</time>
      </trkpt>
      <trkpt lat="44.76885" lon="-0.25881">
        <ele>67</ele>
        <time>2017-05-23T10:18:39Z</time>
      </trkpt>
      <trkpt lat="44.76882" lon="-0.25893">
        <ele>67</ele>
        <time>2017-05-23T10:18:39Z</time>
      </trkpt>
      <trkpt lat="44.76882" lon="-0.25898">
        <ele>67</ele>
        <time>2017-05-23T10:18:55Z</time>
      </trkpt>
      <trkpt lat="44.76878" lon="-0.25923">
        <ele>67</ele>
        <time>2017-05-23T10:19:11Z</time>
      </trkpt>
      <trkpt lat="44.76879" lon="-0.25928">
        <ele>67</ele>
        <time>2017-05-23T10:19:11Z</time>
      </trkpt>
      <trkpt lat="44.76875" lon="-0.25944">
        <ele>68</ele>
        <time>2017-05-23T10:19:11Z</time>
      </trkpt>
      <trkpt lat="44.76871" lon="-0.25952">
        <ele>68</ele>
        <time>2017-05-23T10:19:27Z</time>
      </trkpt>
      <trkpt lat="44.76871" lon="-0.25969">
        <ele>66</ele>
        <time>2017-05-23T10:19:27Z</time>
      </trkpt>
      <trkpt lat="44.76873" lon="-0.25993">
        <ele>66</ele>
        <time>2017-05-23T10:19:43Z</time>
      </trkpt>
      <trkpt lat="44.76869" lon="-0.26008">
        <ele>66</ele>
        <time>2017-05-23T10:19:43Z</time>
      </trkpt>
      <trkpt lat="44.76869" lon="-0.26012">
        <ele>66</ele>
        <time>2017-05-23T10:19:59Z</time>
      </trkpt>
      <trkpt lat="44.76864" lon="-0.26027">
        <ele>66</ele>
        <time>2017-05-23T10:19:59Z</time>
      </trkpt>
      <trkpt lat="44.76853" lon="-0.26055">
        <ele>63</ele>
        <time>2017-05-23T10:20:15Z</time>
      </trkpt>
      <trkpt lat="44.7685" lon="-0.2606">
        <ele>63</ele>
        <time>2017-05-23T10:20:15Z</time>
      </trkpt>
      <trkpt lat="44.76846" lon="-0.26072">
        <ele>63</ele>
        <time>2017-05-23T10:20:31Z</time>
      </trkpt>
      <trkpt lat="44.76846" lon="-0.2608">
        <ele>63</ele>
        <time>2017-05-23T10:20:31Z</time>
      </trkpt>
      <trkpt lat="44.76844" lon="-0.26091">
        <ele>63</ele>
        <time>2017-05-23T10:20:31Z</time>
      </trkpt>
      <trkpt lat="44.76843" lon="-0.26108">
        <ele>63</ele>
        <time>2017-05-23T10:20:47Z</time>
      </trkpt>
      <trkpt lat="44.76844" lon="-0.2612">
        <ele>63</ele>
        <time>2017-05-23T10:20:47Z</time>
      </trkpt>
      <trkpt lat="44.76846" lon="-0.26127">
        <ele>62</ele>
        <time>2017-05-23T10:21:03Z</time>
      </trkpt>
      <trkpt lat="44.76844" lon="-0.26141">
        <ele>62</ele>
        <time>2017-05-23T10:21:03Z</time>
      </trkpt>
      <trkpt lat="44.76845" lon="-0.26147">
        <ele>62</ele>
        <time>2017-05-23T10:21:19Z</time>
      </trkpt>
      <trkpt lat="44.76844" lon="-0.26156">
        <ele>62</ele>
        <time>2017-05-23T10:21:19Z</time>
      </trkpt>
      <trkpt lat="44.76841" lon="-0.26162">
        <ele>62</ele>
        <time>2017-05-23T10:21:19Z</time>
      </trkpt>
      <trkpt lat="44.76838" lon="-0.26177">
        <ele>62</ele>
        <time>2017-05-23T10:21:35Z</time>
      </trkpt>
      <trkpt lat="44.76835" lon="-0.26183">
        <ele>62</ele>
        <time>2017-05-23T10:21:35Z</time>
      </trkpt>
      <trkpt lat="44.76836" lon="-0.26191">
        <ele>62</ele>
        <time>2017-05-23T10:21:35Z</time>
      </trkpt>
      <trkpt lat="44.76835" lon="-0.26199">
        <ele>62</ele>
        <time>2017-05-23T10:21:35Z</time>
      </trkpt>
      <trkpt lat="44.76833" lon="-0.26204">
        <ele>62</ele>
        <time>2017-05-23T10:21:51Z</time>
      </trkpt>
      <trkpt lat="44.76831" lon="-0.26223">
        <ele>64</ele>
        <time>2017-05-23T10:21:51Z</time>
      </trkpt>
      <trkpt lat="44.7683" lon="-0.26225">
        <ele>64</ele>
        <time>2017-05-23T10:22:07Z</time>
      </trkpt>
      <trkpt lat="44.76828" lon="-0.2623">
        <ele>64</ele>
        <time>2017-05-23T10:22:07Z</time>
      </trkpt>
      <trkpt lat="44.76827" lon="-0.26245">
        <ele>64</ele>
        <time>2017-05-23T10:22:23Z</time>
      </trkpt>
      <trkpt lat="44.76824" lon="-0.26258">
        <ele>64</ele>
        <time>2017-05-23T10:22:23Z</time>
      </trkpt>
      <trkpt lat="44.76821" lon="-0.26262">
        <ele>64</ele>
        <time>2017-05-23T10:22:23Z</time>
      </trkpt>
      <trkpt lat="44.76827" lon="-0.26283">
        <ele>64</ele>
        <time>2017-05-23T10:22:39Z</time>
      </trkpt>
      <trkpt lat="44.76828" lon="-0.263">
        <ele>70</ele>
        <time>2017-05-23T10:22:39Z</time>
      </trkpt>
      <trkpt lat="44.76826" lon="-0.26308">
        <ele>70</ele>
        <time>2017-05-23T10:22:39Z</time>
      </trkpt>
      <trkpt lat="44.76818" lon="-0.26312">
        <ele>70</ele>
        <time>2017-05-23T10:22:55Z</time>
      </trkpt>
      <trkpt lat="44.76812" lon="-0.26311">
        <ele>70</ele>
        <time>2017-05-23T10:22:55Z</time>
      </trkpt>
      <trkpt lat="44.76803" lon="-0.26313">
        <ele>70</ele>
        <time>2017-05-23T10:23:11Z</time>
      </trkpt>
      <trkpt lat="44.76793" lon="-0.26317">
        <ele>70</ele>
        <time>2017-05-23T10:23:11Z</time>
      </trkpt>
      <trkpt lat="44.76775" lon="-0.26312">
        <ele>70</ele>
        <time>2017-05-23T10:23:27Z</time>
      </trkpt>
      <trkpt lat="44.7677" lon="-0.26313">
        <ele>70</ele>
        <time>2017-05-23T10:23:27Z</time>
      </trkpt>
      <trkpt lat="44.7677" lon="-0.26314">
        <ele>70</ele>
        <time>2017-05-23T10:23:27Z</time>
      </trkpt>
      <trkpt lat="44.76768" lon="-0.26314">
        <ele>70</ele>
        <time>2017-05-23T10:23:43Z</time>
      </trkpt>
      <trkpt lat="44.76757" lon="-0.2631">
        <ele>70</ele>
        <time>2017-05-23T10:23:43Z</time>
      </trkpt>
      <trkpt lat="44.76752" lon="-0.26311">
        <ele>70</ele>
        <time>2017-05-23T10:24:03Z</time>
      </trkpt>
      <trkpt lat="44.76752" lon="-0.2631">
        <ele>70</ele>
        <time>2017-05-23T10:24:03Z</time>
      </trkpt>
      <trkpt lat="44.76744" lon="-0.26308">
        <ele>70</ele>
        <time>2017-05-23T10:24:03Z</time>
      </trkpt>
      <trkpt lat="44.76737" lon="-0.2631">
        <ele>70</ele>
        <time>2017-05-23T10:24:03Z</time>
      </trkpt>
      <trkpt lat="44.76729" lon="-0.26315">
        <ele>70</ele>
        <time>2017-05-23T10:24:19Z</time>
      </trkpt>
      <trkpt lat="44.76725" lon="-0.26314">
        <ele>70</ele>
        <time>2017-05-23T10:24:19Z</time>
      </trkpt>
      <trkpt lat="44.76718" lon="-0.26315">
        <ele>70</ele>
        <time>2017-05-23T10:24:19Z</time>
      </trkpt>
      <trkpt lat="44.7671" lon="-0.26311">
        <ele>70</ele>
        <time>2017-05-23T10:24:35Z</time>
      </trkpt>
      <trkpt lat="44.76694" lon="-0.26312">
        <ele>67</ele>
        <time>2017-05-23T10:24:51Z</time>
      </trkpt>
      <trkpt lat="44.7669" lon="-0.26314">
        <ele>67</ele>
        <time>2017-05-23T10:24:51Z</time>
      </trkpt>
      <trkpt lat="44.76681" lon="-0.26319">
        <ele>67</ele>
        <time>2017-05-23T10:25:11Z</time>
      </trkpt>
      <trkpt lat="44.76678" lon="-0.26319">
        <ele>67</ele>
        <time>2017-05-23T10:25:11Z</time>
      </trkpt>
      <trkpt lat="44.76674" lon="-0.26314">
        <ele>67</ele>
        <time>2017-05-23T10:25:11Z</time>
      </trkpt>
      <trkpt lat="44.76673" lon="-0.2631">
        <ele>67</ele>
        <time>2017-05-23T10:25:11Z</time>
      </trkpt>
      <trkpt lat="44.76665" lon="-0.26303">
        <ele>67</ele>
        <time>2017-05-23T10:25:47Z</time>
      </trkpt>
      <trkpt lat="44.76663" lon="-0.26304">
        <ele>67</ele>
        <time>2017-05-23T10:25:47Z</time>
      </trkpt>
      <trkpt lat="44.7666" lon="-0.26309">
        <ele>67</ele>
        <time>2017-05-23T10:25:47Z</time>
      </trkpt>
      <trkpt lat="44.76659" lon="-0.26304">
        <ele>67</ele>
        <time>2017-05-23T10:25:47Z</time>
      </trkpt>
      <trkpt lat="44.76656" lon="-0.26289">
        <ele>64</ele>
        <time>2017-05-23T10:26:27Z</time>
      </trkpt>
      <trkpt lat="44.76651" lon="-0.26293">
        <ele>67</ele>
        <time>2017-05-23T10:26:27Z</time>
      </trkpt>
      <trkpt lat="44.76649" lon="-0.26287">
        <ele>64</ele>
        <time>2017-05-23T10:26:43Z</time>
      </trkpt>
      <trkpt lat="44.7665" lon="-0.26282">
        <ele>64</ele>
        <time>2017-05-23T10:26:43Z</time>
      </trkpt>
      <trkpt lat="44.76648" lon="-0.2628">
        <ele>64</ele>
        <time>2017-05-23T10:26:43Z</time>
      </trkpt>
      <trkpt lat="44.76641" lon="-0.26281">
        <ele>64</ele>
        <time>2017-05-23T10:26:43Z</time>
      </trkpt>
      <trkpt lat="44.76632" lon="-0.26285">
        <ele>64</ele>
        <time>2017-05-23T10:26:59Z</time>
      </trkpt>
      <trkpt lat="44.76622" lon="-0.26288">
        <ele>65</ele>
        <time>2017-05-23T10:27:15Z</time>
      </trkpt>
      <trkpt lat="44.76616" lon="-0.26288">
        <ele>65</ele>
        <time>2017-05-23T10:27:15Z</time>
      </trkpt>
      <trkpt lat="44.76614" lon="-0.26275">
        <ele>65</ele>
        <time>2017-05-23T10:29:07Z</time>
      </trkpt>
      <trkpt lat="44.76611" lon="-0.26273">
        <ele>65</ele>
        <time>2017-05-23T10:29:07Z</time>
      </trkpt>
      <trkpt lat="44.76606" lon="-0.26273">
        <ele>65</ele>
        <time>2017-05-23T10:29:07Z</time>
      </trkpt>
      <trkpt lat="44.766" lon="-0.26274">
        <ele>65</ele>
        <time>2017-05-23T10:29:07Z</time>
      </trkpt>
      <trkpt lat="44.76591" lon="-0.26267">
        <ele>65</ele>
        <time>2017-05-23T10:29:23Z</time>
      </trkpt>
      <trkpt lat="44.7658" lon="-0.26261">
        <ele>65</ele>
        <time>2017-05-23T10:29:23Z</time>
      </trkpt>
      <trkpt lat="44.76574" lon="-0.26262">
        <ele>65</ele>
        <time>2017-05-23T10:29:39Z</time>
      </trkpt>
      <trkpt lat="44.76551" lon="-0.26262">
        <ele>65</ele>
        <time>2017-05-23T10:29:55Z</time>
      </trkpt>
      <trkpt lat="44.76542" lon="-0.26257">
        <ele>65</ele>
        <time>2017-05-23T10:29:55Z</time>
      </trkpt>
      <trkpt lat="44.76529" lon="-0.26257">
        <ele>66</ele>
        <time>2017-05-23T10:30:11Z</time>
      </trkpt>
      <trkpt lat="44.76523" lon="-0.26255">
        <ele>66</ele>
        <time>2017-05-23T10:30:11Z</time>
      </trkpt>
      <trkpt lat="44.76503" lon="-0.26255">
        <ele>66</ele>
        <time>2017-05-23T10:30:27Z</time>
      </trkpt>
      <trkpt lat="44.76494" lon="-0.26251">
        <ele>66</ele>
        <time>2017-05-23T10:30:43Z</time>
      </trkpt>
      <trkpt lat="44.7648" lon="-0.26249">
        <ele>66</ele>
        <time>2017-05-23T10:30:59Z</time>
      </trkpt>
      <trkpt lat="44.76474" lon="-0.26245">
        <ele>66</ele>
        <time>2017-05-23T10:30:59Z</time>
      </trkpt>
      <trkpt lat="44.7646" lon="-0.2624">
        <ele>66</ele>
        <time>2017-05-23T10:31:15Z</time>
      </trkpt>
      <trkpt lat="44.76445" lon="-0.2624">
        <ele>68</ele>
        <time>2017-05-23T10:31:15Z</time>
      </trkpt>
      <trkpt lat="44.76435" lon="-0.26245">
        <ele>68</ele>
        <time>2017-05-23T10:31:31Z</time>
      </trkpt>
      <trkpt lat="44.76396" lon="-0.26247">
        <ele>68</ele>
        <time>2017-05-23T10:32:03Z</time>
      </trkpt>
      <trkpt lat="44.76386" lon="-0.2625">
        <ele>68</ele>
        <time>2017-05-23T10:32:03Z</time>
      </trkpt>
      <trkpt lat="44.76382" lon="-0.2625">
        <ele>68</ele>
        <time>2017-05-23T10:32:19Z</time>
      </trkpt>
      <trkpt lat="44.76368" lon="-0.26245">
        <ele>68</ele>
        <time>2017-05-23T10:32:19Z</time>
      </trkpt>
      <trkpt lat="44.76354" lon="-0.26242">
        <ele>68</ele>
        <time>2017-05-23T10:32:35Z</time>
      </trkpt>
      <trkpt lat="44.76344" lon="-0.26245">
        <ele>68</ele>
        <time>2017-05-23T10:32:51Z</time>
      </trkpt>
      <trkpt lat="44.76339" lon="-0.26243">
        <ele>68</ele>
        <time>2017-05-23T10:32:51Z</time>
      </trkpt>
      <trkpt lat="44.7633" lon="-0.26232">
        <ele>68</ele>
        <time>2017-05-23T10:32:51Z</time>
      </trkpt>
      <trkpt lat="44.76321" lon="-0.26211">
        <ele>68</ele>
        <time>2017-05-23T10:33:07Z</time>
      </trkpt>
      <trkpt lat="44.7632" lon="-0.26198">
        <ele>69</ele>
        <time>2017-05-23T10:33:23Z</time>
      </trkpt>
      <trkpt lat="44.76317" lon="-0.26185">
        <ele>69</ele>
        <time>2017-05-23T10:33:23Z</time>
      </trkpt>
      <trkpt lat="44.76316" lon="-0.26184">
        <ele>69</ele>
        <time>2017-05-23T10:33:23Z</time>
      </trkpt>
      <trkpt lat="44.76315" lon="-0.26181">
        <ele>69</ele>
        <time>2017-05-23T10:33:59Z</time>
      </trkpt>
      <trkpt lat="44.76305" lon="-0.26184">
        <ele>69</ele>
        <time>2017-05-23T10:33:59Z</time>
      </trkpt>
      <trkpt lat="44.763" lon="-0.26187">
        <ele>69</ele>
        <time>2017-05-23T10:33:59Z</time>
      </trkpt>
      <trkpt lat="44.76294" lon="-0.26187">
        <ele>69</ele>
        <time>2017-05-23T10:33:59Z</time>
      </trkpt>
      <trkpt lat="44.76274" lon="-0.2619">
        <ele>70</ele>
        <time>2017-05-23T10:34:15Z</time>
      </trkpt>
      <trkpt lat="44.76245" lon="-0.26201">
        <ele>70</ele>
        <time>2017-05-23T10:34:51Z</time>
      </trkpt>
      <trkpt lat="44.76232" lon="-0.26201">
        <ele>70</ele>
        <time>2017-05-23T10:34:51Z</time>
      </trkpt>
      <trkpt lat="44.76226" lon="-0.26204">
        <ele>70</ele>
        <time>2017-05-23T10:35:07Z</time>
      </trkpt>
      <trkpt lat="44.76217" lon="-0.26205">
        <ele>70</ele>
        <time>2017-05-23T10:35:07Z</time>
      </trkpt>
      <trkpt lat="44.76211" lon="-0.26205">
        <ele>70</ele>
        <time>2017-05-23T10:35:07Z</time>
      </trkpt>
      <trkpt lat="44.76206" lon="-0.26206">
        <ele>72</ele>
        <time>2017-05-23T10:35:23Z</time>
      </trkpt>
      <trkpt lat="44.76203" lon="-0.26209">
        <ele>71</ele>
        <time>2017-05-23T10:35:23Z</time>
      </trkpt>
      <trkpt lat="44.76196" lon="-0.26205">
        <ele>72</ele>
        <time>2017-05-23T10:35:43Z</time>
      </trkpt>
      <trkpt lat="44.76193" lon="-0.26209">
        <ele>71</ele>
        <time>2017-05-23T10:35:43Z</time>
      </trkpt>
      <trkpt lat="44.76181" lon="-0.26215">
        <ele>71</ele>
        <time>2017-05-23T10:35:59Z</time>
      </trkpt>
      <trkpt lat="44.76166" lon="-0.26217">
        <ele>71</ele>
        <time>2017-05-23T10:35:59Z</time>
      </trkpt>
      <trkpt lat="44.76158" lon="-0.26222">
        <ele>71</ele>
        <time>2017-05-23T10:36:19Z</time>
      </trkpt>
      <trkpt lat="44.76154" lon="-0.26222">
        <ele>71</ele>
        <time>2017-05-23T10:36:19Z</time>
      </trkpt>
      <trkpt lat="44.76124" lon="-0.26229">
        <ele>76</ele>
        <time>2017-05-23T10:36:51Z</time>
      </trkpt>
      <trkpt lat="44.7612" lon="-0.26229">
        <ele>76</ele>
        <time>2017-05-23T10:36:51Z</time>
      </trkpt>
      <trkpt lat="44.76101" lon="-0.26237">
        <ele>76</ele>
        <time>2017-05-23T10:37:07Z</time>
      </trkpt>
      <trkpt lat="44.7609" lon="-0.26237">
        <ele>76</ele>
        <time>2017-05-23T10:37:07Z</time>
      </trkpt>
      <trkpt lat="44.76086" lon="-0.2624">
        <ele>76</ele>
        <time>2017-05-23T10:37:23Z</time>
      </trkpt>
      <trkpt lat="44.76081" lon="-0.2624">
        <ele>76</ele>
        <time>2017-05-23T10:37:23Z</time>
      </trkpt>
      <trkpt lat="44.76063" lon="-0.2625">
        <ele>76</ele>
        <time>2017-05-23T10:37:39Z</time>
      </trkpt>
      <trkpt lat="44.76055" lon="-0.26253">
        <ele>76</ele>
        <time>2017-05-23T10:37:39Z</time>
      </trkpt>
      <trkpt lat="44.76048" lon="-0.26255">
        <ele>76</ele>
        <time>2017-05-23T10:37:39Z</time>
      </trkpt>
      <trkpt lat="44.76032" lon="-0.26263">
        <ele>76</ele>
        <time>2017-05-23T10:37:55Z</time>
      </trkpt>
      <trkpt lat="44.76016" lon="-0.26266">
        <ele>76</ele>
        <time>2017-05-23T10:38:11Z</time>
      </trkpt>
      <trkpt lat="44.76011" lon="-0.26269">
        <ele>76</ele>
        <time>2017-05-23T10:38:11Z</time>
      </trkpt>
      <trkpt lat="44.75999" lon="-0.26271">
        <ele>76</ele>
        <time>2017-05-23T10:38:11Z</time>
      </trkpt>
      <trkpt lat="44.75995" lon="-0.26275">
        <ele>76</ele>
        <time>2017-05-23T10:38:27Z</time>
      </trkpt>
      <trkpt lat="44.75964" lon="-0.26286">
        <ele>76</ele>
        <time>2017-05-23T10:38:43Z</time>
      </trkpt>
      <trkpt lat="44.75954" lon="-0.26289">
        <ele>83</ele>
        <time>2017-05-23T10:38:59Z</time>
      </trkpt>
      <trkpt lat="44.75948" lon="-0.26289">
        <ele>83</ele>
        <time>2017-05-23T10:38:59Z</time>
      </trkpt>
      <trkpt lat="44.75943" lon="-0.26287">
        <ele>83</ele>
        <time>2017-05-23T10:38:59Z</time>
      </trkpt>
      <trkpt lat="44.75918" lon="-0.26293">
        <ele>77</ele>
        <time>2017-05-23T10:39:15Z</time>
      </trkpt>
      <trkpt lat="44.75904" lon="-0.26294">
        <ele>77</ele>
        <time>2017-05-23T10:39:31Z</time>
      </trkpt>
      <trkpt lat="44.75894" lon="-0.26298">
        <ele>77</ele>
        <time>2017-05-23T10:39:47Z</time>
      </trkpt>
      <trkpt lat="44.7589" lon="-0.26302">
        <ele>77</ele>
        <time>2017-05-23T10:39:47Z</time>
      </trkpt>
      <trkpt lat="44.7588" lon="-0.26306">
        <ele>77</ele>
        <time>2017-05-23T10:39:47Z</time>
      </trkpt>
      <trkpt lat="44.75858" lon="-0.26311">
        <ele>85</ele>
        <time>2017-05-23T10:40:19Z</time>
      </trkpt>
      <trkpt lat="44.75846" lon="-0.26315">
        <ele>85</ele>
        <time>2017-05-23T10:40:19Z</time>
      </trkpt>
      <trkpt lat="44.75844" lon="-0.26314">
        <ele>85</ele>
        <time>2017-05-23T10:40:35Z</time>
      </trkpt>
      <trkpt lat="44.75804" lon="-0.26326">
        <ele>85</ele>
        <time>2017-05-23T10:41:07Z</time>
      </trkpt>
      <trkpt lat="44.75789" lon="-0.26335">
        <ele>89</ele>
        <time>2017-05-23T10:41:07Z</time>
      </trkpt>
      <trkpt lat="44.75781" lon="-0.26337">
        <ele>89</ele>
        <time>2017-05-23T10:41:23Z</time>
      </trkpt>
      <trkpt lat="44.75776" lon="-0.26343">
        <ele>89</ele>
        <time>2017-05-23T10:41:23Z</time>
      </trkpt>
      <trkpt lat="44.75775" lon="-0.26347">
        <ele>89</ele>
        <time>2017-05-23T10:41:39Z</time>
      </trkpt>
      <trkpt lat="44.75772" lon="-0.2635">
        <ele>89</ele>
        <time>2017-05-23T10:41:39Z</time>
      </trkpt>
      <trkpt lat="44.75767" lon="-0.26354">
        <ele>89</ele>
        <time>2017-05-23T10:41:39Z</time>
      </trkpt>
      <trkpt lat="44.75763" lon="-0.2636">
        <ele>89</ele>
        <time>2017-05-23T10:41:55Z</time>
      </trkpt>
      <trkpt lat="44.75752" lon="-0.26364">
        <ele>89</ele>
        <time>2017-05-23T10:41:55Z</time>
      </trkpt>
      <trkpt lat="44.75743" lon="-0.26372">
        <ele>89</ele>
        <time>2017-05-23T10:42:11Z</time>
      </trkpt>
      <trkpt lat="44.75737" lon="-0.26374">
        <ele>89</ele>
        <time>2017-05-23T10:42:11Z</time>
      </trkpt>
      <trkpt lat="44.75735" lon="-0.26384">
        <ele>82</ele>
        <time>2017-05-23T10:42:27Z</time>
      </trkpt>
      <trkpt lat="44.75732" lon="-0.2639">
        <ele>82</ele>
        <time>2017-05-23T10:42:27Z</time>
      </trkpt>
      <trkpt lat="44.75718" lon="-0.26396">
        <ele>82</ele>
        <time>2017-05-23T10:42:27Z</time>
      </trkpt>
      <trkpt lat="44.75715" lon="-0.26399">
        <ele>82</ele>
        <time>2017-05-23T10:42:27Z</time>
      </trkpt>
      <trkpt lat="44.75714" lon="-0.26404">
        <ele>82</ele>
        <time>2017-05-23T10:42:43Z</time>
      </trkpt>
      <trkpt lat="44.75717" lon="-0.26411">
        <ele>82</ele>
        <time>2017-05-23T10:42:43Z</time>
      </trkpt>
      <trkpt lat="44.75716" lon="-0.26417">
        <ele>82</ele>
        <time>2017-05-23T10:42:43Z</time>
      </trkpt>
      <trkpt lat="44.75716" lon="-0.2642">
        <ele>82</ele>
        <time>2017-05-23T10:42:59Z</time>
      </trkpt>
      <trkpt lat="44.75712" lon="-0.26425">
        <ele>82</ele>
        <time>2017-05-23T10:42:59Z</time>
      </trkpt>
      <trkpt lat="44.75709" lon="-0.26425">
        <ele>82</ele>
        <time>2017-05-23T10:42:59Z</time>
      </trkpt>
      <trkpt lat="44.75704" lon="-0.26429">
        <ele>84</ele>
        <time>2017-05-23T10:42:59Z</time>
      </trkpt>
      <trkpt lat="44.75702" lon="-0.26434">
        <ele>84</ele>
        <time>2017-05-23T10:43:15Z</time>
      </trkpt>
      <trkpt lat="44.75698" lon="-0.26437">
        <ele>84</ele>
        <time>2017-05-23T10:43:15Z</time>
      </trkpt>
      <trkpt lat="44.75694" lon="-0.2644">
        <ele>84</ele>
        <time>2017-05-23T10:43:15Z</time>
      </trkpt>
      <trkpt lat="44.7569" lon="-0.26448">
        <ele>84</ele>
        <time>2017-05-23T10:43:15Z</time>
      </trkpt>
      <trkpt lat="44.75689" lon="-0.26454">
        <ele>84</ele>
        <time>2017-05-23T10:43:31Z</time>
      </trkpt>
      <trkpt lat="44.75686" lon="-0.2646">
        <ele>89</ele>
        <time>2017-05-23T10:43:31Z</time>
      </trkpt>
      <trkpt lat="44.75683" lon="-0.26472">
        <ele>89</ele>
        <time>2017-05-23T10:43:31Z</time>
      </trkpt>
      <trkpt lat="44.75675" lon="-0.26475">
        <ele>89</ele>
        <time>2017-05-23T10:43:47Z</time>
      </trkpt>
      <trkpt lat="44.7567" lon="-0.26482">
        <ele>89</ele>
        <time>2017-05-23T10:43:47Z</time>
      </trkpt>
      <trkpt lat="44.75655" lon="-0.26494">
        <ele>89</ele>
        <time>2017-05-23T10:44:03Z</time>
      </trkpt>
      <trkpt lat="44.75648" lon="-0.26498">
        <ele>89</ele>
        <time>2017-05-23T10:44:03Z</time>
      </trkpt>
      <trkpt lat="44.7563" lon="-0.26502">
        <ele>89</ele>
        <time>2017-05-23T10:44:19Z</time>
      </trkpt>
      <trkpt lat="44.75624" lon="-0.26504">
        <ele>95</ele>
        <time>2017-05-23T10:44:19Z</time>
      </trkpt>
      <trkpt lat="44.75617" lon="-0.26508">
        <ele>95</ele>
        <time>2017-05-23T10:44:19Z</time>
      </trkpt>
      <trkpt lat="44.75609" lon="-0.26512">
        <ele>95</ele>
        <time>2017-05-23T10:44:19Z</time>
      </trkpt>
      <trkpt lat="44.75603" lon="-0.26512">
        <ele>95</ele>
        <time>2017-05-23T10:44:35Z</time>
      </trkpt>
      <trkpt lat="44.75598" lon="-0.26514">
        <ele>95</ele>
        <time>2017-05-23T10:44:35Z</time>
      </trkpt>
      <trkpt lat="44.75595" lon="-0.26513">
        <ele>95</ele>
        <time>2017-05-23T10:44:35Z</time>
      </trkpt>
      <trkpt lat="44.75582" lon="-0.26515">
        <ele>95</ele>
        <time>2017-05-23T10:44:51Z</time>
      </trkpt>
      <trkpt lat="44.75579" lon="-0.26515">
        <ele>95</ele>
        <time>2017-05-23T10:44:51Z</time>
      </trkpt>
      <trkpt lat="44.75572" lon="-0.26509">
        <ele>95</ele>
        <time>2017-05-23T10:44:51Z</time>
      </trkpt>
      <trkpt lat="44.75563" lon="-0.26508">
        <ele>95</ele>
        <time>2017-05-23T10:45:07Z</time>
      </trkpt>
      <trkpt lat="44.75536" lon="-0.26511">
        <ele>103</ele>
        <time>2017-05-23T10:45:23Z</time>
      </trkpt>
      <trkpt lat="44.75521" lon="-0.26509">
        <ele>103</ele>
        <time>2017-05-23T10:45:23Z</time>
      </trkpt>
      <trkpt lat="44.75512" lon="-0.26506">
        <ele>103</ele>
        <time>2017-05-23T10:45:39Z</time>
      </trkpt>
      <trkpt lat="44.755" lon="-0.26508">
        <ele>103</ele>
        <time>2017-05-23T10:45:55Z</time>
      </trkpt>
      <trkpt lat="44.75488" lon="-0.26502">
        <ele>103</ele>
        <time>2017-05-23T10:45:55Z</time>
      </trkpt>
      <trkpt lat="44.7548" lon="-0.265">
        <ele>103</ele>
        <time>2017-05-23T10:46:11Z</time>
      </trkpt>
      <trkpt lat="44.75475" lon="-0.26502">
        <ele>103</ele>
        <time>2017-05-23T10:46:11Z</time>
      </trkpt>
      <trkpt lat="44.75461" lon="-0.26504">
        <ele>103</ele>
        <time>2017-05-23T10:46:35Z</time>
      </trkpt>
      <trkpt lat="44.75459" lon="-0.26502">
        <ele>103</ele>
        <time>2017-05-23T10:46:35Z</time>
      </trkpt>
      <trkpt lat="44.75462" lon="-0.26498">
        <ele>103</ele>
        <time>2017-05-23T10:46:35Z</time>
      </trkpt>
      <trkpt lat="44.7546" lon="-0.26493">
        <ele>103</ele>
        <time>2017-05-23T10:46:35Z</time>
      </trkpt>
      <trkpt lat="44.75459" lon="-0.26479">
        <ele>103</ele>
        <time>2017-05-23T10:46:51Z</time>
      </trkpt>
      <trkpt lat="44.75461" lon="-0.26465">
        <ele>103</ele>
        <time>2017-05-23T10:46:51Z</time>
      </trkpt>
      <trkpt lat="44.75459" lon="-0.26457">
        <ele>101</ele>
        <time>2017-05-23T10:47:11Z</time>
      </trkpt>
      <trkpt lat="44.75457" lon="-0.26454">
        <ele>109</ele>
        <time>2017-05-23T10:47:11Z</time>
      </trkpt>
      <trkpt lat="44.75455" lon="-0.26433">
        <ele>109</ele>
        <time>2017-05-23T10:47:27Z</time>
      </trkpt>
      <trkpt lat="44.75455" lon="-0.26424">
        <ele>109</ele>
        <time>2017-05-23T10:47:27Z</time>
      </trkpt>
      <trkpt lat="44.75453" lon="-0.26421">
        <ele>109</ele>
        <time>2017-05-23T10:47:43Z</time>
      </trkpt>
      <trkpt lat="44.75453" lon="-0.26412">
        <ele>109</ele>
        <time>2017-05-23T10:47:43Z</time>
      </trkpt>
      <trkpt lat="44.75458" lon="-0.26375">
        <ele>107</ele>
        <time>2017-05-23T10:47:59Z</time>
      </trkpt>
      <trkpt lat="44.75459" lon="-0.26371">
        <ele>100</ele>
        <time>2017-05-23T10:48:15Z</time>
      </trkpt>
      <trkpt lat="44.75463" lon="-0.26366">
        <ele>100</ele>
        <time>2017-05-23T10:48:15Z</time>
      </trkpt>
      <trkpt lat="44.75472" lon="-0.26333">
        <ele>100</ele>
        <time>2017-05-23T10:48:31Z</time>
      </trkpt>
      <trkpt lat="44.75472" lon="-0.26321">
        <ele>100</ele>
        <time>2017-05-23T10:48:47Z</time>
      </trkpt>
      <trkpt lat="44.7547" lon="-0.26314">
        <ele>100</ele>
        <time>2017-05-23T10:48:47Z</time>
      </trkpt>
      <trkpt lat="44.75474" lon="-0.26303">
        <ele>100</ele>
        <time>2017-05-23T10:49:03Z</time>
      </trkpt>
      <trkpt lat="44.75475" lon="-0.26291">
        <ele>103</ele>
        <time>2017-05-23T10:49:03Z</time>
      </trkpt>
      <trkpt lat="44.75478" lon="-0.26286">
        <ele>103</ele>
        <time>2017-05-23T10:49:03Z</time>
      </trkpt>
      <trkpt lat="44.75489" lon="-0.26278">
        <ele>103</ele>
        <time>2017-05-23T10:49:35Z</time>
      </trkpt>
      <trkpt lat="44.75489" lon="-0.26277">
        <ele>103</ele>
        <time>2017-05-23T10:49:35Z</time>
      </trkpt>
      <trkpt lat="44.75488" lon="-0.26272">
        <ele>103</ele>
        <time>2017-05-23T10:49:35Z</time>
      </trkpt>
      <trkpt lat="44.75492" lon="-0.26254">
        <ele>103</ele>
        <time>2017-05-23T10:49:51Z</time>
      </trkpt>
      <trkpt lat="44.75499" lon="-0.26239">
        <ele>103</ele>
        <time>2017-05-23T10:49:51Z</time>
      </trkpt>
      <trkpt lat="44.75501" lon="-0.26227">
        <ele>103</ele>
        <time>2017-05-23T10:50:07Z</time>
      </trkpt>
      <trkpt lat="44.75503" lon="-0.26214">
        <ele>103</ele>
        <time>2017-05-23T10:50:23Z</time>
      </trkpt>
      <trkpt lat="44.75513" lon="-0.26193">
        <ele>105</ele>
        <time>2017-05-23T10:50:39Z</time>
      </trkpt>
      <trkpt lat="44.75535" lon="-0.26142">
        <ele>105</ele>
        <time>2017-05-23T10:51:11Z</time>
      </trkpt>
      <trkpt lat="44.75547" lon="-0.26126">
        <ele>99</ele>
        <time>2017-05-23T10:51:27Z</time>
      </trkpt>
      <trkpt lat="44.75555" lon="-0.26106">
        <ele>104</ele>
        <time>2017-05-23T10:51:27Z</time>
      </trkpt>
      <trkpt lat="44.75576" lon="-0.26069">
        <ele>104</ele>
        <time>2017-05-23T10:51:59Z</time>
      </trkpt>
      <trkpt lat="44.75587" lon="-0.26052">
        <ele>104</ele>
        <time>2017-05-23T10:52:15Z</time>
      </trkpt>
      <trkpt lat="44.75599" lon="-0.26021">
        <ele>108</ele>
        <time>2017-05-23T10:52:31Z</time>
      </trkpt>
      <trkpt lat="44.75604" lon="-0.26014">
        <ele>108</ele>
        <time>2017-05-23T10:52:47Z</time>
      </trkpt>
      <trkpt lat="44.75606" lon="-0.26001">
        <ele>108</ele>
        <time>2017-05-23T10:52:47Z</time>
      </trkpt>
      <trkpt lat="44.75619" lon="-0.25981">
        <ele>108</ele>
        <time>2017-05-23T10:53:03Z</time>
      </trkpt>
      <trkpt lat="44.75622" lon="-0.25974">
        <ele>108</ele>
        <time>2017-05-23T10:53:31Z</time>
      </trkpt>
      <trkpt lat="44.75624" lon="-0.25972">
        <ele>108</ele>
        <time>2017-05-23T10:53:31Z</time>
      </trkpt>
      <trkpt lat="44.75624" lon="-0.25971">
        <ele>108</ele>
        <time>2017-05-23T10:53:31Z</time>
      </trkpt>
      <trkpt lat="44.75626" lon="-0.25969">
        <ele>100</ele>
        <time>2017-05-23T10:53:31Z</time>
      </trkpt>
      <trkpt lat="44.75634" lon="-0.2595">
        <ele>103</ele>
        <time>2017-05-23T10:53:47Z</time>
      </trkpt>
      <trkpt lat="44.75636" lon="-0.25944">
        <ele>103</ele>
        <time>2017-05-23T10:54:03Z</time>
      </trkpt>
      <trkpt lat="44.75644" lon="-0.25928">
        <ele>103</ele>
        <time>2017-05-23T10:54:03Z</time>
      </trkpt>
      <trkpt lat="44.75659" lon="-0.25918">
        <ele>103</ele>
        <time>2017-05-23T10:54:55Z</time>
      </trkpt>
      <trkpt lat="44.75663" lon="-0.2592">
        <ele>103</ele>
        <time>2017-05-23T10:54:55Z</time>
      </trkpt>
      <trkpt lat="44.75663" lon="-0.25909">
        <ele>103</ele>
        <time>2017-05-23T10:54:55Z</time>
      </trkpt>
      <trkpt lat="44.75661" lon="-0.25895">
        <ele>103</ele>
        <time>2017-05-23T10:54:55Z</time>
      </trkpt>
      <trkpt lat="44.75668" lon="-0.25886">
        <ele>103</ele>
        <time>2017-05-23T10:55:15Z</time>
      </trkpt>
      <trkpt lat="44.75669" lon="-0.25879">
        <ele>103</ele>
        <time>2017-05-23T10:55:15Z</time>
      </trkpt>
      <trkpt lat="44.75664" lon="-0.25873">
        <ele>102</ele>
        <time>2017-05-23T10:55:15Z</time>
      </trkpt>
      <trkpt lat="44.75666" lon="-0.25866">
        <ele>102</ele>
        <time>2017-05-23T10:55:31Z</time>
      </trkpt>
      <trkpt lat="44.75672" lon="-0.25857">
        <ele>102</ele>
        <time>2017-05-23T10:55:31Z</time>
      </trkpt>
      <trkpt lat="44.75682" lon="-0.25848">
        <ele>102</ele>
        <time>2017-05-23T10:55:47Z</time>
      </trkpt>
      <trkpt lat="44.75693" lon="-0.25843">
        <ele>102</ele>
        <time>2017-05-23T10:55:47Z</time>
      </trkpt>
      <trkpt lat="44.75703" lon="-0.25838">
        <ele>102</ele>
        <time>2017-05-23T10:56:07Z</time>
      </trkpt>
      <trkpt lat="44.75706" lon="-0.25834">
        <ele>102</ele>
        <time>2017-05-23T10:56:07Z</time>
      </trkpt>
      <trkpt lat="44.75703" lon="-0.25831">
        <ele>102</ele>
        <time>2017-05-23T10:56:07Z</time>
      </trkpt>
      <trkpt lat="44.75686" lon="-0.25819">
        <ele>102</ele>
        <time>2017-05-23T10:56:23Z</time>
      </trkpt>
      <trkpt lat="44.75671" lon="-0.25815">
        <ele>102</ele>
        <time>2017-05-23T10:56:55Z</time>
      </trkpt>
      <trkpt lat="44.75669" lon="-0.25811">
        <ele>102</ele>
        <time>2017-05-23T10:56:55Z</time>
      </trkpt>
      <trkpt lat="44.75665" lon="-0.25809">
        <ele>102</ele>
        <time>2017-05-23T10:56:55Z</time>
      </trkpt>
      <trkpt lat="44.75659" lon="-0.25805">
        <ele>102</ele>
        <time>2017-05-23T10:56:55Z</time>
      </trkpt>
      <trkpt lat="44.75641" lon="-0.25797">
        <ele>102</ele>
        <time>2017-05-23T10:57:11Z</time>
      </trkpt>
      <trkpt lat="44.75638" lon="-0.25797">
        <ele>102</ele>
        <time>2017-05-23T10:57:11Z</time>
      </trkpt>
      <trkpt lat="44.75635" lon="-0.25798">
        <ele>102</ele>
        <time>2017-05-23T10:57:43Z</time>
      </trkpt>
      <trkpt lat="44.75633" lon="-0.25792">
        <ele>101</ele>
        <time>2017-05-23T10:57:43Z</time>
      </trkpt>
      <trkpt lat="44.75628" lon="-0.25786">
        <ele>101</ele>
        <time>2017-05-23T10:57:43Z</time>
      </trkpt>
      <trkpt lat="44.75618" lon="-0.25782">
        <ele>101</ele>
        <time>2017-05-23T10:57:59Z</time>
      </trkpt>
      <trkpt lat="44.75612" lon="-0.25785">
        <ele>101</ele>
        <time>2017-05-23T10:57:59Z</time>
      </trkpt>
      <trkpt lat="44.75605" lon="-0.2578">
        <ele>101</ele>
        <time>2017-05-23T10:58:15Z</time>
      </trkpt>
      <trkpt lat="44.75605" lon="-0.25772">
        <ele>101</ele>
        <time>2017-05-23T10:58:15Z</time>
      </trkpt>
      <trkpt lat="44.75599" lon="-0.25766">
        <ele>101</ele>
        <time>2017-05-23T10:59:03Z</time>
      </trkpt>
      <trkpt lat="44.75598" lon="-0.25749">
        <ele>101</ele>
        <time>2017-05-23T10:59:03Z</time>
      </trkpt>
      <trkpt lat="44.75599" lon="-0.25743">
        <ele>101</ele>
        <time>2017-05-23T11:00:07Z</time>
      </trkpt>
      <trkpt lat="44.75593" lon="-0.25734">
        <ele>101</ele>
        <time>2017-05-23T11:00:07Z</time>
      </trkpt>
      <trkpt lat="44.75593" lon="-0.2573">
        <ele>101</ele>
        <time>2017-05-23T11:00:07Z</time>
      </trkpt>
      <trkpt lat="44.75585" lon="-0.25732">
        <ele>101</ele>
        <time>2017-05-23T11:00:23Z</time>
      </trkpt>
      <trkpt lat="44.7558" lon="-0.25726">
        <ele>101</ele>
        <time>2017-05-23T11:00:23Z</time>
      </trkpt>
      <trkpt lat="44.75578" lon="-0.2572">
        <ele>101</ele>
        <time>2017-05-23T11:00:23Z</time>
      </trkpt>
      <trkpt lat="44.75572" lon="-0.25716">
        <ele>101</ele>
        <time>2017-05-23T11:00:39Z</time>
      </trkpt>
      <trkpt lat="44.75567" lon="-0.25708">
        <ele>98</ele>
        <time>2017-05-23T11:00:39Z</time>
      </trkpt>
      <trkpt lat="44.75566" lon="-0.25701">
        <ele>98</ele>
        <time>2017-05-23T11:00:55Z</time>
      </trkpt>
      <trkpt lat="44.75563" lon="-0.25694">
        <ele>98</ele>
        <time>2017-05-23T11:00:55Z</time>
      </trkpt>
      <trkpt lat="44.75559" lon="-0.25687">
        <ele>98</ele>
        <time>2017-05-23T11:00:55Z</time>
      </trkpt>
      <trkpt lat="44.7555" lon="-0.2568">
        <ele>98</ele>
        <time>2017-05-23T11:01:11Z</time>
      </trkpt>
      <trkpt lat="44.75546" lon="-0.25674">
        <ele>98</ele>
        <time>2017-05-23T11:01:11Z</time>
      </trkpt>
      <trkpt lat="44.75547" lon="-0.25668">
        <ele>98</ele>
        <time>2017-05-23T11:01:11Z</time>
      </trkpt>
      <trkpt lat="44.75543" lon="-0.25666">
        <ele>98</ele>
        <time>2017-05-23T11:01:11Z</time>
      </trkpt>
      <trkpt lat="44.75525" lon="-0.25648">
        <ele>111</ele>
        <time>2017-05-23T11:01:43Z</time>
      </trkpt>
      <trkpt lat="44.7552" lon="-0.25645">
        <ele>111</ele>
        <time>2017-05-23T11:01:43Z</time>
      </trkpt>
      <trkpt lat="44.75515" lon="-0.25644">
        <ele>111</ele>
        <time>2017-05-23T11:01:43Z</time>
      </trkpt>
      <trkpt lat="44.75507" lon="-0.25639">
        <ele>111</ele>
        <time>2017-05-23T11:01:59Z</time>
      </trkpt>
      <trkpt lat="44.75497" lon="-0.25638">
        <ele>111</ele>
        <time>2017-05-23T11:01:59Z</time>
      </trkpt>
      <trkpt lat="44.75496" lon="-0.25635">
        <ele>111</ele>
        <time>2017-05-23T11:01:59Z</time>
      </trkpt>
      <trkpt lat="44.75492" lon="-0.25632">
        <ele>111</ele>
        <time>2017-05-23T11:02:47Z</time>
      </trkpt>
      <trkpt lat="44.75487" lon="-0.25626">
        <ele>111</ele>
        <time>2017-05-23T11:02:47Z</time>
      </trkpt>
      <trkpt lat="44.75481" lon="-0.25623">
        <ele>106</ele>
        <time>2017-05-23T11:02:47Z</time>
      </trkpt>
      <trkpt lat="44.75477" lon="-0.25619">
        <ele>106</ele>
        <time>2017-05-23T11:02:47Z</time>
      </trkpt>
      <trkpt lat="44.75473" lon="-0.25619">
        <ele>106</ele>
        <time>2017-05-23T11:02:47Z</time>
      </trkpt>
      <trkpt lat="44.75465" lon="-0.25614">
        <ele>106</ele>
        <time>2017-05-23T11:03:11Z</time>
      </trkpt>
      <trkpt lat="44.7546" lon="-0.25609">
        <ele>106</ele>
        <time>2017-05-23T11:03:11Z</time>
      </trkpt>
      <trkpt lat="44.75438" lon="-0.25607">
        <ele>112</ele>
        <time>2017-05-23T11:03:27Z</time>
      </trkpt>
      <trkpt lat="44.75411" lon="-0.256">
        <ele>112</ele>
        <time>2017-05-23T11:03:43Z</time>
      </trkpt>
      <trkpt lat="44.75386" lon="-0.2557">
        <ele>112</ele>
        <time>2017-05-23T11:04:15Z</time>
      </trkpt>
      <trkpt lat="44.75384" lon="-0.25561">
        <ele>112</ele>
        <time>2017-05-23T11:04:15Z</time>
      </trkpt>
      <trkpt lat="44.75381" lon="-0.25554">
        <ele>112</ele>
        <time>2017-05-23T11:04:15Z</time>
      </trkpt>
      <trkpt lat="44.75382" lon="-0.25548">
        <ele>112</ele>
        <time>2017-05-23T11:04:15Z</time>
      </trkpt>
      <trkpt lat="44.75376" lon="-0.25525">
        <ele>103</ele>
        <time>2017-05-23T11:04:31Z</time>
      </trkpt>
      <trkpt lat="44.75371" lon="-0.25516">
        <ele>108</ele>
        <time>2017-05-23T11:04:47Z</time>
      </trkpt>
      <trkpt lat="44.75367" lon="-0.2549">
        <ele>108</ele>
        <time>2017-05-23T11:05:03Z</time>
      </trkpt>
      <trkpt lat="44.75368" lon="-0.25472">
        <ele>108</ele>
        <time>2017-05-23T11:05:03Z</time>
      </trkpt>
      <trkpt lat="44.75366" lon="-0.25464">
        <ele>108</ele>
        <time>2017-05-23T11:05:03Z</time>
      </trkpt>
      <trkpt lat="44.75363" lon="-0.25458">
        <ele>107</ele>
        <time>2017-05-23T11:05:19Z</time>
      </trkpt>
      <trkpt lat="44.75363" lon="-0.2545">
        <ele>107</ele>
        <time>2017-05-23T11:05:19Z</time>
      </trkpt>
      <trkpt lat="44.75361" lon="-0.25444">
        <ele>107</ele>
        <time>2017-05-23T11:05:19Z</time>
      </trkpt>
      <trkpt lat="44.75359" lon="-0.25439">
        <ele>107</ele>
        <time>2017-05-23T11:05:19Z</time>
      </trkpt>
      <trkpt lat="44.75356" lon="-0.25437">
        <ele>107</ele>
        <time>2017-05-23T11:05:35Z</time>
      </trkpt>
      <trkpt lat="44.75354" lon="-0.25432">
        <ele>107</ele>
        <time>2017-05-23T11:05:35Z</time>
      </trkpt>
      <trkpt lat="44.75354" lon="-0.25424">
        <ele>107</ele>
        <time>2017-05-23T11:05:35Z</time>
      </trkpt>
      <trkpt lat="44.75346" lon="-0.25391">
        <ele>107</ele>
        <time>2017-05-23T11:05:51Z</time>
      </trkpt>
      <trkpt lat="44.75346" lon="-0.25386">
        <ele>107</ele>
        <time>2017-05-23T11:06:07Z</time>
      </trkpt>
      <trkpt lat="44.75347" lon="-0.25377">
        <ele>107</ele>
        <time>2017-05-23T11:06:07Z</time>
      </trkpt>
      <trkpt lat="44.75346" lon="-0.25371">
        <ele>104</ele>
        <time>2017-05-23T11:06:07Z</time>
      </trkpt>
      <trkpt lat="44.75343" lon="-0.25356">
        <ele>104</ele>
        <time>2017-05-23T11:06:23Z</time>
      </trkpt>
      <trkpt lat="44.75346" lon="-0.2534">
        <ele>104</ele>
        <time>2017-05-23T11:06:23Z</time>
      </trkpt>
      <trkpt lat="44.75345" lon="-0.25334">
        <ele>104</ele>
        <time>2017-05-23T11:06:23Z</time>
      </trkpt>
      <trkpt lat="44.7534" lon="-0.25315">
        <ele>104</ele>
        <time>2017-05-23T11:06:39Z</time>
      </trkpt>
      <trkpt lat="44.75341" lon="-0.25311">
        <ele>104</ele>
        <time>2017-05-23T11:06:39Z</time>
      </trkpt>
      <trkpt lat="44.75336" lon="-0.25303">
        <ele>104</ele>
        <time>2017-05-23T11:07:03Z</time>
      </trkpt>
      <trkpt lat="44.75329" lon="-0.25305">
        <ele>104</ele>
        <time>2017-05-23T11:07:03Z</time>
      </trkpt>
      <trkpt lat="44.75327" lon="-0.25307">
        <ele>104</ele>
        <time>2017-05-23T11:07:03Z</time>
      </trkpt>
      <trkpt lat="44.75322" lon="-0.25307">
        <ele>104</ele>
        <time>2017-05-23T11:07:19Z</time>
      </trkpt>
      <trkpt lat="44.75317" lon="-0.25309">
        <ele>104</ele>
        <time>2017-05-23T11:07:19Z</time>
      </trkpt>
      <trkpt lat="44.75308" lon="-0.25309">
        <ele>104</ele>
        <time>2017-05-23T11:07:19Z</time>
      </trkpt>
      <trkpt lat="44.75302" lon="-0.25313">
        <ele>104</ele>
        <time>2017-05-23T11:07:39Z</time>
      </trkpt>
      <trkpt lat="44.75288" lon="-0.25314">
        <ele>108</ele>
        <time>2017-05-23T11:07:55Z</time>
      </trkpt>
      <trkpt lat="44.75278" lon="-0.25316">
        <ele>108</ele>
        <time>2017-05-23T11:07:55Z</time>
      </trkpt>
      <trkpt lat="44.75273" lon="-0.25314">
        <ele>108</ele>
        <time>2017-05-23T11:08:11Z</time>
      </trkpt>
      <trkpt lat="44.75262" lon="-0.25316">
        <ele>108</ele>
        <time>2017-05-23T11:08:11Z</time>
      </trkpt>
      <trkpt lat="44.75248" lon="-0.25323">
        <ele>108</ele>
        <time>2017-05-23T11:08:27Z</time>
      </trkpt>
      <trkpt lat="44.75243" lon="-0.25324">
        <ele>108</ele>
        <time>2017-05-23T11:08:27Z</time>
      </trkpt>
      <trkpt lat="44.75239" lon="-0.25327">
        <ele>108</ele>
        <time>2017-05-23T11:08:27Z</time>
      </trkpt>
      <trkpt lat="44.75212" lon="-0.25335">
        <ele>108</ele>
        <time>2017-05-23T11:09:03Z</time>
      </trkpt>
      <trkpt lat="44.75194" lon="-0.25343">
        <ele>104</ele>
        <time>2017-05-23T11:09:19Z</time>
      </trkpt>
      <trkpt lat="44.75174" lon="-0.25354">
        <ele>104</ele>
        <time>2017-05-23T11:09:19Z</time>
      </trkpt>
      <trkpt lat="44.75164" lon="-0.25358">
        <ele>104</ele>
        <time>2017-05-23T11:09:35Z</time>
      </trkpt>
      <trkpt lat="44.75148" lon="-0.25369">
        <ele>104</ele>
        <time>2017-05-23T11:10:15Z</time>
      </trkpt>
      <trkpt lat="44.75131" lon="-0.25384">
        <ele>106</ele>
        <time>2017-05-23T11:10:31Z</time>
      </trkpt>
      <trkpt lat="44.75123" lon="-0.25396">
        <ele>100</ele>
        <time>2017-05-23T11:10:31Z</time>
      </trkpt>
      <trkpt lat="44.75121" lon="-0.25407">
        <ele>100</ele>
        <time>2017-05-23T11:10:47Z</time>
      </trkpt>
      <trkpt lat="44.75118" lon="-0.25411">
        <ele>100</ele>
        <time>2017-05-23T11:10:47Z</time>
      </trkpt>
      <trkpt lat="44.75114" lon="-0.25413">
        <ele>100</ele>
        <time>2017-05-23T11:10:47Z</time>
      </trkpt>
      <trkpt lat="44.75112" lon="-0.25417">
        <ele>100</ele>
        <time>2017-05-23T11:11:03Z</time>
      </trkpt>
      <trkpt lat="44.75099" lon="-0.25423">
        <ele>100</ele>
        <time>2017-05-23T11:11:03Z</time>
      </trkpt>
      <trkpt lat="44.75088" lon="-0.25432">
        <ele>100</ele>
        <time>2017-05-23T11:11:19Z</time>
      </trkpt>
      <trkpt lat="44.75082" lon="-0.25439">
        <ele>100</ele>
        <time>2017-05-23T11:11:19Z</time>
      </trkpt>
      <trkpt lat="44.7507" lon="-0.25445">
        <ele>100</ele>
        <time>2017-05-23T11:11:35Z</time>
      </trkpt>
      <trkpt lat="44.75053" lon="-0.25449">
        <ele>100</ele>
        <time>2017-05-23T11:11:51Z</time>
      </trkpt>
      <trkpt lat="44.75042" lon="-0.25456">
        <ele>100</ele>
        <time>2017-05-23T11:11:51Z</time>
      </trkpt>
      <trkpt lat="44.75038" lon="-0.2546">
        <ele>95</ele>
        <time>2017-05-23T11:12:07Z</time>
      </trkpt>
      <trkpt lat="44.75026" lon="-0.2546">
        <ele>95</ele>
        <time>2017-05-23T11:12:07Z</time>
      </trkpt>
      <trkpt lat="44.75019" lon="-0.25463">
        <ele>95</ele>
        <time>2017-05-23T11:12:23Z</time>
      </trkpt>
      <trkpt lat="44.75008" lon="-0.25466">
        <ele>95</ele>
        <time>2017-05-23T11:12:23Z</time>
      </trkpt>
      <trkpt lat="44.7499" lon="-0.25465">
        <ele>95</ele>
        <time>2017-05-23T11:12:39Z</time>
      </trkpt>
      <trkpt lat="44.74977" lon="-0.25458">
        <ele>94</ele>
        <time>2017-05-23T11:12:39Z</time>
      </trkpt>
      <trkpt lat="44.74968" lon="-0.2545">
        <ele>94</ele>
        <time>2017-05-23T11:12:55Z</time>
      </trkpt>
      <trkpt lat="44.74963" lon="-0.25439">
        <ele>94</ele>
        <time>2017-05-23T11:12:55Z</time>
      </trkpt>
      <trkpt lat="44.7496" lon="-0.25417">
        <ele>94</ele>
        <time>2017-05-23T11:13:11Z</time>
      </trkpt>
      <trkpt lat="44.7496" lon="-0.25407">
        <ele>94</ele>
        <time>2017-05-23T11:13:11Z</time>
      </trkpt>
      <trkpt lat="44.74958" lon="-0.25403">
        <ele>91</ele>
        <time>2017-05-23T11:13:11Z</time>
      </trkpt>
      <trkpt lat="44.74951" lon="-0.25399">
        <ele>91</ele>
        <time>2017-05-23T11:13:27Z</time>
      </trkpt>
      <trkpt lat="44.7494" lon="-0.25404">
        <ele>91</ele>
        <time>2017-05-23T11:13:43Z</time>
      </trkpt>
      <trkpt lat="44.74935" lon="-0.25408">
        <ele>91</ele>
        <time>2017-05-23T11:13:43Z</time>
      </trkpt>
      <trkpt lat="44.74931" lon="-0.25407">
        <ele>91</ele>
        <time>2017-05-23T11:13:43Z</time>
      </trkpt>
      <trkpt lat="44.74922" lon="-0.25397">
        <ele>91</ele>
        <time>2017-05-23T11:13:59Z</time>
      </trkpt>
      <trkpt lat="44.74919" lon="-0.25385">
        <ele>91</ele>
        <time>2017-05-23T11:13:59Z</time>
      </trkpt>
      <trkpt lat="44.74919" lon="-0.25378">
        <ele>91</ele>
        <time>2017-05-23T11:13:59Z</time>
      </trkpt>
      <trkpt lat="44.74917" lon="-0.25372">
        <ele>92</ele>
        <time>2017-05-23T11:14:15Z</time>
      </trkpt>
      <trkpt lat="44.74917" lon="-0.25365">
        <ele>92</ele>
        <time>2017-05-23T11:14:15Z</time>
      </trkpt>
      <trkpt lat="44.7492" lon="-0.25356">
        <ele>92</ele>
        <time>2017-05-23T11:14:35Z</time>
      </trkpt>
      <trkpt lat="44.74915" lon="-0.25349">
        <ele>92</ele>
        <time>2017-05-23T11:14:35Z</time>
      </trkpt>
      <trkpt lat="44.74909" lon="-0.25349">
        <ele>92</ele>
        <time>2017-05-23T11:14:35Z</time>
      </trkpt>
      <trkpt lat="44.74901" lon="-0.25351">
        <ele>92</ele>
        <time>2017-05-23T11:14:51Z</time>
      </trkpt>
      <trkpt lat="44.74893" lon="-0.25349">
        <ele>92</ele>
        <time>2017-05-23T11:14:51Z</time>
      </trkpt>
      <trkpt lat="44.74886" lon="-0.25349">
        <ele>92</ele>
        <time>2017-05-23T11:15:23Z</time>
      </trkpt>
      <trkpt lat="44.74885" lon="-0.25348">
        <ele>92</ele>
        <time>2017-05-23T11:15:23Z</time>
      </trkpt>
      <trkpt lat="44.74882" lon="-0.2535">
        <ele>92</ele>
        <time>2017-05-23T11:15:23Z</time>
      </trkpt>
      <trkpt lat="44.7488" lon="-0.25365">
        <ele>92</ele>
        <time>2017-05-23T11:15:43Z</time>
      </trkpt>
      <trkpt lat="44.74874" lon="-0.25367">
        <ele>88</ele>
        <time>2017-05-23T11:15:43Z</time>
      </trkpt>
      <trkpt lat="44.74872" lon="-0.2537">
        <ele>88</ele>
        <time>2017-05-23T11:15:43Z</time>
      </trkpt>
      <trkpt lat="44.74866" lon="-0.25372">
        <ele>88</ele>
        <time>2017-05-23T11:15:43Z</time>
      </trkpt>
      <trkpt lat="44.7486" lon="-0.25368">
        <ele>88</ele>
        <time>2017-05-23T11:15:59Z</time>
      </trkpt>
      <trkpt lat="44.74854" lon="-0.25377">
        <ele>89</ele>
        <time>2017-05-23T11:15:59Z</time>
      </trkpt>
      <trkpt lat="44.74851" lon="-0.25384">
        <ele>89</ele>
        <time>2017-05-23T11:15:59Z</time>
      </trkpt>
      <trkpt lat="44.7485" lon="-0.25388">
        <ele>89</ele>
        <time>2017-05-23T11:16:15Z</time>
      </trkpt>
      <trkpt lat="44.74848" lon="-0.25392">
        <ele>89</ele>
        <time>2017-05-23T11:16:15Z</time>
      </trkpt>
      <trkpt lat="44.74845" lon="-0.25393">
        <ele>89</ele>
        <time>2017-05-23T11:16:15Z</time>
      </trkpt>
      <trkpt lat="44.74836" lon="-0.25394">
        <ele>89</ele>
        <time>2017-05-23T11:16:31Z</time>
      </trkpt>
      <trkpt lat="44.74834" lon="-0.25399">
        <ele>89</ele>
        <time>2017-05-23T11:16:31Z</time>
      </trkpt>
      <trkpt lat="44.74819" lon="-0.25411">
        <ele>89</ele>
        <time>2017-05-23T11:16:47Z</time>
      </trkpt>
      <trkpt lat="44.74813" lon="-0.25419">
        <ele>89</ele>
        <time>2017-05-23T11:16:47Z</time>
      </trkpt>
      <trkpt lat="44.74806" lon="-0.25425">
        <ele>89</ele>
        <time>2017-05-23T11:17:03Z</time>
      </trkpt>
      <trkpt lat="44.74801" lon="-0.25435">
        <ele>89</ele>
        <time>2017-05-23T11:17:03Z</time>
      </trkpt>
      <trkpt lat="44.74797" lon="-0.25438">
        <ele>89</ele>
        <time>2017-05-23T11:17:03Z</time>
      </trkpt>
      <trkpt lat="44.74797" lon="-0.2545">
        <ele>89</ele>
        <time>2017-05-23T11:17:19Z</time>
      </trkpt>
      <trkpt lat="44.74794" lon="-0.25458">
        <ele>89</ele>
        <time>2017-05-23T11:17:19Z</time>
      </trkpt>
      <trkpt lat="44.74789" lon="-0.25462">
        <ele>87</ele>
        <time>2017-05-23T11:17:35Z</time>
      </trkpt>
      <trkpt lat="44.74787" lon="-0.25467">
        <ele>87</ele>
        <time>2017-05-23T11:17:35Z</time>
      </trkpt>
      <trkpt lat="44.74787" lon="-0.25484">
        <ele>87</ele>
        <time>2017-05-23T11:17:51Z</time>
      </trkpt>
      <trkpt lat="44.74792" lon="-0.25505">
        <ele>90</ele>
        <time>2017-05-23T11:17:51Z</time>
      </trkpt>
      <trkpt lat="44.74794" lon="-0.2551">
        <ele>90</ele>
        <time>2017-05-23T11:18:07Z</time>
      </trkpt>
      <trkpt lat="44.74796" lon="-0.25546">
        <ele>87</ele>
        <time>2017-05-23T11:18:23Z</time>
      </trkpt>
      <trkpt lat="44.74798" lon="-0.25553">
        <ele>87</ele>
        <time>2017-05-23T11:18:23Z</time>
      </trkpt>
      <trkpt lat="44.748" lon="-0.25579">
        <ele>87</ele>
        <time>2017-05-23T11:18:39Z</time>
      </trkpt>
      <trkpt lat="44.74803" lon="-0.25592">
        <ele>87</ele>
        <time>2017-05-23T11:18:55Z</time>
      </trkpt>
      <trkpt lat="44.74806" lon="-0.25612">
        <ele>87</ele>
        <time>2017-05-23T11:18:55Z</time>
      </trkpt>
      <trkpt lat="44.74805" lon="-0.25626">
        <ele>83</ele>
        <time>2017-05-23T11:19:11Z</time>
      </trkpt>
      <trkpt lat="44.74808" lon="-0.25656">
        <ele>83</ele>
        <time>2017-05-23T11:19:27Z</time>
      </trkpt>
      <trkpt lat="44.74812" lon="-0.25659">
        <ele>83</ele>
        <time>2017-05-23T11:19:27Z</time>
      </trkpt>
      <trkpt lat="44.74815" lon="-0.25664">
        <ele>83</ele>
        <time>2017-05-23T11:19:27Z</time>
      </trkpt>
      <trkpt lat="44.74816" lon="-0.2567">
        <ele>83</ele>
        <time>2017-05-23T11:19:43Z</time>
      </trkpt>
      <trkpt lat="44.74815" lon="-0.25682">
        <ele>83</ele>
        <time>2017-05-23T11:19:43Z</time>
      </trkpt>
      <trkpt lat="44.74812" lon="-0.25684">
        <ele>83</ele>
        <time>2017-05-23T11:19:43Z</time>
      </trkpt>
      <trkpt lat="44.7481" lon="-0.25688">
        <ele>83</ele>
        <time>2017-05-23T11:20:03Z</time>
      </trkpt>
      <trkpt lat="44.7481" lon="-0.25697">
        <ele>83</ele>
        <time>2017-05-23T11:20:03Z</time>
      </trkpt>
      <trkpt lat="44.74808" lon="-0.257">
        <ele>83</ele>
        <time>2017-05-23T11:20:03Z</time>
      </trkpt>
      <trkpt lat="44.74805" lon="-0.25703">
        <ele>83</ele>
        <time>2017-05-23T11:20:03Z</time>
      </trkpt>
      <trkpt lat="44.74799" lon="-0.25704">
        <ele>83</ele>
        <time>2017-05-23T11:20:19Z</time>
      </trkpt>
      <trkpt lat="44.74793" lon="-0.25709">
        <ele>84</ele>
        <time>2017-05-23T11:20:19Z</time>
      </trkpt>
      <trkpt lat="44.74787" lon="-0.25717">
        <ele>78</ele>
        <time>2017-05-23T11:20:35Z</time>
      </trkpt>
      <trkpt lat="44.74775" lon="-0.25724">
        <ele>78</ele>
        <time>2017-05-23T11:20:35Z</time>
      </trkpt>
      <trkpt lat="44.74768" lon="-0.25743">
        <ele>78</ele>
        <time>2017-05-23T11:20:51Z</time>
      </trkpt>
      <trkpt lat="44.74769" lon="-0.25745">
        <ele>78</ele>
        <time>2017-05-23T11:21:07Z</time>
      </trkpt>
      <trkpt lat="44.74768" lon="-0.25757">
        <ele>78</ele>
        <time>2017-05-23T11:21:07Z</time>
      </trkpt>
      <trkpt lat="44.74765" lon="-0.2576">
        <ele>78</ele>
        <time>2017-05-23T11:21:07Z</time>
      </trkpt>
      <trkpt lat="44.7476" lon="-0.25767">
        <ele>78</ele>
        <time>2017-05-23T11:21:23Z</time>
      </trkpt>
      <trkpt lat="44.74759" lon="-0.25774">
        <ele>78</ele>
        <time>2017-05-23T11:21:23Z</time>
      </trkpt>
      <trkpt lat="44.74746" lon="-0.2578">
        <ele>78</ele>
        <time>2017-05-23T11:21:51Z</time>
      </trkpt>
      <trkpt lat="44.74743" lon="-0.25789">
        <ele>78</ele>
        <time>2017-05-23T11:22:07Z</time>
      </trkpt>
      <trkpt lat="44.74729" lon="-0.25784">
        <ele>78</ele>
        <time>2017-05-23T11:22:31Z</time>
      </trkpt>
      <trkpt lat="44.74729" lon="-0.25785">
        <ele>78</ele>
        <time>2017-05-23T11:22:31Z</time>
      </trkpt>
      <trkpt lat="44.74715" lon="-0.25785">
        <ele>78</ele>
        <time>2017-05-23T11:22:59Z</time>
      </trkpt>
      <trkpt lat="44.74713" lon="-0.25784">
        <ele>78</ele>
        <time>2017-05-23T11:22:59Z</time>
      </trkpt>
      <trkpt lat="44.74708" lon="-0.25784">
        <ele>71</ele>
        <time>2017-05-23T11:22:59Z</time>
      </trkpt>
      <trkpt lat="44.74702" lon="-0.2579">
        <ele>71</ele>
        <time>2017-05-23T11:23:59Z</time>
      </trkpt>
      <trkpt lat="44.74699" lon="-0.25785">
        <ele>71</ele>
        <time>2017-05-23T11:23:59Z</time>
      </trkpt>
      <trkpt lat="44.7469" lon="-0.25794">
        <ele>72</ele>
        <time>2017-05-23T11:25:27Z</time>
      </trkpt>
      <trkpt lat="44.74686" lon="-0.25797">
        <ele>72</ele>
        <time>2017-05-23T11:25:27Z</time>
      </trkpt>
      <trkpt lat="44.74683" lon="-0.25796">
        <ele>72</ele>
        <time>2017-05-23T11:25:27Z</time>
      </trkpt>
      <trkpt lat="44.74681" lon="-0.25791">
        <ele>71</ele>
        <time>2017-05-23T11:25:59Z</time>
      </trkpt>
      <trkpt lat="44.7468" lon="-0.25792">
        <ele>72</ele>
        <time>2017-05-23T11:25:59Z</time>
      </trkpt>
      <trkpt lat="44.74679" lon="-0.25801">
        <ele>72</ele>
        <time>2017-05-23T11:25:59Z</time>
      </trkpt>
      <trkpt lat="44.74677" lon="-0.25803">
        <ele>72</ele>
        <time>2017-05-23T11:25:59Z</time>
      </trkpt>
      <trkpt lat="44.74669" lon="-0.25802">
        <ele>72</ele>
        <time>2017-05-23T11:26:15Z</time>
      </trkpt>
      <trkpt lat="44.74656" lon="-0.25807">
        <ele>72</ele>
        <time>2017-05-23T11:26:31Z</time>
      </trkpt>
      <trkpt lat="44.74632" lon="-0.25813">
        <ele>72</ele>
        <time>2017-05-23T11:26:47Z</time>
      </trkpt>
      <trkpt lat="44.74599" lon="-0.25824">
        <ele>70</ele>
        <time>2017-05-23T11:27:27Z</time>
      </trkpt>
      <trkpt lat="44.74587" lon="-0.2583">
        <ele>70</ele>
        <time>2017-05-23T11:27:43Z</time>
      </trkpt>
      <trkpt lat="44.74582" lon="-0.2583">
        <ele>70</ele>
        <time>2017-05-23T11:27:43Z</time>
      </trkpt>
      <trkpt lat="44.74576" lon="-0.25833">
        <ele>70</ele>
        <time>2017-05-23T11:27:43Z</time>
      </trkpt>
      <trkpt lat="44.74573" lon="-0.25837">
        <ele>70</ele>
        <time>2017-05-23T11:27:43Z</time>
      </trkpt>
      <trkpt lat="44.74563" lon="-0.2584">
        <ele>70</ele>
        <time>2017-05-23T11:27:59Z</time>
      </trkpt>
      <trkpt lat="44.74551" lon="-0.25841">
        <ele>70</ele>
        <time>2017-05-23T11:27:59Z</time>
      </trkpt>
      <trkpt lat="44.74546" lon="-0.25847">
        <ele>70</ele>
        <time>2017-05-23T11:28:15Z</time>
      </trkpt>
      <trkpt lat="44.74539" lon="-0.25872">
        <ele>68</ele>
        <time>2017-05-23T11:28:31Z</time>
      </trkpt>
      <trkpt lat="44.74537" lon="-0.25882">
        <ele>68</ele>
        <time>2017-05-23T11:28:31Z</time>
      </trkpt>
      <trkpt lat="44.74535" lon="-0.25909">
        <ele>68</ele>
        <time>2017-05-23T11:28:47Z</time>
      </trkpt>
      <trkpt lat="44.74537" lon="-0.25922">
        <ele>68</ele>
        <time>2017-05-23T11:29:03Z</time>
      </trkpt>
      <trkpt lat="44.74536" lon="-0.25928">
        <ele>68</ele>
        <time>2017-05-23T11:29:03Z</time>
      </trkpt>
      <trkpt lat="44.74537" lon="-0.25934">
        <ele>68</ele>
        <time>2017-05-23T11:29:03Z</time>
      </trkpt>
      <trkpt lat="44.74535" lon="-0.2596">
        <ele>71</ele>
        <time>2017-05-23T11:29:19Z</time>
      </trkpt>
      <trkpt lat="44.74535" lon="-0.25967">
        <ele>71</ele>
        <time>2017-05-23T11:29:19Z</time>
      </trkpt>
      <trkpt lat="44.74537" lon="-0.25983">
        <ele>71</ele>
        <time>2017-05-23T11:29:35Z</time>
      </trkpt>
      <trkpt lat="44.74532" lon="-0.26013">
        <ele>71</ele>
        <time>2017-05-23T11:29:51Z</time>
      </trkpt>
      <trkpt lat="44.74533" lon="-0.26026">
        <ele>71</ele>
        <time>2017-05-23T11:30:07Z</time>
      </trkpt>
      <trkpt lat="44.7453" lon="-0.2604">
        <ele>71</ele>
        <time>2017-05-23T11:30:07Z</time>
      </trkpt>
      <trkpt lat="44.74528" lon="-0.2606">
        <ele>72</ele>
        <time>2017-05-23T11:30:23Z</time>
      </trkpt>
      <trkpt lat="44.74527" lon="-0.2608">
        <ele>72</ele>
        <time>2017-05-23T11:30:39Z</time>
      </trkpt>
      <trkpt lat="44.74524" lon="-0.26104">
        <ele>72</ele>
        <time>2017-05-23T11:30:39Z</time>
      </trkpt>
      <trkpt lat="44.74523" lon="-0.26111">
        <ele>72</ele>
        <time>2017-05-23T11:30:55Z</time>
      </trkpt>
      <trkpt lat="44.74521" lon="-0.26126">
        <ele>73</ele>
        <time>2017-05-23T11:30:55Z</time>
      </trkpt>
      <trkpt lat="44.74515" lon="-0.2619">
        <ele>73</ele>
        <time>2017-05-23T11:31:27Z</time>
      </trkpt>
      <trkpt lat="44.74514" lon="-0.26195">
        <ele>73</ele>
        <time>2017-05-23T11:31:43Z</time>
      </trkpt>
      <trkpt lat="44.74514" lon="-0.26201">
        <ele>73</ele>
        <time>2017-05-23T11:31:43Z</time>
      </trkpt>
      <trkpt lat="44.74512" lon="-0.26225">
        <ele>73</ele>
        <time>2017-05-23T11:31:59Z</time>
      </trkpt>
      <trkpt lat="44.74504" lon="-0.26246">
        <ele>73</ele>
        <time>2017-05-23T11:31:59Z</time>
      </trkpt>
      <trkpt lat="44.74504" lon="-0.26261">
        <ele>73</ele>
        <time>2017-05-23T11:32:15Z</time>
      </trkpt>
      <trkpt lat="44.74501" lon="-0.26267">
        <ele>73</ele>
        <time>2017-05-23T11:32:15Z</time>
      </trkpt>
      <trkpt lat="44.74498" lon="-0.26273">
        <ele>73</ele>
        <time>2017-05-23T11:32:15Z</time>
      </trkpt>
      <trkpt lat="44.74494" lon="-0.26286">
        <ele>73</ele>
        <time>2017-05-23T11:32:35Z</time>
      </trkpt>
      <trkpt lat="44.7449" lon="-0.26287">
        <ele>73</ele>
        <time>2017-05-23T11:32:35Z</time>
      </trkpt>
      <trkpt lat="44.74489" lon="-0.26291">
        <ele>73</ele>
        <time>2017-05-23T11:32:35Z</time>
      </trkpt>
      <trkpt lat="44.74476" lon="-0.26301">
        <ele>74</ele>
        <time>2017-05-23T11:32:51Z</time>
      </trkpt>
      <trkpt lat="44.74473" lon="-0.26313">
        <ele>74</ele>
        <time>2017-05-23T11:33:07Z</time>
      </trkpt>
      <trkpt lat="44.74466" lon="-0.2632">
        <ele>74</ele>
        <time>2017-05-23T11:33:07Z</time>
      </trkpt>
      <trkpt lat="44.74462" lon="-0.26323">
        <ele>74</ele>
        <time>2017-05-23T11:33:07Z</time>
      </trkpt>
      <trkpt lat="44.74447" lon="-0.26327">
        <ele>78</ele>
        <time>2017-05-23T11:33:23Z</time>
      </trkpt>
      <trkpt lat="44.74431" lon="-0.26327">
        <ele>78</ele>
        <time>2017-05-23T11:33:39Z</time>
      </trkpt>
      <trkpt lat="44.74405" lon="-0.26324">
        <ele>78</ele>
        <time>2017-05-23T11:33:55Z</time>
      </trkpt>
      <trkpt lat="44.74364" lon="-0.26313">
        <ele>81</ele>
        <time>2017-05-23T11:34:11Z</time>
      </trkpt>
      <trkpt lat="44.74343" lon="-0.26312">
        <ele>81</ele>
        <time>2017-05-23T11:34:27Z</time>
      </trkpt>
      <trkpt lat="44.74324" lon="-0.26308">
        <ele>81</ele>
        <time>2017-05-23T11:34:43Z</time>
      </trkpt>
      <trkpt lat="44.74313" lon="-0.26308">
        <ele>81</ele>
        <time>2017-05-23T11:34:59Z</time>
      </trkpt>
      <trkpt lat="44.74297" lon="-0.26302">
        <ele>81</ele>
        <time>2017-05-23T11:34:59Z</time>
      </trkpt>
      <trkpt lat="44.74263" lon="-0.26294">
        <ele>83</ele>
        <time>2017-05-23T11:35:31Z</time>
      </trkpt>
      <trkpt lat="44.74247" lon="-0.26286">
        <ele>81</ele>
        <time>2017-05-23T11:35:47Z</time>
      </trkpt>
      <trkpt lat="44.74237" lon="-0.26278">
        <ele>81</ele>
        <time>2017-05-23T11:35:47Z</time>
      </trkpt>
      <trkpt lat="44.74238" lon="-0.26278">
        <ele>81</ele>
        <time>2017-05-23T11:36:07Z</time>
      </trkpt>
      <trkpt lat="44.74221" lon="-0.26269">
        <ele>81</ele>
        <time>2017-05-23T11:36:23Z</time>
      </trkpt>
      <trkpt lat="44.74215" lon="-0.26269">
        <ele>81</ele>
        <time>2017-05-23T11:36:23Z</time>
      </trkpt>
      <trkpt lat="44.74211" lon="-0.26266">
        <ele>81</ele>
        <time>2017-05-23T11:36:23Z</time>
      </trkpt>
      <trkpt lat="44.7421" lon="-0.26263">
        <ele>81</ele>
        <time>2017-05-23T11:36:23Z</time>
      </trkpt>
      <trkpt lat="44.74211" lon="-0.26261">
        <ele>81</ele>
        <time>2017-05-23T11:36:39Z</time>
      </trkpt>
      <trkpt lat="44.74206" lon="-0.26267">
        <ele>83</ele>
        <time>2017-05-23T11:36:39Z</time>
      </trkpt>
      <trkpt lat="44.74201" lon="-0.26268">
        <ele>83</ele>
        <time>2017-05-23T11:36:39Z</time>
      </trkpt>
      <trkpt lat="44.74195" lon="-0.26269">
        <ele>83</ele>
        <time>2017-05-23T11:36:55Z</time>
      </trkpt>
      <trkpt lat="44.74189" lon="-0.26268">
        <ele>83</ele>
        <time>2017-05-23T11:36:55Z</time>
      </trkpt>
      <trkpt lat="44.74169" lon="-0.2627">
        <ele>83</ele>
        <time>2017-05-23T11:37:11Z</time>
      </trkpt>
      <trkpt lat="44.74159" lon="-0.26274">
        <ele>83</ele>
        <time>2017-05-23T11:37:11Z</time>
      </trkpt>
      <trkpt lat="44.74154" lon="-0.26279">
        <ele>83</ele>
        <time>2017-05-23T11:37:27Z</time>
      </trkpt>
      <trkpt lat="44.74141" lon="-0.26286">
        <ele>83</ele>
        <time>2017-05-23T11:37:27Z</time>
      </trkpt>
      <trkpt lat="44.74132" lon="-0.26294">
        <ele>83</ele>
        <time>2017-05-23T11:37:43Z</time>
      </trkpt>
      <trkpt lat="44.74119" lon="-0.26303">
        <ele>76</ele>
        <time>2017-05-23T11:37:59Z</time>
      </trkpt>
      <trkpt lat="44.74108" lon="-0.26308">
        <ele>76</ele>
        <time>2017-05-23T11:37:59Z</time>
      </trkpt>
      <trkpt lat="44.74102" lon="-0.26309">
        <ele>76</ele>
        <time>2017-05-23T11:37:59Z</time>
      </trkpt>
      <trkpt lat="44.74084" lon="-0.26309">
        <ele>76</ele>
        <time>2017-05-23T11:38:15Z</time>
      </trkpt>
      <trkpt lat="44.74077" lon="-0.26307">
        <ele>76</ele>
        <time>2017-05-23T11:38:15Z</time>
      </trkpt>
      <trkpt lat="44.74049" lon="-0.26294">
        <ele>76</ele>
        <time>2017-05-23T11:38:51Z</time>
      </trkpt>
      <trkpt lat="44.74049" lon="-0.26291">
        <ele>76</ele>
        <time>2017-05-23T11:38:51Z</time>
      </trkpt>
      <trkpt lat="44.74046" lon="-0.26288">
        <ele>76</ele>
        <time>2017-05-23T11:38:51Z</time>
      </trkpt>
      <trkpt lat="44.74041" lon="-0.26288">
        <ele>71</ele>
        <time>2017-05-23T11:38:51Z</time>
      </trkpt>
      <trkpt lat="44.74022" lon="-0.2628">
        <ele>71</ele>
        <time>2017-05-23T11:39:07Z</time>
      </trkpt>
      <trkpt lat="44.73999" lon="-0.26274">
        <ele>71</ele>
        <time>2017-05-23T11:39:23Z</time>
      </trkpt>
      <trkpt lat="44.73991" lon="-0.26274">
        <ele>71</ele>
        <time>2017-05-23T11:39:39Z</time>
      </trkpt>
      <trkpt lat="44.73981" lon="-0.26268">
        <ele>71</ele>
        <time>2017-05-23T11:39:39Z</time>
      </trkpt>
      <trkpt lat="44.73977" lon="-0.26267">
        <ele>71</ele>
        <time>2017-05-23T11:39:55Z</time>
      </trkpt>
      <trkpt lat="44.73953" lon="-0.26265">
        <ele>67</ele>
        <time>2017-05-23T11:40:11Z</time>
      </trkpt>
      <trkpt lat="44.73938" lon="-0.26273">
        <ele>67</ele>
        <time>2017-05-23T11:40:27Z</time>
      </trkpt>
      <trkpt lat="44.73931" lon="-0.26279">
        <ele>67</ele>
        <time>2017-05-23T11:40:27Z</time>
      </trkpt>
      <trkpt lat="44.73918" lon="-0.26295">
        <ele>70</ele>
        <time>2017-05-23T11:40:43Z</time>
      </trkpt>
      <trkpt lat="44.73913" lon="-0.26298">
        <ele>70</ele>
        <time>2017-05-23T11:40:59Z</time>
      </trkpt>
      <trkpt lat="44.73908" lon="-0.26298">
        <ele>70</ele>
        <time>2017-05-23T11:40:59Z</time>
      </trkpt>
      <trkpt lat="44.73903" lon="-0.26295">
        <ele>70</ele>
        <time>2017-05-23T11:40:59Z</time>
      </trkpt>
      <trkpt lat="44.73898" lon="-0.26291">
        <ele>67</ele>
        <time>2017-05-23T11:40:59Z</time>
      </trkpt>
      <trkpt lat="44.73893" lon="-0.26288">
        <ele>67</ele>
        <time>2017-05-23T11:41:15Z</time>
      </trkpt>
      <trkpt lat="44.7388" lon="-0.26276">
        <ele>67</ele>
        <time>2017-05-23T11:41:31Z</time>
      </trkpt>
      <trkpt lat="44.73876" lon="-0.26274">
        <ele>67</ele>
        <time>2017-05-23T11:41:31Z</time>
      </trkpt>
      <trkpt lat="44.73864" lon="-0.26259">
        <ele>63</ele>
        <time>2017-05-23T11:41:47Z</time>
      </trkpt>
      <trkpt lat="44.7386" lon="-0.26257">
        <ele>63</ele>
        <time>2017-05-23T11:41:47Z</time>
      </trkpt>
      <trkpt lat="44.73842" lon="-0.26244">
        <ele>63</ele>
        <time>2017-05-23T11:42:03Z</time>
      </trkpt>
      <trkpt lat="44.73836" lon="-0.26238">
        <ele>63</ele>
        <time>2017-05-23T11:42:03Z</time>
      </trkpt>
      <trkpt lat="44.73821" lon="-0.26232">
        <ele>63</ele>
        <time>2017-05-23T11:42:19Z</time>
      </trkpt>
      <trkpt lat="44.7381" lon="-0.26221">
        <ele>63</ele>
        <time>2017-05-23T11:42:35Z</time>
      </trkpt>
      <trkpt lat="44.73801" lon="-0.26208">
        <ele>62</ele>
        <time>2017-05-23T11:42:35Z</time>
      </trkpt>
      <trkpt lat="44.73792" lon="-0.26201">
        <ele>62</ele>
        <time>2017-05-23T11:42:51Z</time>
      </trkpt>
      <trkpt lat="44.73785" lon="-0.26192">
        <ele>61</ele>
        <time>2017-05-23T11:42:51Z</time>
      </trkpt>
      <trkpt lat="44.73774" lon="-0.26185">
        <ele>61</ele>
        <time>2017-05-23T11:43:07Z</time>
      </trkpt>
      <trkpt lat="44.73767" lon="-0.26175">
        <ele>61</ele>
        <time>2017-05-23T11:43:07Z</time>
      </trkpt>
      <trkpt lat="44.73764" lon="-0.26173">
        <ele>61</ele>
        <time>2017-05-23T11:43:23Z</time>
      </trkpt>
      <trkpt lat="44.73761" lon="-0.26168">
        <ele>61</ele>
        <time>2017-05-23T11:43:23Z</time>
      </trkpt>
      <trkpt lat="44.7376" lon="-0.2616">
        <ele>61</ele>
        <time>2017-05-23T11:43:23Z</time>
      </trkpt>
      <trkpt lat="44.73758" lon="-0.26154">
        <ele>61</ele>
        <time>2017-05-23T11:43:23Z</time>
      </trkpt>
      <trkpt lat="44.73755" lon="-0.2615">
        <ele>61</ele>
        <time>2017-05-23T11:43:39Z</time>
      </trkpt>
      <trkpt lat="44.73745" lon="-0.26142">
        <ele>61</ele>
        <time>2017-05-23T11:43:39Z</time>
      </trkpt>
      <trkpt lat="44.73742" lon="-0.26142">
        <ele>61</ele>
        <time>2017-05-23T11:43:55Z</time>
      </trkpt>
      <trkpt lat="44.73738" lon="-0.26129">
        <ele>61</ele>
        <time>2017-05-23T11:43:55Z</time>
      </trkpt>
      <trkpt lat="44.73732" lon="-0.26119">
        <ele>60</ele>
        <time>2017-05-23T11:44:11Z</time>
      </trkpt>
      <trkpt lat="44.7372" lon="-0.26103">
        <ele>60</ele>
        <time>2017-05-23T11:44:39Z</time>
      </trkpt>
      <trkpt lat="44.73718" lon="-0.26095">
        <ele>60</ele>
        <time>2017-05-23T11:44:39Z</time>
      </trkpt>
      <trkpt lat="44.73714" lon="-0.26089">
        <ele>60</ele>
        <time>2017-05-23T11:44:59Z</time>
      </trkpt>
      <trkpt lat="44.73711" lon="-0.26088">
        <ele>60</ele>
        <time>2017-05-23T11:44:59Z</time>
      </trkpt>
      <trkpt lat="44.73707" lon="-0.26086">
        <ele>60</ele>
        <time>2017-05-23T11:44:59Z</time>
      </trkpt>
      <trkpt lat="44.73702" lon="-0.26084">
        <ele>60</ele>
        <time>2017-05-23T11:44:59Z</time>
      </trkpt>
      <trkpt lat="44.73693" lon="-0.26078">
        <ele>60</ele>
        <time>2017-05-23T11:45:15Z</time>
      </trkpt>
      <trkpt lat="44.73682" lon="-0.26082">
        <ele>60</ele>
        <time>2017-05-23T11:45:15Z</time>
      </trkpt>
      <trkpt lat="44.73674" lon="-0.26082">
        <ele>60</ele>
        <time>2017-05-23T11:45:31Z</time>
      </trkpt>
      <trkpt lat="44.73671" lon="-0.26083">
        <ele>60</ele>
        <time>2017-05-23T11:45:31Z</time>
      </trkpt>
      <trkpt lat="44.73664" lon="-0.26082">
        <ele>60</ele>
        <time>2017-05-23T11:45:31Z</time>
      </trkpt>
      <trkpt lat="44.73659" lon="-0.26083">
        <ele>60</ele>
        <time>2017-05-23T11:45:47Z</time>
      </trkpt>
      <trkpt lat="44.73644" lon="-0.26083">
        <ele>60</ele>
        <time>2017-05-23T11:45:47Z</time>
      </trkpt>
      <trkpt lat="44.73637" lon="-0.26079">
        <ele>60</ele>
        <time>2017-05-23T11:46:07Z</time>
      </trkpt>
      <trkpt lat="44.73633" lon="-0.2608">
        <ele>60</ele>
        <time>2017-05-23T11:46:07Z</time>
      </trkpt>
      <trkpt lat="44.73629" lon="-0.26084">
        <ele>60</ele>
        <time>2017-05-23T11:46:07Z</time>
      </trkpt>
      <trkpt lat="44.73622" lon="-0.26084">
        <ele>59</ele>
        <time>2017-05-23T11:46:23Z</time>
      </trkpt>
      <trkpt lat="44.73616" lon="-0.26081">
        <ele>59</ele>
        <time>2017-05-23T11:46:23Z</time>
      </trkpt>
      <trkpt lat="44.73611" lon="-0.26082">
        <ele>59</ele>
        <time>2017-05-23T11:46:23Z</time>
      </trkpt>
      <trkpt lat="44.73609" lon="-0.26075">
        <ele>59</ele>
        <time>2017-05-23T11:46:23Z</time>
      </trkpt>
      <trkpt lat="44.7359" lon="-0.26073">
        <ele>59</ele>
        <time>2017-05-23T11:46:39Z</time>
      </trkpt>
      <trkpt lat="44.73575" lon="-0.2606">
        <ele>59</ele>
        <time>2017-05-23T11:46:55Z</time>
      </trkpt>
      <trkpt lat="44.73566" lon="-0.26056">
        <ele>59</ele>
        <time>2017-05-23T11:46:55Z</time>
      </trkpt>
      <trkpt lat="44.73539" lon="-0.26027">
        <ele>63</ele>
        <time>2017-05-23T11:47:27Z</time>
      </trkpt>
      <trkpt lat="44.73524" lon="-0.26016">
        <ele>63</ele>
        <time>2017-05-23T11:47:43Z</time>
      </trkpt>
      <trkpt lat="44.7352" lon="-0.26012">
        <ele>63</ele>
        <time>2017-05-23T11:47:43Z</time>
      </trkpt>
      <trkpt lat="44.73513" lon="-0.26005">
        <ele>63</ele>
        <time>2017-05-23T11:47:43Z</time>
      </trkpt>
      <trkpt lat="44.73508" lon="-0.26004">
        <ele>63</ele>
        <time>2017-05-23T11:47:59Z</time>
      </trkpt>
      <trkpt lat="44.73499" lon="-0.25998">
        <ele>63</ele>
        <time>2017-05-23T11:47:59Z</time>
      </trkpt>
      <trkpt lat="44.73495" lon="-0.25993">
        <ele>63</ele>
        <time>2017-05-23T11:47:59Z</time>
      </trkpt>
      <trkpt lat="44.73485" lon="-0.2599">
        <ele>63</ele>
        <time>2017-05-23T11:48:15Z</time>
      </trkpt>
      <trkpt lat="44.73478" lon="-0.2598">
        <ele>63</ele>
        <time>2017-05-23T11:48:15Z</time>
      </trkpt>
      <trkpt lat="44.73474" lon="-0.25977">
        <ele>63</ele>
        <time>2017-05-23T11:48:31Z</time>
      </trkpt>
      <trkpt lat="44.73465" lon="-0.25971">
        <ele>63</ele>
        <time>2017-05-23T11:48:31Z</time>
      </trkpt>
      <trkpt lat="44.73453" lon="-0.2596">
        <ele>64</ele>
        <time>2017-05-23T11:48:47Z</time>
      </trkpt>
      <trkpt lat="44.73447" lon="-0.25952">
        <ele>67</ele>
        <time>2017-05-23T11:48:47Z</time>
      </trkpt>
      <trkpt lat="44.73447" lon="-0.25935">
        <ele>67</ele>
        <time>2017-05-23T11:49:03Z</time>
      </trkpt>
      <trkpt lat="44.73446" lon="-0.25929">
        <ele>67</ele>
        <time>2017-05-23T11:49:03Z</time>
      </trkpt>
      <trkpt lat="44.73447" lon="-0.25923">
        <ele>67</ele>
        <time>2017-05-23T11:49:03Z</time>
      </trkpt>
      <trkpt lat="44.73451" lon="-0.25919">
        <ele>67</ele>
        <time>2017-05-23T11:49:19Z</time>
      </trkpt>
      <trkpt lat="44.73457" lon="-0.25908">
        <ele>67</ele>
        <time>2017-05-23T11:49:19Z</time>
      </trkpt>
      <trkpt lat="44.73458" lon="-0.25901">
        <ele>67</ele>
        <time>2017-05-23T11:49:19Z</time>
      </trkpt>
      <trkpt lat="44.73456" lon="-0.25893">
        <ele>67</ele>
        <time>2017-05-23T11:49:35Z</time>
      </trkpt>
      <trkpt lat="44.73456" lon="-0.25871">
        <ele>69</ele>
        <time>2017-05-23T11:49:35Z</time>
      </trkpt>
      <trkpt lat="44.73459" lon="-0.25858">
        <ele>65</ele>
        <time>2017-05-23T11:49:51Z</time>
      </trkpt>
      <trkpt lat="44.73462" lon="-0.25849">
        <ele>65</ele>
        <time>2017-05-23T11:49:51Z</time>
      </trkpt>
      <trkpt lat="44.73462" lon="-0.25841">
        <ele>65</ele>
        <time>2017-05-23T11:49:51Z</time>
      </trkpt>
      <trkpt lat="44.73461" lon="-0.25835">
        <ele>65</ele>
        <time>2017-05-23T11:50:07Z</time>
      </trkpt>
      <trkpt lat="44.73466" lon="-0.25821">
        <ele>65</ele>
        <time>2017-05-23T11:50:07Z</time>
      </trkpt>
      <trkpt lat="44.73466" lon="-0.25814">
        <ele>65</ele>
        <time>2017-05-23T11:50:07Z</time>
      </trkpt>
      <trkpt lat="44.73469" lon="-0.25798">
        <ele>65</ele>
        <time>2017-05-23T11:50:23Z</time>
      </trkpt>
      <trkpt lat="44.73471" lon="-0.25791">
        <ele>67</ele>
        <time>2017-05-23T11:50:23Z</time>
      </trkpt>
      <trkpt lat="44.73471" lon="-0.25776">
        <ele>67</ele>
        <time>2017-05-23T11:50:39Z</time>
      </trkpt>
      <trkpt lat="44.73473" lon="-0.2576">
        <ele>67</ele>
        <time>2017-05-23T11:50:39Z</time>
      </trkpt>
      <trkpt lat="44.73472" lon="-0.25754">
        <ele>67</ele>
        <time>2017-05-23T11:50:39Z</time>
      </trkpt>
      <trkpt lat="44.73466" lon="-0.25743">
        <ele>67</ele>
        <time>2017-05-23T11:50:55Z</time>
      </trkpt>
      <trkpt lat="44.73461" lon="-0.25721">
        <ele>67</ele>
        <time>2017-05-23T11:51:11Z</time>
      </trkpt>
      <trkpt lat="44.73459" lon="-0.25697">
        <ele>68</ele>
        <time>2017-05-23T11:51:11Z</time>
      </trkpt>
      <trkpt lat="44.73459" lon="-0.2566">
        <ele>68</ele>
        <time>2017-05-23T11:51:43Z</time>
      </trkpt>
      <trkpt lat="44.7346" lon="-0.25648">
        <ele>68</ele>
        <time>2017-05-23T11:51:43Z</time>
      </trkpt>
      <trkpt lat="44.73458" lon="-0.25645">
        <ele>68</ele>
        <time>2017-05-23T11:51:43Z</time>
      </trkpt>
      <trkpt lat="44.73454" lon="-0.2559">
        <ele>69</ele>
        <time>2017-05-23T11:52:15Z</time>
      </trkpt>
      <trkpt lat="44.73452" lon="-0.25553">
        <ele>69</ele>
        <time>2017-05-23T11:52:31Z</time>
      </trkpt>
      <trkpt lat="44.73451" lon="-0.25547">
        <ele>69</ele>
        <time>2017-05-23T11:52:47Z</time>
      </trkpt>
      <trkpt lat="44.73452" lon="-0.25521">
        <ele>71</ele>
        <time>2017-05-23T11:52:47Z</time>
      </trkpt>
      <trkpt lat="44.73447" lon="-0.25488">
        <ele>71</ele>
        <time>2017-05-23T11:53:19Z</time>
      </trkpt>
      <trkpt lat="44.73444" lon="-0.25475">
        <ele>71</ele>
        <time>2017-05-23T11:53:19Z</time>
      </trkpt>
      <trkpt lat="44.73443" lon="-0.25461">
        <ele>71</ele>
        <time>2017-05-23T11:53:35Z</time>
      </trkpt>
      <trkpt lat="44.73442" lon="-0.25453">
        <ele>72</ele>
        <time>2017-05-23T11:53:35Z</time>
      </trkpt>
      <trkpt lat="44.73432" lon="-0.25414">
        <ele>72</ele>
        <time>2017-05-23T11:53:51Z</time>
      </trkpt>
      <trkpt lat="44.73426" lon="-0.25403">
        <ele>72</ele>
        <time>2017-05-23T11:54:07Z</time>
      </trkpt>
      <trkpt lat="44.73422" lon="-0.25392">
        <ele>72</ele>
        <time>2017-05-23T11:54:07Z</time>
      </trkpt>
      <trkpt lat="44.73418" lon="-0.25387">
        <ele>72</ele>
        <time>2017-05-23T11:54:23Z</time>
      </trkpt>
      <trkpt lat="44.73419" lon="-0.25379">
        <ele>72</ele>
        <time>2017-05-23T11:54:23Z</time>
      </trkpt>
      <trkpt lat="44.73422" lon="-0.25374">
        <ele>70</ele>
        <time>2017-05-23T11:54:23Z</time>
      </trkpt>
      <trkpt lat="44.73435" lon="-0.25361">
        <ele>70</ele>
        <time>2017-05-23T11:54:39Z</time>
      </trkpt>
      <trkpt lat="44.73448" lon="-0.25352">
        <ele>70</ele>
        <time>2017-05-23T11:54:39Z</time>
      </trkpt>
      <trkpt lat="44.73467" lon="-0.25321">
        <ele>71</ele>
        <time>2017-05-23T11:55:11Z</time>
      </trkpt>
      <trkpt lat="44.73472" lon="-0.25316">
        <ele>71</ele>
        <time>2017-05-23T11:55:11Z</time>
      </trkpt>
      <trkpt lat="44.73478" lon="-0.25307">
        <ele>71</ele>
        <time>2017-05-23T11:55:27Z</time>
      </trkpt>
      <trkpt lat="44.73497" lon="-0.25291">
        <ele>74</ele>
        <time>2017-05-23T11:55:43Z</time>
      </trkpt>
      <trkpt lat="44.73502" lon="-0.25287">
        <ele>74</ele>
        <time>2017-05-23T11:55:43Z</time>
      </trkpt>
      <trkpt lat="44.73517" lon="-0.25272">
        <ele>74</ele>
        <time>2017-05-23T11:55:59Z</time>
      </trkpt>
      <trkpt lat="44.73544" lon="-0.25253">
        <ele>76</ele>
        <time>2017-05-23T11:56:15Z</time>
      </trkpt>
      <trkpt lat="44.73551" lon="-0.2525">
        <ele>76</ele>
        <time>2017-05-23T11:56:31Z</time>
      </trkpt>
      <trkpt lat="44.73569" lon="-0.25237">
        <ele>76</ele>
        <time>2017-05-23T11:56:47Z</time>
      </trkpt>
      <trkpt lat="44.73595" lon="-0.25214">
        <ele>76</ele>
        <time>2017-05-23T11:57:03Z</time>
      </trkpt>
      <trkpt lat="44.73612" lon="-0.25188">
        <ele>78</ele>
        <time>2017-05-23T11:57:19Z</time>
      </trkpt>
      <trkpt lat="44.73615" lon="-0.25181">
        <ele>78</ele>
        <time>2017-05-23T11:57:35Z</time>
      </trkpt>
      <trkpt lat="44.73631" lon="-0.25165">
        <ele>81</ele>
        <time>2017-05-23T11:57:55Z</time>
      </trkpt>
      <trkpt lat="44.7364" lon="-0.25158">
        <ele>81</ele>
        <time>2017-05-23T11:57:55Z</time>
      </trkpt>
      <trkpt lat="44.73667" lon="-0.25146">
        <ele>81</ele>
        <time>2017-05-23T11:58:27Z</time>
      </trkpt>
      <trkpt lat="44.73689" lon="-0.25145">
        <ele>81</ele>
        <time>2017-05-23T11:58:43Z</time>
      </trkpt>
      <trkpt lat="44.73694" lon="-0.25143">
        <ele>81</ele>
        <time>2017-05-23T11:58:43Z</time>
      </trkpt>
      <trkpt lat="44.73703" lon="-0.25137">
        <ele>81</ele>
        <time>2017-05-23T11:58:59Z</time>
      </trkpt>
      <trkpt lat="44.7371" lon="-0.2513">
        <ele>84</ele>
        <time>2017-05-23T11:58:59Z</time>
      </trkpt>
      <trkpt lat="44.73715" lon="-0.2512">
        <ele>89</ele>
        <time>2017-05-23T11:59:15Z</time>
      </trkpt>
      <trkpt lat="44.73721" lon="-0.25078">
        <ele>89</ele>
        <time>2017-05-23T11:59:31Z</time>
      </trkpt>
      <trkpt lat="44.73721" lon="-0.25072">
        <ele>89</ele>
        <time>2017-05-23T11:59:31Z</time>
      </trkpt>
      <trkpt lat="44.73723" lon="-0.25048">
        <ele>89</ele>
        <time>2017-05-23T11:59:47Z</time>
      </trkpt>
      <trkpt lat="44.73724" lon="-0.25048">
        <ele>89</ele>
        <time>2017-05-23T12:00:39Z</time>
      </trkpt>
      <trkpt lat="44.73721" lon="-0.25045">
        <ele>89</ele>
        <time>2017-05-23T12:00:39Z</time>
      </trkpt>
      <trkpt lat="44.73721" lon="-0.25033">
        <ele>90</ele>
        <time>2017-05-23T12:00:39Z</time>
      </trkpt>
      <trkpt lat="44.73719" lon="-0.25018">
        <ele>90</ele>
        <time>2017-05-23T12:00:55Z</time>
      </trkpt>
      <trkpt lat="44.7372" lon="-0.25">
        <ele>90</ele>
        <time>2017-05-23T12:01:11Z</time>
      </trkpt>
      <trkpt lat="44.73719" lon="-0.24993">
        <ele>90</ele>
        <time>2017-05-23T12:01:11Z</time>
      </trkpt>
      <trkpt lat="44.7372" lon="-0.24985">
        <ele>90</ele>
        <time>2017-05-23T12:01:11Z</time>
      </trkpt>
      <trkpt lat="44.73725" lon="-0.24979">
        <ele>90</ele>
        <time>2017-05-23T12:01:27Z</time>
      </trkpt>
      <trkpt lat="44.73729" lon="-0.24966">
        <ele>90</ele>
        <time>2017-05-23T12:01:27Z</time>
      </trkpt>
      <trkpt lat="44.73729" lon="-0.24958">
        <ele>91</ele>
        <time>2017-05-23T12:01:27Z</time>
      </trkpt>
      <trkpt lat="44.73733" lon="-0.24927">
        <ele>91</ele>
        <time>2017-05-23T12:01:43Z</time>
      </trkpt>
      <trkpt lat="44.73732" lon="-0.24914">
        <ele>91</ele>
        <time>2017-05-23T12:01:59Z</time>
      </trkpt>
      <trkpt lat="44.73734" lon="-0.24901">
        <ele>91</ele>
        <time>2017-05-23T12:01:59Z</time>
      </trkpt>
      <trkpt lat="44.73734" lon="-0.24885">
        <ele>91</ele>
        <time>2017-05-23T12:02:15Z</time>
      </trkpt>
      <trkpt lat="44.73738" lon="-0.24852">
        <ele>93</ele>
        <time>2017-05-23T12:02:31Z</time>
      </trkpt>
      <trkpt lat="44.73739" lon="-0.24844">
        <ele>93</ele>
        <time>2017-05-23T12:02:31Z</time>
      </trkpt>
      <trkpt lat="44.73742" lon="-0.24828">
        <ele>93</ele>
        <time>2017-05-23T12:02:47Z</time>
      </trkpt>
      <trkpt lat="44.73744" lon="-0.24814">
        <ele>93</ele>
        <time>2017-05-23T12:02:47Z</time>
      </trkpt>
      <trkpt lat="44.73752" lon="-0.24786">
        <ele>98</ele>
        <time>2017-05-23T12:03:03Z</time>
      </trkpt>
      <trkpt lat="44.73753" lon="-0.24777">
        <ele>98</ele>
        <time>2017-05-23T12:03:19Z</time>
      </trkpt>
      <trkpt lat="44.73762" lon="-0.24753">
        <ele>98</ele>
        <time>2017-05-23T12:03:35Z</time>
      </trkpt>
      <trkpt lat="44.7376" lon="-0.24739">
        <ele>98</ele>
        <time>2017-05-23T12:03:35Z</time>
      </trkpt>
      <trkpt lat="44.73761" lon="-0.24728">
        <ele>98</ele>
        <time>2017-05-23T12:03:51Z</time>
      </trkpt>
      <trkpt lat="44.73763" lon="-0.24714">
        <ele>98</ele>
        <time>2017-05-23T12:03:51Z</time>
      </trkpt>
      <trkpt lat="44.73763" lon="-0.24684">
        <ele>101</ele>
        <time>2017-05-23T12:04:07Z</time>
      </trkpt>
      <trkpt lat="44.73766" lon="-0.24669">
        <ele>101</ele>
        <time>2017-05-23T12:04:23Z</time>
      </trkpt>
      <trkpt lat="44.73765" lon="-0.24656">
        <ele>101</ele>
        <time>2017-05-23T12:04:23Z</time>
      </trkpt>
      <trkpt lat="44.73765" lon="-0.24651">
        <ele>101</ele>
        <time>2017-05-23T12:04:23Z</time>
      </trkpt>
      <trkpt lat="44.73764" lon="-0.24631">
        <ele>101</ele>
        <time>2017-05-23T12:04:39Z</time>
      </trkpt>
      <trkpt lat="44.7377" lon="-0.24596">
        <ele>105</ele>
        <time>2017-05-23T12:04:55Z</time>
      </trkpt>
      <trkpt lat="44.7377" lon="-0.24589">
        <ele>105</ele>
        <time>2017-05-23T12:05:11Z</time>
      </trkpt>
      <trkpt lat="44.73775" lon="-0.24576">
        <ele>105</ele>
        <time>2017-05-23T12:05:11Z</time>
      </trkpt>
      <trkpt lat="44.73776" lon="-0.24572">
        <ele>105</ele>
        <time>2017-05-23T12:05:11Z</time>
      </trkpt>
      <trkpt lat="44.73775" lon="-0.24565">
        <ele>105</ele>
        <time>2017-05-23T12:05:27Z</time>
      </trkpt>
      <trkpt lat="44.73776" lon="-0.24553">
        <ele>105</ele>
        <time>2017-05-23T12:05:27Z</time>
      </trkpt>
      <trkpt lat="44.73773" lon="-0.24541">
        <ele>110</ele>
        <time>2017-05-23T12:05:43Z</time>
      </trkpt>
      <trkpt lat="44.73775" lon="-0.24536">
        <ele>110</ele>
        <time>2017-05-23T12:05:43Z</time>
      </trkpt>
      <trkpt lat="44.73778" lon="-0.24502">
        <ele>110</ele>
        <time>2017-05-23T12:05:59Z</time>
      </trkpt>
      <trkpt lat="44.7378" lon="-0.24486">
        <ele>110</ele>
        <time>2017-05-23T12:06:15Z</time>
      </trkpt>
      <trkpt lat="44.73785" lon="-0.24474">
        <ele>110</ele>
        <time>2017-05-23T12:06:15Z</time>
      </trkpt>
      <trkpt lat="44.73789" lon="-0.24469">
        <ele>110</ele>
        <time>2017-05-23T12:06:31Z</time>
      </trkpt>
      <trkpt lat="44.7379" lon="-0.24463">
        <ele>110</ele>
        <time>2017-05-23T12:06:31Z</time>
      </trkpt>
      <trkpt lat="44.73795" lon="-0.24453">
        <ele>113</ele>
        <time>2017-05-23T12:06:31Z</time>
      </trkpt>
      <trkpt lat="44.73798" lon="-0.2445">
        <ele>113</ele>
        <time>2017-05-23T12:06:47Z</time>
      </trkpt>
      <trkpt lat="44.73805" lon="-0.24437">
        <ele>113</ele>
        <time>2017-05-23T12:06:47Z</time>
      </trkpt>
      <trkpt lat="44.73818" lon="-0.24425">
        <ele>113</ele>
        <time>2017-05-23T12:07:03Z</time>
      </trkpt>
      <trkpt lat="44.73824" lon="-0.24419">
        <ele>113</ele>
        <time>2017-05-23T12:07:03Z</time>
      </trkpt>
      <trkpt lat="44.73829" lon="-0.24411">
        <ele>113</ele>
        <time>2017-05-23T12:07:03Z</time>
      </trkpt>
      <trkpt lat="44.73834" lon="-0.24405">
        <ele>113</ele>
        <time>2017-05-23T12:07:19Z</time>
      </trkpt>
      <trkpt lat="44.7384" lon="-0.24394">
        <ele>113</ele>
        <time>2017-05-23T12:07:19Z</time>
      </trkpt>
      <trkpt lat="44.73847" lon="-0.24371">
        <ele>112</ele>
        <time>2017-05-23T12:07:35Z</time>
      </trkpt>
      <trkpt lat="44.73847" lon="-0.24365">
        <ele>112</ele>
        <time>2017-05-23T12:07:35Z</time>
      </trkpt>
      <trkpt lat="44.7385" lon="-0.24358">
        <ele>112</ele>
        <time>2017-05-23T12:07:51Z</time>
      </trkpt>
      <trkpt lat="44.73852" lon="-0.24351">
        <ele>112</ele>
        <time>2017-05-23T12:07:51Z</time>
      </trkpt>
      <trkpt lat="44.73855" lon="-0.24343">
        <ele>112</ele>
        <time>2017-05-23T12:07:51Z</time>
      </trkpt>
      <trkpt lat="44.73857" lon="-0.24331">
        <ele>112</ele>
        <time>2017-05-23T12:08:07Z</time>
      </trkpt>
      <trkpt lat="44.73857" lon="-0.24324">
        <ele>112</ele>
        <time>2017-05-23T12:08:07Z</time>
      </trkpt>
      <trkpt lat="44.7386" lon="-0.24317">
        <ele>112</ele>
        <time>2017-05-23T12:08:07Z</time>
      </trkpt>
      <trkpt lat="44.73864" lon="-0.24314">
        <ele>112</ele>
        <time>2017-05-23T12:08:07Z</time>
      </trkpt>
      <trkpt lat="44.73869" lon="-0.243">
        <ele>112</ele>
        <time>2017-05-23T12:08:23Z</time>
      </trkpt>
      <trkpt lat="44.73869" lon="-0.24284">
        <ele>113</ele>
        <time>2017-05-23T12:08:23Z</time>
      </trkpt>
      <trkpt lat="44.73867" lon="-0.24279">
        <ele>113</ele>
        <time>2017-05-23T12:08:39Z</time>
      </trkpt>
      <trkpt lat="44.7387" lon="-0.24258">
        <ele>113</ele>
        <time>2017-05-23T12:08:39Z</time>
      </trkpt>
      <trkpt lat="44.73872" lon="-0.24252">
        <ele>113</ele>
        <time>2017-05-23T12:08:55Z</time>
      </trkpt>
      <trkpt lat="44.73872" lon="-0.24243">
        <ele>113</ele>
        <time>2017-05-23T12:08:55Z</time>
      </trkpt>
      <trkpt lat="44.73875" lon="-0.24225">
        <ele>113</ele>
        <time>2017-05-23T12:08:55Z</time>
      </trkpt>
      <trkpt lat="44.73878" lon="-0.2422">
        <ele>116</ele>
        <time>2017-05-23T12:09:11Z</time>
      </trkpt>
      <trkpt lat="44.73884" lon="-0.24184">
        <ele>116</ele>
        <time>2017-05-23T12:09:27Z</time>
      </trkpt>
      <trkpt lat="44.73888" lon="-0.24175">
        <ele>116</ele>
        <time>2017-05-23T12:09:27Z</time>
      </trkpt>
      <trkpt lat="44.73888" lon="-0.24167">
        <ele>116</ele>
        <time>2017-05-23T12:09:43Z</time>
      </trkpt>
      <trkpt lat="44.73891" lon="-0.24162">
        <ele>116</ele>
        <time>2017-05-23T12:09:43Z</time>
      </trkpt>
      <trkpt lat="44.73895" lon="-0.24157">
        <ele>116</ele>
        <time>2017-05-23T12:09:43Z</time>
      </trkpt>
      <trkpt lat="44.73899" lon="-0.24156">
        <ele>116</ele>
        <time>2017-05-23T12:09:43Z</time>
      </trkpt>
      <trkpt lat="44.73913" lon="-0.24152">
        <ele>116</ele>
        <time>2017-05-23T12:09:59Z</time>
      </trkpt>
      <trkpt lat="44.73925" lon="-0.24151">
        <ele>116</ele>
        <time>2017-05-23T12:10:15Z</time>
      </trkpt>
      <trkpt lat="44.73929" lon="-0.24153">
        <ele>116</ele>
        <time>2017-05-23T12:10:15Z</time>
      </trkpt>
      <trkpt lat="44.73933" lon="-0.24152">
        <ele>116</ele>
        <time>2017-05-23T12:10:15Z</time>
      </trkpt>
      <trkpt lat="44.7394" lon="-0.24149">
        <ele>116</ele>
        <time>2017-05-23T12:10:31Z</time>
      </trkpt>
      <trkpt lat="44.73955" lon="-0.24148">
        <ele>116</ele>
        <time>2017-05-23T12:10:31Z</time>
      </trkpt>
      <trkpt lat="44.73965" lon="-0.24149">
        <ele>120</ele>
        <time>2017-05-23T12:10:55Z</time>
      </trkpt>
      <trkpt lat="44.73968" lon="-0.24148">
        <ele>120</ele>
        <time>2017-05-23T12:10:55Z</time>
      </trkpt>
      <trkpt lat="44.73979" lon="-0.24163">
        <ele>120</ele>
        <time>2017-05-23T12:10:55Z</time>
      </trkpt>
      <trkpt lat="44.73982" lon="-0.24156">
        <ele>120</ele>
        <time>2017-05-23T12:11:15Z</time>
      </trkpt>
      <trkpt lat="44.7398" lon="-0.24152">
        <ele>120</ele>
        <time>2017-05-23T12:11:15Z</time>
      </trkpt>
      <trkpt lat="44.73984" lon="-0.24145">
        <ele>120</ele>
        <time>2017-05-23T12:11:15Z</time>
      </trkpt>
      <trkpt lat="44.73984" lon="-0.24139">
        <ele>120</ele>
        <time>2017-05-23T12:11:31Z</time>
      </trkpt>
      <trkpt lat="44.73989" lon="-0.24122">
        <ele>117</ele>
        <time>2017-05-23T12:11:31Z</time>
      </trkpt>
      <trkpt lat="44.7399" lon="-0.24116">
        <ele>117</ele>
        <time>2017-05-23T12:11:31Z</time>
      </trkpt>
      <trkpt lat="44.73994" lon="-0.24101">
        <ele>117</ele>
        <time>2017-05-23T12:12:15Z</time>
      </trkpt>
      <trkpt lat="44.73993" lon="-0.24099">
        <ele>117</ele>
        <time>2017-05-23T12:12:15Z</time>
      </trkpt>
      <trkpt lat="44.73994" lon="-0.24096">
        <ele>117</ele>
        <time>2017-05-23T12:12:15Z</time>
      </trkpt>
      <trkpt lat="44.73986" lon="-0.24085">
        <ele>117</ele>
        <time>2017-05-23T12:12:31Z</time>
      </trkpt>
      <trkpt lat="44.73987" lon="-0.24085">
        <ele>117</ele>
        <time>2017-05-23T12:12:31Z</time>
      </trkpt>
      <trkpt lat="44.73988" lon="-0.24078">
        <ele>117</ele>
        <time>2017-05-23T12:12:31Z</time>
      </trkpt>
      <trkpt lat="44.73992" lon="-0.24074">
        <ele>117</ele>
        <time>2017-05-23T12:12:31Z</time>
      </trkpt>
      <trkpt lat="44.73993" lon="-0.24064">
        <ele>117</ele>
        <time>2017-05-23T12:12:51Z</time>
      </trkpt>
      <trkpt lat="44.73991" lon="-0.2406">
        <ele>117</ele>
        <time>2017-05-23T12:12:51Z</time>
      </trkpt>
      <trkpt lat="44.73999" lon="-0.24037">
        <ele>114</ele>
        <time>2017-05-23T12:13:07Z</time>
      </trkpt>
      <trkpt lat="44.73998" lon="-0.24032">
        <ele>114</ele>
        <time>2017-05-23T12:13:07Z</time>
      </trkpt>
      <trkpt lat="44.74" lon="-0.2402">
        <ele>114</ele>
        <time>2017-05-23T12:13:23Z</time>
      </trkpt>
      <trkpt lat="44.74002" lon="-0.24014">
        <ele>114</ele>
        <time>2017-05-23T12:13:23Z</time>
      </trkpt>
      <trkpt lat="44.74004" lon="-0.23994">
        <ele>114</ele>
        <time>2017-05-23T12:13:39Z</time>
      </trkpt>
      <trkpt lat="44.74011" lon="-0.23973">
        <ele>114</ele>
        <time>2017-05-23T12:13:55Z</time>
      </trkpt>
      <trkpt lat="44.74014" lon="-0.23959">
        <ele>114</ele>
        <time>2017-05-23T12:13:55Z</time>
      </trkpt>
      <trkpt lat="44.74022" lon="-0.23946">
        <ele>114</ele>
        <time>2017-05-23T12:14:11Z</time>
      </trkpt>
      <trkpt lat="44.74022" lon="-0.2394">
        <ele>114</ele>
        <time>2017-05-23T12:14:11Z</time>
      </trkpt>
      <trkpt lat="44.74021" lon="-0.23935">
        <ele>114</ele>
        <time>2017-05-23T12:14:11Z</time>
      </trkpt>
      <trkpt lat="44.74022" lon="-0.23931">
        <ele>114</ele>
        <time>2017-05-23T12:14:11Z</time>
      </trkpt>
      <trkpt lat="44.74025" lon="-0.23925">
        <ele>114</ele>
        <time>2017-05-23T12:14:27Z</time>
      </trkpt>
      <trkpt lat="44.74027" lon="-0.23902">
        <ele>114</ele>
        <time>2017-05-23T12:14:27Z</time>
      </trkpt>
      <trkpt lat="44.74025" lon="-0.23894">
        <ele>114</ele>
        <time>2017-05-23T12:14:43Z</time>
      </trkpt>
      <trkpt lat="44.74025" lon="-0.23887">
        <ele>114</ele>
        <time>2017-05-23T12:14:43Z</time>
      </trkpt>
      <trkpt lat="44.74029" lon="-0.23877">
        <ele>114</ele>
        <time>2017-05-23T12:14:43Z</time>
      </trkpt>
      <trkpt lat="44.74024" lon="-0.23876">
        <ele>114</ele>
        <time>2017-05-23T12:32:46Z</time>
      </trkpt>
      <trkpt lat="44.74021" lon="-0.23882">
        <ele>114</ele>
        <time>2017-05-23T12:32:46Z</time>
      </trkpt>
      <trkpt lat="44.74016" lon="-0.23874">
        <ele>112</ele>
        <time>2017-05-23T12:32:46Z</time>
      </trkpt>
      <trkpt lat="44.7402" lon="-0.23857">
        <ele>112</ele>
        <time>2017-05-23T12:32:46Z</time>
      </trkpt>
      <trkpt lat="44.74035" lon="-0.23842">
        <ele>112</ele>
        <time>2017-05-23T12:32:46Z</time>
      </trkpt>
      <trkpt lat="44.74043" lon="-0.23858">
        <ele>98</ele>
        <time>2017-05-23T12:33:06Z</time>
      </trkpt>
      <trkpt lat="44.74038" lon="-0.23862">
        <ele>112</ele>
        <time>2017-05-23T12:33:06Z</time>
      </trkpt>
      <trkpt lat="44.74041" lon="-0.2385">
        <ele>112</ele>
        <time>2017-05-23T12:33:06Z</time>
      </trkpt>
      <trkpt lat="44.74044" lon="-0.23849">
        <ele>98</ele>
        <time>2017-05-23T12:33:06Z</time>
      </trkpt>
      <trkpt lat="44.7405" lon="-0.23841">
        <ele>98</ele>
        <time>2017-05-23T12:33:06Z</time>
      </trkpt>
      <trkpt lat="44.74036" lon="-0.23835">
        <ele>112</ele>
        <time>2017-05-23T12:33:50Z</time>
      </trkpt>
      <trkpt lat="44.74032" lon="-0.23815">
        <ele>112</ele>
        <time>2017-05-23T12:33:50Z</time>
      </trkpt>
      <trkpt lat="44.74038" lon="-0.23814">
        <ele>112</ele>
        <time>2017-05-23T12:34:10Z</time>
      </trkpt>
      <trkpt lat="44.7404" lon="-0.23811">
        <ele>112</ele>
        <time>2017-05-23T12:34:10Z</time>
      </trkpt>
      <trkpt lat="44.74044" lon="-0.23802">
        <ele>98</ele>
        <time>2017-05-23T12:34:10Z</time>
      </trkpt>
      <trkpt lat="44.74043" lon="-0.23796">
        <ele>98</ele>
        <time>2017-05-23T12:34:30Z</time>
      </trkpt>
      <trkpt lat="44.74044" lon="-0.23793">
        <ele>98</ele>
        <time>2017-05-23T12:34:30Z</time>
      </trkpt>
      <trkpt lat="44.74043" lon="-0.23788">
        <ele>98</ele>
        <time>2017-05-23T12:34:30Z</time>
      </trkpt>
      <trkpt lat="44.74046" lon="-0.2377">
        <ele>98</ele>
        <time>2017-05-23T12:34:46Z</time>
      </trkpt>
      <trkpt lat="44.74051" lon="-0.23759">
        <ele>98</ele>
        <time>2017-05-23T12:34:46Z</time>
      </trkpt>
      <trkpt lat="44.74049" lon="-0.23752">
        <ele>98</ele>
        <time>2017-05-23T12:35:02Z</time>
      </trkpt>
      <trkpt lat="44.7405" lon="-0.23747">
        <ele>98</ele>
        <time>2017-05-23T12:35:02Z</time>
      </trkpt>
      <trkpt lat="44.74051" lon="-0.23739">
        <ele>98</ele>
        <time>2017-05-23T12:35:02Z</time>
      </trkpt>
      <trkpt lat="44.74061" lon="-0.23727">
        <ele>98</ele>
        <time>2017-05-23T12:35:18Z</time>
      </trkpt>
      <trkpt lat="44.74068" lon="-0.23722">
        <ele>98</ele>
        <time>2017-05-23T12:35:18Z</time>
      </trkpt>
      <trkpt lat="44.74072" lon="-0.23718">
        <ele>98</ele>
        <time>2017-05-23T12:35:18Z</time>
      </trkpt>
      <trkpt lat="44.74073" lon="-0.23714">
        <ele>98</ele>
        <time>2017-05-23T12:35:18Z</time>
      </trkpt>
      <trkpt lat="44.74076" lon="-0.23711">
        <ele>98</ele>
        <time>2017-05-23T12:35:34Z</time>
      </trkpt>
      <trkpt lat="44.74077" lon="-0.23708">
        <ele>98</ele>
        <time>2017-05-23T12:35:34Z</time>
      </trkpt>
      <trkpt lat="44.74073" lon="-0.23694">
        <ele>98</ele>
        <time>2017-05-23T12:35:34Z</time>
      </trkpt>
      <trkpt lat="44.74074" lon="-0.23688">
        <ele>98</ele>
        <time>2017-05-23T12:35:50Z</time>
      </trkpt>
      <trkpt lat="44.74078" lon="-0.2368">
        <ele>98</ele>
        <time>2017-05-23T12:35:50Z</time>
      </trkpt>
      <trkpt lat="44.74079" lon="-0.23666">
        <ele>98</ele>
        <time>2017-05-23T12:36:06Z</time>
      </trkpt>
      <trkpt lat="44.74084" lon="-0.23649">
        <ele>98</ele>
        <time>2017-05-23T12:36:06Z</time>
      </trkpt>
      <trkpt lat="44.74087" lon="-0.23646">
        <ele>98</ele>
        <time>2017-05-23T12:36:22Z</time>
      </trkpt>
      <trkpt lat="44.7409" lon="-0.2363">
        <ele>98</ele>
        <time>2017-05-23T12:36:22Z</time>
      </trkpt>
      <trkpt lat="44.74091" lon="-0.2362">
        <ele>95</ele>
        <time>2017-05-23T12:36:22Z</time>
      </trkpt>
      <trkpt lat="44.74101" lon="-0.23611">
        <ele>95</ele>
        <time>2017-05-23T12:36:38Z</time>
      </trkpt>
      <trkpt lat="44.74109" lon="-0.23598">
        <ele>95</ele>
        <time>2017-05-23T12:36:38Z</time>
      </trkpt>
      <trkpt lat="44.7411" lon="-0.23594">
        <ele>95</ele>
        <time>2017-05-23T12:36:54Z</time>
      </trkpt>
      <trkpt lat="44.74109" lon="-0.23588">
        <ele>95</ele>
        <time>2017-05-23T12:36:54Z</time>
      </trkpt>
      <trkpt lat="44.74112" lon="-0.23581">
        <ele>95</ele>
        <time>2017-05-23T12:36:54Z</time>
      </trkpt>
      <trkpt lat="44.74117" lon="-0.23575">
        <ele>95</ele>
        <time>2017-05-23T12:36:54Z</time>
      </trkpt>
      <trkpt lat="44.74122" lon="-0.23568">
        <ele>95</ele>
        <time>2017-05-23T12:37:10Z</time>
      </trkpt>
      <trkpt lat="44.74126" lon="-0.23553">
        <ele>88</ele>
        <time>2017-05-23T12:37:10Z</time>
      </trkpt>
      <trkpt lat="44.74133" lon="-0.23542">
        <ele>88</ele>
        <time>2017-05-23T12:37:26Z</time>
      </trkpt>
      <trkpt lat="44.74135" lon="-0.23537">
        <ele>89</ele>
        <time>2017-05-23T12:37:26Z</time>
      </trkpt>
      <trkpt lat="44.74138" lon="-0.23531">
        <ele>89</ele>
        <time>2017-05-23T12:37:42Z</time>
      </trkpt>
      <trkpt lat="44.7415" lon="-0.23526">
        <ele>89</ele>
        <time>2017-05-23T12:37:42Z</time>
      </trkpt>
      <trkpt lat="44.74156" lon="-0.23518">
        <ele>89</ele>
        <time>2017-05-23T12:37:42Z</time>
      </trkpt>
      <trkpt lat="44.74169" lon="-0.23507">
        <ele>89</ele>
        <time>2017-05-23T12:37:58Z</time>
      </trkpt>
      <trkpt lat="44.74171" lon="-0.235">
        <ele>89</ele>
        <time>2017-05-23T12:37:58Z</time>
      </trkpt>
      <trkpt lat="44.74181" lon="-0.23482">
        <ele>89</ele>
        <time>2017-05-23T12:38:14Z</time>
      </trkpt>
      <trkpt lat="44.74197" lon="-0.23457">
        <ele>94</ele>
        <time>2017-05-23T12:38:30Z</time>
      </trkpt>
      <trkpt lat="44.74228" lon="-0.23421">
        <ele>90</ele>
        <time>2017-05-23T12:39:02Z</time>
      </trkpt>
      <trkpt lat="44.7425" lon="-0.23406">
        <ele>90</ele>
        <time>2017-05-23T12:39:18Z</time>
      </trkpt>
      <trkpt lat="44.74254" lon="-0.23401">
        <ele>90</ele>
        <time>2017-05-23T12:39:18Z</time>
      </trkpt>
      <trkpt lat="44.74263" lon="-0.23394">
        <ele>90</ele>
        <time>2017-05-23T12:39:34Z</time>
      </trkpt>
      <trkpt lat="44.74275" lon="-0.23373">
        <ele>89</ele>
        <time>2017-05-23T12:39:50Z</time>
      </trkpt>
      <trkpt lat="44.74278" lon="-0.23361">
        <ele>89</ele>
        <time>2017-05-23T12:39:50Z</time>
      </trkpt>
      <trkpt lat="44.74288" lon="-0.23337">
        <ele>89</ele>
        <time>2017-05-23T12:40:06Z</time>
      </trkpt>
      <trkpt lat="44.74307" lon="-0.23314">
        <ele>81</ele>
        <time>2017-05-23T12:40:38Z</time>
      </trkpt>
      <trkpt lat="44.74314" lon="-0.233">
        <ele>81</ele>
        <time>2017-05-23T12:40:38Z</time>
      </trkpt>
      <trkpt lat="44.74318" lon="-0.23295">
        <ele>81</ele>
        <time>2017-05-23T12:40:38Z</time>
      </trkpt>
      <trkpt lat="44.74323" lon="-0.23294">
        <ele>81</ele>
        <time>2017-05-23T12:40:54Z</time>
      </trkpt>
      <trkpt lat="44.74327" lon="-0.2329">
        <ele>79</ele>
        <time>2017-05-23T12:40:54Z</time>
      </trkpt>
      <trkpt lat="44.74331" lon="-0.23283">
        <ele>79</ele>
        <time>2017-05-23T12:40:54Z</time>
      </trkpt>
      <trkpt lat="44.74337" lon="-0.23278">
        <ele>79</ele>
        <time>2017-05-23T12:40:54Z</time>
      </trkpt>
      <trkpt lat="44.7434" lon="-0.23272">
        <ele>79</ele>
        <time>2017-05-23T12:41:10Z</time>
      </trkpt>
      <trkpt lat="44.74351" lon="-0.2325">
        <ele>79</ele>
        <time>2017-05-23T12:41:10Z</time>
      </trkpt>
      <trkpt lat="44.74351" lon="-0.23245">
        <ele>79</ele>
        <time>2017-05-23T12:41:26Z</time>
      </trkpt>
      <trkpt lat="44.74349" lon="-0.2324">
        <ele>79</ele>
        <time>2017-05-23T12:41:26Z</time>
      </trkpt>
      <trkpt lat="44.74353" lon="-0.23221">
        <ele>79</ele>
        <time>2017-05-23T12:41:42Z</time>
      </trkpt>
      <trkpt lat="44.74363" lon="-0.23186">
        <ele>74</ele>
        <time>2017-05-23T12:41:58Z</time>
      </trkpt>
      <trkpt lat="44.74364" lon="-0.23173">
        <ele>74</ele>
        <time>2017-05-23T12:41:58Z</time>
      </trkpt>
      <trkpt lat="44.74368" lon="-0.2316">
        <ele>74</ele>
        <time>2017-05-23T12:42:14Z</time>
      </trkpt>
      <trkpt lat="44.74374" lon="-0.23134">
        <ele>74</ele>
        <time>2017-05-23T12:42:30Z</time>
      </trkpt>
      <trkpt lat="44.74382" lon="-0.23108">
        <ele>67</ele>
        <time>2017-05-23T12:42:46Z</time>
      </trkpt>
      <trkpt lat="44.74394" lon="-0.23073">
        <ele>67</ele>
        <time>2017-05-23T12:43:02Z</time>
      </trkpt>
      <trkpt lat="44.74399" lon="-0.23045">
        <ele>67</ele>
        <time>2017-05-23T12:43:18Z</time>
      </trkpt>
      <trkpt lat="44.74408" lon="-0.23019">
        <ele>69</ele>
        <time>2017-05-23T12:43:34Z</time>
      </trkpt>
      <trkpt lat="44.74409" lon="-0.23012">
        <ele>69</ele>
        <time>2017-05-23T12:43:34Z</time>
      </trkpt>
      <trkpt lat="44.74408" lon="-0.2299">
        <ele>69</ele>
        <time>2017-05-23T12:43:50Z</time>
      </trkpt>
      <trkpt lat="44.74417" lon="-0.22949">
        <ele>69</ele>
        <time>2017-05-23T12:44:22Z</time>
      </trkpt>
      <trkpt lat="44.7442" lon="-0.22935">
        <ele>69</ele>
        <time>2017-05-23T12:44:22Z</time>
      </trkpt>
      <trkpt lat="44.74424" lon="-0.22915">
        <ele>69</ele>
        <time>2017-05-23T12:44:38Z</time>
      </trkpt>
      <trkpt lat="44.74424" lon="-0.22907">
        <ele>69</ele>
        <time>2017-05-23T12:44:38Z</time>
      </trkpt>
      <trkpt lat="44.74429" lon="-0.22873">
        <ele>70</ele>
        <time>2017-05-23T12:45:10Z</time>
      </trkpt>
      <trkpt lat="44.74429" lon="-0.22848">
        <ele>70</ele>
        <time>2017-05-23T12:45:26Z</time>
      </trkpt>
      <trkpt lat="44.74431" lon="-0.2281">
        <ele>70</ele>
        <time>2017-05-23T12:45:42Z</time>
      </trkpt>
      <trkpt lat="44.74432" lon="-0.22773">
        <ele>72</ele>
        <time>2017-05-23T12:45:58Z</time>
      </trkpt>
      <trkpt lat="44.7443" lon="-0.22755">
        <ele>72</ele>
        <time>2017-05-23T12:46:14Z</time>
      </trkpt>
      <trkpt lat="44.7443" lon="-0.22732">
        <ele>72</ele>
        <time>2017-05-23T12:46:30Z</time>
      </trkpt>
      <trkpt lat="44.74428" lon="-0.22711">
        <ele>72</ele>
        <time>2017-05-23T12:46:30Z</time>
      </trkpt>
      <trkpt lat="44.74425" lon="-0.22699">
        <ele>74</ele>
        <time>2017-05-23T12:46:46Z</time>
      </trkpt>
      <trkpt lat="44.74419" lon="-0.22677">
        <ele>74</ele>
        <time>2017-05-23T12:47:02Z</time>
      </trkpt>
      <trkpt lat="44.74419" lon="-0.22662">
        <ele>74</ele>
        <time>2017-05-23T12:47:02Z</time>
      </trkpt>
      <trkpt lat="44.74418" lon="-0.22648">
        <ele>74</ele>
        <time>2017-05-23T12:47:18Z</time>
      </trkpt>
      <trkpt lat="44.74418" lon="-0.22641">
        <ele>74</ele>
        <time>2017-05-23T12:47:18Z</time>
      </trkpt>
      <trkpt lat="44.7442" lon="-0.22634">
        <ele>74</ele>
        <time>2017-05-23T12:47:18Z</time>
      </trkpt>
      <trkpt lat="44.74424" lon="-0.22629">
        <ele>74</ele>
        <time>2017-05-23T12:47:18Z</time>
      </trkpt>
      <trkpt lat="44.74426" lon="-0.22623">
        <ele>72</ele>
        <time>2017-05-23T12:47:34Z</time>
      </trkpt>
      <trkpt lat="44.74424" lon="-0.22587">
        <ele>72</ele>
        <time>2017-05-23T12:47:50Z</time>
      </trkpt>
      <trkpt lat="44.74422" lon="-0.22573">
        <ele>72</ele>
        <time>2017-05-23T12:47:50Z</time>
      </trkpt>
      <trkpt lat="44.74425" lon="-0.22568">
        <ele>72</ele>
        <time>2017-05-23T12:48:06Z</time>
      </trkpt>
      <trkpt lat="44.7443" lon="-0.22565">
        <ele>72</ele>
        <time>2017-05-23T12:48:06Z</time>
      </trkpt>
      <trkpt lat="44.7444" lon="-0.22563">
        <ele>72</ele>
        <time>2017-05-23T12:48:06Z</time>
      </trkpt>
      <trkpt lat="44.7445" lon="-0.22557">
        <ele>72</ele>
        <time>2017-05-23T12:48:22Z</time>
      </trkpt>
      <trkpt lat="44.74454" lon="-0.22553">
        <ele>72</ele>
        <time>2017-05-23T12:48:22Z</time>
      </trkpt>
      <trkpt lat="44.74459" lon="-0.22543">
        <ele>71</ele>
        <time>2017-05-23T12:48:38Z</time>
      </trkpt>
      <trkpt lat="44.74463" lon="-0.22539">
        <ele>71</ele>
        <time>2017-05-23T12:48:38Z</time>
      </trkpt>
      <trkpt lat="44.74472" lon="-0.22525">
        <ele>71</ele>
        <time>2017-05-23T12:48:54Z</time>
      </trkpt>
      <trkpt lat="44.74477" lon="-0.22512">
        <ele>71</ele>
        <time>2017-05-23T12:48:54Z</time>
      </trkpt>
      <trkpt lat="44.74485" lon="-0.22496">
        <ele>71</ele>
        <time>2017-05-23T12:49:10Z</time>
      </trkpt>
      <trkpt lat="44.74509" lon="-0.22445">
        <ele>70</ele>
        <time>2017-05-23T12:49:42Z</time>
      </trkpt>
      <trkpt lat="44.74523" lon="-0.22409">
        <ele>70</ele>
        <time>2017-05-23T12:50:14Z</time>
      </trkpt>
      <trkpt lat="44.74537" lon="-0.22365">
        <ele>70</ele>
        <time>2017-05-23T12:50:30Z</time>
      </trkpt>
      <trkpt lat="44.74539" lon="-0.2236">
        <ele>70</ele>
        <time>2017-05-23T12:50:46Z</time>
      </trkpt>
      <trkpt lat="44.74554" lon="-0.22312">
        <ele>77</ele>
        <time>2017-05-23T12:51:18Z</time>
      </trkpt>
      <trkpt lat="44.74563" lon="-0.22277">
        <ele>73</ele>
        <time>2017-05-23T12:51:34Z</time>
      </trkpt>
      <trkpt lat="44.74565" lon="-0.22251">
        <ele>73</ele>
        <time>2017-05-23T12:51:50Z</time>
      </trkpt>
      <trkpt lat="44.74568" lon="-0.22246">
        <ele>73</ele>
        <time>2017-05-23T12:51:50Z</time>
      </trkpt>
      <trkpt lat="44.74568" lon="-0.22241">
        <ele>73</ele>
        <time>2017-05-23T12:52:06Z</time>
      </trkpt>
      <trkpt lat="44.74576" lon="-0.22229">
        <ele>73</ele>
        <time>2017-05-23T12:52:06Z</time>
      </trkpt>
      <trkpt lat="44.74579" lon="-0.22229">
        <ele>73</ele>
        <time>2017-05-23T12:52:06Z</time>
      </trkpt>
      <trkpt lat="44.74581" lon="-0.22227">
        <ele>73</ele>
        <time>2017-05-23T12:52:38Z</time>
      </trkpt>
      <trkpt lat="44.7458" lon="-0.22224">
        <ele>73</ele>
        <time>2017-05-23T12:52:38Z</time>
      </trkpt>
      <trkpt lat="44.74585" lon="-0.22214">
        <ele>73</ele>
        <time>2017-05-23T12:52:38Z</time>
      </trkpt>
      <trkpt lat="44.74589" lon="-0.2221">
        <ele>73</ele>
        <time>2017-05-23T12:52:58Z</time>
      </trkpt>
      <trkpt lat="44.74588" lon="-0.22205">
        <ele>64</ele>
        <time>2017-05-23T12:52:58Z</time>
      </trkpt>
      <trkpt lat="44.74584" lon="-0.22203">
        <ele>64</ele>
        <time>2017-05-23T12:52:58Z</time>
      </trkpt>
      <trkpt lat="44.74581" lon="-0.22191">
        <ele>64</ele>
        <time>2017-05-23T12:53:14Z</time>
      </trkpt>
      <trkpt lat="44.74579" lon="-0.22186">
        <ele>64</ele>
        <time>2017-05-23T12:53:14Z</time>
      </trkpt>
      <trkpt lat="44.74578" lon="-0.22185">
        <ele>64</ele>
        <time>2017-05-23T12:53:14Z</time>
      </trkpt>
      <trkpt lat="44.74573" lon="-0.22177">
        <ele>64</ele>
        <time>2017-05-23T12:53:34Z</time>
      </trkpt>
      <trkpt lat="44.74572" lon="-0.22167">
        <ele>64</ele>
        <time>2017-05-23T12:53:34Z</time>
      </trkpt>
      <trkpt lat="44.74576" lon="-0.22154">
        <ele>64</ele>
        <time>2017-05-23T12:53:50Z</time>
      </trkpt>
      <trkpt lat="44.74584" lon="-0.22144">
        <ele>64</ele>
        <time>2017-05-23T12:53:50Z</time>
      </trkpt>
      <trkpt lat="44.74592" lon="-0.22139">
        <ele>64</ele>
        <time>2017-05-23T12:54:06Z</time>
      </trkpt>
      <trkpt lat="44.74597" lon="-0.22138">
        <ele>64</ele>
        <time>2017-05-23T12:54:06Z</time>
      </trkpt>
      <trkpt lat="44.74607" lon="-0.22131">
        <ele>64</ele>
        <time>2017-05-23T12:54:06Z</time>
      </trkpt>
      <trkpt lat="44.74618" lon="-0.22127">
        <ele>64</ele>
        <time>2017-05-23T12:54:22Z</time>
      </trkpt>
      <trkpt lat="44.74622" lon="-0.22127">
        <ele>64</ele>
        <time>2017-05-23T12:54:22Z</time>
      </trkpt>
      <trkpt lat="44.74626" lon="-0.22129">
        <ele>70</ele>
        <time>2017-05-23T12:54:38Z</time>
      </trkpt>
      <trkpt lat="44.74632" lon="-0.22134">
        <ele>70</ele>
        <time>2017-05-23T12:54:38Z</time>
      </trkpt>
      <trkpt lat="44.74636" lon="-0.22134">
        <ele>70</ele>
        <time>2017-05-23T12:54:38Z</time>
      </trkpt>
      <trkpt lat="44.7464" lon="-0.2213">
        <ele>70</ele>
        <time>2017-05-23T12:54:38Z</time>
      </trkpt>
      <trkpt lat="44.74645" lon="-0.2213">
        <ele>70</ele>
        <time>2017-05-23T12:54:54Z</time>
      </trkpt>
      <trkpt lat="44.74651" lon="-0.22132">
        <ele>70</ele>
        <time>2017-05-23T12:54:54Z</time>
      </trkpt>
      <trkpt lat="44.74656" lon="-0.22133">
        <ele>70</ele>
        <time>2017-05-23T12:54:54Z</time>
      </trkpt>
      <trkpt lat="44.74664" lon="-0.22129">
        <ele>70</ele>
        <time>2017-05-23T12:55:10Z</time>
      </trkpt>
      <trkpt lat="44.74669" lon="-0.22118">
        <ele>63</ele>
        <time>2017-05-23T12:55:10Z</time>
      </trkpt>
      <trkpt lat="44.74677" lon="-0.22121">
        <ele>63</ele>
        <time>2017-05-23T12:55:26Z</time>
      </trkpt>
      <trkpt lat="44.74681" lon="-0.22122">
        <ele>63</ele>
        <time>2017-05-23T12:55:26Z</time>
      </trkpt>
      <trkpt lat="44.74682" lon="-0.22119">
        <ele>63</ele>
        <time>2017-05-23T12:55:26Z</time>
      </trkpt>
      <trkpt lat="44.74687" lon="-0.22128">
        <ele>70</ele>
        <time>2017-05-23T12:55:26Z</time>
      </trkpt>
      <trkpt lat="44.7468" lon="-0.22123">
        <ele>63</ele>
        <time>2017-05-23T12:55:42Z</time>
      </trkpt>
      <trkpt lat="44.74676" lon="-0.22114">
        <ele>63</ele>
        <time>2017-05-23T12:55:42Z</time>
      </trkpt>
      <trkpt lat="44.74675" lon="-0.22106">
        <ele>63</ele>
        <time>2017-05-23T12:55:58Z</time>
      </trkpt>
      <trkpt lat="44.74677" lon="-0.22091">
        <ele>63</ele>
        <time>2017-05-23T12:55:58Z</time>
      </trkpt>
      <trkpt lat="44.74676" lon="-0.22089">
        <ele>63</ele>
        <time>2017-05-23T12:56:14Z</time>
      </trkpt>
      <trkpt lat="44.74678" lon="-0.22076">
        <ele>63</ele>
        <time>2017-05-23T12:56:14Z</time>
      </trkpt>
      <trkpt lat="44.74681" lon="-0.22071">
        <ele>63</ele>
        <time>2017-05-23T12:56:30Z</time>
      </trkpt>
      <trkpt lat="44.74686" lon="-0.22058">
        <ele>63</ele>
        <time>2017-05-23T12:56:30Z</time>
      </trkpt>
      <trkpt lat="44.74695" lon="-0.22047">
        <ele>63</ele>
        <time>2017-05-23T12:56:30Z</time>
      </trkpt>
      <trkpt lat="44.747" lon="-0.22043">
        <ele>63</ele>
        <time>2017-05-23T12:56:46Z</time>
      </trkpt>
      <trkpt lat="44.74715" lon="-0.22036">
        <ele>64</ele>
        <time>2017-05-23T12:56:46Z</time>
      </trkpt>
      <trkpt lat="44.74717" lon="-0.22038">
        <ele>64</ele>
        <time>2017-05-23T12:57:14Z</time>
      </trkpt>
      <trkpt lat="44.74717" lon="-0.22035">
        <ele>64</ele>
        <time>2017-05-23T12:57:14Z</time>
      </trkpt>
      <trkpt lat="44.74716" lon="-0.22033">
        <ele>64</ele>
        <time>2017-05-23T12:57:14Z</time>
      </trkpt>
      <trkpt lat="44.74714" lon="-0.22027">
        <ele>64</ele>
        <time>2017-05-23T12:57:14Z</time>
      </trkpt>
      <trkpt lat="44.74711" lon="-0.22015">
        <ele>64</ele>
        <time>2017-05-23T12:57:30Z</time>
      </trkpt>
      <trkpt lat="44.74707" lon="-0.22005">
        <ele>62</ele>
        <time>2017-05-23T12:57:30Z</time>
      </trkpt>
      <trkpt lat="44.74701" lon="-0.21976">
        <ele>62</ele>
        <time>2017-05-23T12:58:02Z</time>
      </trkpt>
      <trkpt lat="44.747" lon="-0.21968">
        <ele>62</ele>
        <time>2017-05-23T12:58:02Z</time>
      </trkpt>
      <trkpt lat="44.74705" lon="-0.21957">
        <ele>64</ele>
        <time>2017-05-23T12:58:18Z</time>
      </trkpt>
      <trkpt lat="44.74706" lon="-0.21951">
        <ele>64</ele>
        <time>2017-05-23T12:58:18Z</time>
      </trkpt>
      <trkpt lat="44.74709" lon="-0.21945">
        <ele>66</ele>
        <time>2017-05-23T12:58:18Z</time>
      </trkpt>
      <trkpt lat="44.74708" lon="-0.21944">
        <ele>64</ele>
        <time>2017-05-23T12:58:54Z</time>
      </trkpt>
      <trkpt lat="44.74708" lon="-0.21937">
        <ele>64</ele>
        <time>2017-05-23T12:58:54Z</time>
      </trkpt>
      <trkpt lat="44.7471" lon="-0.21932">
        <ele>66</ele>
        <time>2017-05-23T12:58:54Z</time>
      </trkpt>
      <trkpt lat="44.74714" lon="-0.21933">
        <ele>66</ele>
        <time>2017-05-23T12:59:18Z</time>
      </trkpt>
      <trkpt lat="44.74719" lon="-0.21928">
        <ele>66</ele>
        <time>2017-05-23T12:59:18Z</time>
      </trkpt>
      <trkpt lat="44.74722" lon="-0.21915">
        <ele>66</ele>
        <time>2017-05-23T12:59:34Z</time>
      </trkpt>
      <trkpt lat="44.74732" lon="-0.21888">
        <ele>66</ele>
        <time>2017-05-23T12:59:50Z</time>
      </trkpt>
      <trkpt lat="44.74737" lon="-0.21881">
        <ele>66</ele>
        <time>2017-05-23T13:00:06Z</time>
      </trkpt>
      <trkpt lat="44.7474" lon="-0.21875">
        <ele>67</ele>
        <time>2017-05-23T13:00:06Z</time>
      </trkpt>
      <trkpt lat="44.74739" lon="-0.21871">
        <ele>67</ele>
        <time>2017-05-23T13:00:06Z</time>
      </trkpt>
      <trkpt lat="44.74742" lon="-0.21863">
        <ele>67</ele>
        <time>2017-05-23T13:00:22Z</time>
      </trkpt>
      <trkpt lat="44.74745" lon="-0.21855">
        <ele>67</ele>
        <time>2017-05-23T13:00:22Z</time>
      </trkpt>
      <trkpt lat="44.74752" lon="-0.21835">
        <ele>67</ele>
        <time>2017-05-23T13:00:42Z</time>
      </trkpt>
      <trkpt lat="44.74756" lon="-0.21832">
        <ele>67</ele>
        <time>2017-05-23T13:00:42Z</time>
      </trkpt>
      <trkpt lat="44.74758" lon="-0.21828">
        <ele>67</ele>
        <time>2017-05-23T13:00:58Z</time>
      </trkpt>
      <trkpt lat="44.74759" lon="-0.21815">
        <ele>67</ele>
        <time>2017-05-23T13:00:58Z</time>
      </trkpt>
      <trkpt lat="44.74763" lon="-0.21808">
        <ele>67</ele>
        <time>2017-05-23T13:00:58Z</time>
      </trkpt>
      <trkpt lat="44.74768" lon="-0.21794">
        <ele>67</ele>
        <time>2017-05-23T13:01:14Z</time>
      </trkpt>
      <trkpt lat="44.74769" lon="-0.21787">
        <ele>67</ele>
        <time>2017-05-23T13:01:34Z</time>
      </trkpt>
      <trkpt lat="44.74771" lon="-0.21779">
        <ele>67</ele>
        <time>2017-05-23T13:01:34Z</time>
      </trkpt>
      <trkpt lat="44.74772" lon="-0.21773">
        <ele>67</ele>
        <time>2017-05-23T13:01:34Z</time>
      </trkpt>
      <trkpt lat="44.74773" lon="-0.21773">
        <ele>67</ele>
        <time>2017-05-23T13:02:02Z</time>
      </trkpt>
      <trkpt lat="44.74774" lon="-0.21772">
        <ele>67</ele>
        <time>2017-05-23T13:02:02Z</time>
      </trkpt>
      <trkpt lat="44.74776" lon="-0.21772">
        <ele>67</ele>
        <time>2017-05-23T13:02:02Z</time>
      </trkpt>
      <trkpt lat="44.74778" lon="-0.21763">
        <ele>67</ele>
        <time>2017-05-23T13:02:02Z</time>
      </trkpt>
      <trkpt lat="44.74777" lon="-0.21758">
        <ele>67</ele>
        <time>2017-05-23T13:02:02Z</time>
      </trkpt>
      <trkpt lat="44.74781" lon="-0.21757">
        <ele>67</ele>
        <time>2017-05-23T13:03:54Z</time>
      </trkpt>
      <trkpt lat="44.7478" lon="-0.21746">
        <ele>67</ele>
        <time>2017-05-23T13:03:54Z</time>
      </trkpt>
      <trkpt lat="44.74786" lon="-0.21736">
        <ele>67</ele>
        <time>2017-05-23T13:04:58Z</time>
      </trkpt>
      <trkpt lat="44.74785" lon="-0.21728">
        <ele>67</ele>
        <time>2017-05-23T13:04:58Z</time>
      </trkpt>
      <trkpt lat="44.74786" lon="-0.21721">
        <ele>67</ele>
        <time>2017-05-23T13:05:38Z</time>
      </trkpt>
      <trkpt lat="44.74785" lon="-0.21716">
        <ele>67</ele>
        <time>2017-05-23T13:05:38Z</time>
      </trkpt>
      <trkpt lat="44.74787" lon="-0.2171">
        <ele>67</ele>
        <time>2017-05-23T13:05:38Z</time>
      </trkpt>
      <trkpt lat="44.74786" lon="-0.21707">
        <ele>63</ele>
        <time>2017-05-23T13:05:38Z</time>
      </trkpt>
      <trkpt lat="44.74781" lon="-0.21701">
        <ele>63</ele>
        <time>2017-05-23T13:05:54Z</time>
      </trkpt>
      <trkpt lat="44.74772" lon="-0.21699">
        <ele>63</ele>
        <time>2017-05-23T13:05:54Z</time>
      </trkpt>
      <trkpt lat="44.74768" lon="-0.21696">
        <ele>63</ele>
        <time>2017-05-23T13:05:54Z</time>
      </trkpt>
      <trkpt lat="44.74761" lon="-0.21689">
        <ele>63</ele>
        <time>2017-05-23T13:06:10Z</time>
      </trkpt>
      <trkpt lat="44.74753" lon="-0.21682">
        <ele>63</ele>
        <time>2017-05-23T13:06:10Z</time>
      </trkpt>
      <trkpt lat="44.74746" lon="-0.21674">
        <ele>63</ele>
        <time>2017-05-23T13:06:26Z</time>
      </trkpt>
      <trkpt lat="44.74741" lon="-0.21671">
        <ele>63</ele>
        <time>2017-05-23T13:06:26Z</time>
      </trkpt>
      <trkpt lat="44.74737" lon="-0.21667">
        <ele>63</ele>
        <time>2017-05-23T13:06:26Z</time>
      </trkpt>
      <trkpt lat="44.74728" lon="-0.21662">
        <ele>63</ele>
        <time>2017-05-23T13:06:42Z</time>
      </trkpt>
      <trkpt lat="44.74718" lon="-0.21659">
        <ele>63</ele>
        <time>2017-05-23T13:06:42Z</time>
      </trkpt>
      <trkpt lat="44.74706" lon="-0.21657">
        <ele>66</ele>
        <time>2017-05-23T13:06:58Z</time>
      </trkpt>
      <trkpt lat="44.747" lon="-0.21658">
        <ele>66</ele>
        <time>2017-05-23T13:06:58Z</time>
      </trkpt>
      <trkpt lat="44.74689" lon="-0.21662">
        <ele>66</ele>
        <time>2017-05-23T13:07:14Z</time>
      </trkpt>
      <trkpt lat="44.74665" lon="-0.21664">
        <ele>66</ele>
        <time>2017-05-23T13:07:30Z</time>
      </trkpt>
      <trkpt lat="44.74634" lon="-0.21656">
        <ele>66</ele>
        <time>2017-05-23T13:08:02Z</time>
      </trkpt>
      <trkpt lat="44.74629" lon="-0.21654">
        <ele>66</ele>
        <time>2017-05-23T13:08:02Z</time>
      </trkpt>
      <trkpt lat="44.74624" lon="-0.21654">
        <ele>68</ele>
        <time>2017-05-23T13:08:02Z</time>
      </trkpt>
      <trkpt lat="44.74614" lon="-0.21647">
        <ele>68</ele>
        <time>2017-05-23T13:08:18Z</time>
      </trkpt>
      <trkpt lat="44.74597" lon="-0.21641">
        <ele>68</ele>
        <time>2017-05-23T13:08:18Z</time>
      </trkpt>
      <trkpt lat="44.74592" lon="-0.2164">
        <ele>68</ele>
        <time>2017-05-23T13:08:34Z</time>
      </trkpt>
      <trkpt lat="44.74577" lon="-0.21634">
        <ele>68</ele>
        <time>2017-05-23T13:08:34Z</time>
      </trkpt>
      <trkpt lat="44.74571" lon="-0.21635">
        <ele>68</ele>
        <time>2017-05-23T13:08:50Z</time>
      </trkpt>
      <trkpt lat="44.74557" lon="-0.2163">
        <ele>68</ele>
        <time>2017-05-23T13:08:50Z</time>
      </trkpt>
      <trkpt lat="44.74546" lon="-0.21631">
        <ele>68</ele>
        <time>2017-05-23T13:09:06Z</time>
      </trkpt>
      <trkpt lat="44.7454" lon="-0.2163">
        <ele>71</ele>
        <time>2017-05-23T13:09:06Z</time>
      </trkpt>
      <trkpt lat="44.74532" lon="-0.21623">
        <ele>72</ele>
        <time>2017-05-23T13:09:22Z</time>
      </trkpt>
      <trkpt lat="44.74532" lon="-0.21616">
        <ele>72</ele>
        <time>2017-05-23T13:09:22Z</time>
      </trkpt>
      <trkpt lat="44.74536" lon="-0.21597">
        <ele>72</ele>
        <time>2017-05-23T13:09:38Z</time>
      </trkpt>
      <trkpt lat="44.74539" lon="-0.2159">
        <ele>72</ele>
        <time>2017-05-23T13:09:38Z</time>
      </trkpt>
      <trkpt lat="44.74541" lon="-0.21588">
        <ele>72</ele>
        <time>2017-05-23T13:09:38Z</time>
      </trkpt>
      <trkpt lat="44.74544" lon="-0.21582">
        <ele>68</ele>
        <time>2017-05-23T13:09:38Z</time>
      </trkpt>
      <trkpt lat="44.74548" lon="-0.21578">
        <ele>68</ele>
        <time>2017-05-23T13:09:54Z</time>
      </trkpt>
      <trkpt lat="44.74546" lon="-0.21574">
        <ele>68</ele>
        <time>2017-05-23T13:09:54Z</time>
      </trkpt>
      <trkpt lat="44.7455" lon="-0.21564">
        <ele>68</ele>
        <time>2017-05-23T13:09:54Z</time>
      </trkpt>
      <trkpt lat="44.74554" lon="-0.21557">
        <ele>68</ele>
        <time>2017-05-23T13:10:10Z</time>
      </trkpt>
      <trkpt lat="44.74557" lon="-0.21548">
        <ele>68</ele>
        <time>2017-05-23T13:10:10Z</time>
      </trkpt>
      <trkpt lat="44.74556" lon="-0.21542">
        <ele>68</ele>
        <time>2017-05-23T13:10:26Z</time>
      </trkpt>
      <trkpt lat="44.74558" lon="-0.21537">
        <ele>66</ele>
        <time>2017-05-23T13:10:26Z</time>
      </trkpt>
      <trkpt lat="44.74567" lon="-0.21527">
        <ele>66</ele>
        <time>2017-05-23T13:10:26Z</time>
      </trkpt>
      <trkpt lat="44.74577" lon="-0.2151">
        <ele>66</ele>
        <time>2017-05-23T13:10:42Z</time>
      </trkpt>
      <trkpt lat="44.74582" lon="-0.21508">
        <ele>66</ele>
        <time>2017-05-23T13:10:42Z</time>
      </trkpt>
      <trkpt lat="44.74584" lon="-0.21505">
        <ele>66</ele>
        <time>2017-05-23T13:10:42Z</time>
      </trkpt>
      <trkpt lat="44.74584" lon="-0.21502">
        <ele>66</ele>
        <time>2017-05-23T13:10:58Z</time>
      </trkpt>
      <trkpt lat="44.74604" lon="-0.21473">
        <ele>66</ele>
        <time>2017-05-23T13:11:14Z</time>
      </trkpt>
      <trkpt lat="44.74607" lon="-0.21466">
        <ele>66</ele>
        <time>2017-05-23T13:11:14Z</time>
      </trkpt>
      <trkpt lat="44.74612" lon="-0.2146">
        <ele>66</ele>
        <time>2017-05-23T13:11:14Z</time>
      </trkpt>
      <trkpt lat="44.74617" lon="-0.21447">
        <ele>64</ele>
        <time>2017-05-23T13:11:30Z</time>
      </trkpt>
      <trkpt lat="44.74626" lon="-0.21437">
        <ele>62</ele>
        <time>2017-05-23T13:11:30Z</time>
      </trkpt>
      <trkpt lat="44.74642" lon="-0.21413">
        <ele>62</ele>
        <time>2017-05-23T13:12:02Z</time>
      </trkpt>
      <trkpt lat="44.74652" lon="-0.214">
        <ele>62</ele>
        <time>2017-05-23T13:12:02Z</time>
      </trkpt>
      <trkpt lat="44.74667" lon="-0.21392">
        <ele>62</ele>
        <time>2017-05-23T13:12:18Z</time>
      </trkpt>
      <trkpt lat="44.7467" lon="-0.21388">
        <ele>62</ele>
        <time>2017-05-23T13:12:18Z</time>
      </trkpt>
      <trkpt lat="44.74677" lon="-0.21376">
        <ele>62</ele>
        <time>2017-05-23T13:12:34Z</time>
      </trkpt>
      <trkpt lat="44.74687" lon="-0.21364">
        <ele>62</ele>
        <time>2017-05-23T13:12:50Z</time>
      </trkpt>
      <trkpt lat="44.74689" lon="-0.2136">
        <ele>62</ele>
        <time>2017-05-23T13:12:50Z</time>
      </trkpt>
      <trkpt lat="44.74696" lon="-0.21353">
        <ele>62</ele>
        <time>2017-05-23T13:13:06Z</time>
      </trkpt>
      <trkpt lat="44.747" lon="-0.21346">
        <ele>62</ele>
        <time>2017-05-23T13:13:06Z</time>
      </trkpt>
      <trkpt lat="44.74706" lon="-0.21339">
        <ele>62</ele>
        <time>2017-05-23T13:13:22Z</time>
      </trkpt>
      <trkpt lat="44.74706" lon="-0.21337">
        <ele>62</ele>
        <time>2017-05-23T13:13:22Z</time>
      </trkpt>
      <trkpt lat="44.74711" lon="-0.2133">
        <ele>62</ele>
        <time>2017-05-23T13:13:22Z</time>
      </trkpt>
      <trkpt lat="44.74716" lon="-0.21318">
        <ele>62</ele>
        <time>2017-05-23T13:13:38Z</time>
      </trkpt>
      <trkpt lat="44.74718" lon="-0.21314">
        <ele>62</ele>
        <time>2017-05-23T13:13:38Z</time>
      </trkpt>
      <trkpt lat="44.74734" lon="-0.213">
        <ele>62</ele>
        <time>2017-05-23T13:13:54Z</time>
      </trkpt>
      <trkpt lat="44.74737" lon="-0.21295">
        <ele>62</ele>
        <time>2017-05-23T13:13:54Z</time>
      </trkpt>
      <trkpt lat="44.74736" lon="-0.21291">
        <ele>62</ele>
        <time>2017-05-23T13:13:54Z</time>
      </trkpt>
      <trkpt lat="44.74744" lon="-0.21283">
        <ele>62</ele>
        <time>2017-05-23T13:14:10Z</time>
      </trkpt>
      <trkpt lat="44.74747" lon="-0.21276">
        <ele>62</ele>
        <time>2017-05-23T13:14:10Z</time>
      </trkpt>
      <trkpt lat="44.74751" lon="-0.21271">
        <ele>62</ele>
        <time>2017-05-23T13:14:10Z</time>
      </trkpt>
      <trkpt lat="44.74755" lon="-0.21261">
        <ele>62</ele>
        <time>2017-05-23T13:14:26Z</time>
      </trkpt>
      <trkpt lat="44.74761" lon="-0.21258">
        <ele>62</ele>
        <time>2017-05-23T13:14:26Z</time>
      </trkpt>
      <trkpt lat="44.74764" lon="-0.21249">
        <ele>62</ele>
        <time>2017-05-23T13:14:42Z</time>
      </trkpt>
      <trkpt lat="44.74763" lon="-0.21243">
        <ele>62</ele>
        <time>2017-05-23T13:14:42Z</time>
      </trkpt>
      <trkpt lat="44.74764" lon="-0.21238">
        <ele>62</ele>
        <time>2017-05-23T13:14:42Z</time>
      </trkpt>
      <trkpt lat="44.74768" lon="-0.21221">
        <ele>62</ele>
        <time>2017-05-23T13:14:58Z</time>
      </trkpt>
      <trkpt lat="44.748" lon="-0.21189">
        <ele>62</ele>
        <time>2017-05-23T13:15:14Z</time>
      </trkpt>
      <trkpt lat="44.74814" lon="-0.21183">
        <ele>62</ele>
        <time>2017-05-23T13:15:54Z</time>
      </trkpt>
      <trkpt lat="44.74813" lon="-0.21188">
        <ele>62</ele>
        <time>2017-05-23T13:15:54Z</time>
      </trkpt>
      <trkpt lat="44.74814" lon="-0.21193">
        <ele>62</ele>
        <time>2017-05-23T13:15:54Z</time>
      </trkpt>
      <trkpt lat="44.7482" lon="-0.21201">
        <ele>62</ele>
        <time>2017-05-23T13:15:54Z</time>
      </trkpt>
      <trkpt lat="44.74821" lon="-0.21198">
        <ele>62</ele>
        <time>2017-05-23T13:16:10Z</time>
      </trkpt>
      <trkpt lat="44.74832" lon="-0.21202">
        <ele>62</ele>
        <time>2017-05-23T13:16:10Z</time>
      </trkpt>
      <trkpt lat="44.74838" lon="-0.21206">
        <ele>62</ele>
        <time>2017-05-23T13:16:30Z</time>
      </trkpt>
      <trkpt lat="44.74839" lon="-0.21209">
        <ele>61</ele>
        <time>2017-05-23T13:16:30Z</time>
      </trkpt>
      <trkpt lat="44.74844" lon="-0.21213">
        <ele>61</ele>
        <time>2017-05-23T13:16:30Z</time>
      </trkpt>
      <trkpt lat="44.74848" lon="-0.21222">
        <ele>61</ele>
        <time>2017-05-23T13:16:46Z</time>
      </trkpt>
      <trkpt lat="44.74861" lon="-0.21233">
        <ele>61</ele>
        <time>2017-05-23T13:17:02Z</time>
      </trkpt>
      <trkpt lat="44.74869" lon="-0.21243">
        <ele>61</ele>
        <time>2017-05-23T13:17:02Z</time>
      </trkpt>
      <trkpt lat="44.74871" lon="-0.21246">
        <ele>61</ele>
        <time>2017-05-23T13:17:22Z</time>
      </trkpt>
      <trkpt lat="44.74873" lon="-0.21247">
        <ele>61</ele>
        <time>2017-05-23T13:17:22Z</time>
      </trkpt>
      <trkpt lat="44.74886" lon="-0.21262">
        <ele>61</ele>
        <time>2017-05-23T13:17:38Z</time>
      </trkpt>
      <trkpt lat="44.7489" lon="-0.21273">
        <ele>61</ele>
        <time>2017-05-23T13:17:38Z</time>
      </trkpt>
      <trkpt lat="44.74893" lon="-0.21278">
        <ele>61</ele>
        <time>2017-05-23T13:17:38Z</time>
      </trkpt>
      <trkpt lat="44.74899" lon="-0.2128">
        <ele>61</ele>
        <time>2017-05-23T13:17:38Z</time>
      </trkpt>
      <trkpt lat="44.74902" lon="-0.21282">
        <ele>61</ele>
        <time>2017-05-23T13:17:54Z</time>
      </trkpt>
      <trkpt lat="44.74912" lon="-0.21299">
        <ele>60</ele>
        <time>2017-05-23T13:17:54Z</time>
      </trkpt>
      <trkpt lat="44.74918" lon="-0.21318">
        <ele>60</ele>
        <time>2017-05-23T13:18:10Z</time>
      </trkpt>
      <trkpt lat="44.74937" lon="-0.21349">
        <ele>60</ele>
        <time>2017-05-23T13:18:26Z</time>
      </trkpt>
      <trkpt lat="44.74941" lon="-0.21353">
        <ele>60</ele>
        <time>2017-05-23T13:18:26Z</time>
      </trkpt>
      <trkpt lat="44.74956" lon="-0.21378">
        <ele>59</ele>
        <time>2017-05-23T13:18:58Z</time>
      </trkpt>
      <trkpt lat="44.74967" lon="-0.21398">
        <ele>59</ele>
        <time>2017-05-23T13:19:26Z</time>
      </trkpt>
      <trkpt lat="44.74973" lon="-0.21407">
        <ele>59</ele>
        <time>2017-05-23T13:19:26Z</time>
      </trkpt>
      <trkpt lat="44.74971" lon="-0.21419">
        <ele>59</ele>
        <time>2017-05-23T13:19:26Z</time>
      </trkpt>
      <trkpt lat="44.74975" lon="-0.21431">
        <ele>59</ele>
        <time>2017-05-23T13:19:46Z</time>
      </trkpt>
      <trkpt lat="44.74971" lon="-0.21452">
        <ele>59</ele>
        <time>2017-05-23T13:20:02Z</time>
      </trkpt>
      <trkpt lat="44.74971" lon="-0.21473">
        <ele>58</ele>
        <time>2017-05-23T13:20:18Z</time>
      </trkpt>
      <trkpt lat="44.74969" lon="-0.21481">
        <ele>58</ele>
        <time>2017-05-23T13:20:18Z</time>
      </trkpt>
      <trkpt lat="44.74966" lon="-0.21489">
        <ele>58</ele>
        <time>2017-05-23T13:20:18Z</time>
      </trkpt>
      <trkpt lat="44.74962" lon="-0.21497">
        <ele>58</ele>
        <time>2017-05-23T13:20:18Z</time>
      </trkpt>
      <trkpt lat="44.74958" lon="-0.21511">
        <ele>60</ele>
        <time>2017-05-23T13:20:34Z</time>
      </trkpt>
      <trkpt lat="44.74956" lon="-0.21524">
        <ele>60</ele>
        <time>2017-05-23T13:20:34Z</time>
      </trkpt>
      <trkpt lat="44.74956" lon="-0.21538">
        <ele>60</ele>
        <time>2017-05-23T13:20:50Z</time>
      </trkpt>
      <trkpt lat="44.74958" lon="-0.21544">
        <ele>60</ele>
        <time>2017-05-23T13:20:50Z</time>
      </trkpt>
      <trkpt lat="44.74962" lon="-0.21553">
        <ele>57</ele>
        <time>2017-05-23T13:21:06Z</time>
      </trkpt>
      <trkpt lat="44.74969" lon="-0.2157">
        <ele>57</ele>
        <time>2017-05-23T13:21:22Z</time>
      </trkpt>
      <trkpt lat="44.74979" lon="-0.21582">
        <ele>57</ele>
        <time>2017-05-23T13:21:22Z</time>
      </trkpt>
      <trkpt lat="44.74987" lon="-0.21588">
        <ele>57</ele>
        <time>2017-05-23T13:21:38Z</time>
      </trkpt>
      <trkpt lat="44.74994" lon="-0.21588">
        <ele>57</ele>
        <time>2017-05-23T13:21:38Z</time>
      </trkpt>
      <trkpt lat="44.75006" lon="-0.2158">
        <ele>57</ele>
        <time>2017-05-23T13:21:54Z</time>
      </trkpt>
      <trkpt lat="44.75025" lon="-0.21572">
        <ele>57</ele>
        <time>2017-05-23T13:22:10Z</time>
      </trkpt>
      <trkpt lat="44.75038" lon="-0.21565">
        <ele>57</ele>
        <time>2017-05-23T13:22:26Z</time>
      </trkpt>
      <trkpt lat="44.75051" lon="-0.21555">
        <ele>56</ele>
        <time>2017-05-23T13:22:42Z</time>
      </trkpt>
      <trkpt lat="44.75055" lon="-0.21558">
        <ele>56</ele>
        <time>2017-05-23T13:22:42Z</time>
      </trkpt>
      <trkpt lat="44.75057" lon="-0.21562">
        <ele>56</ele>
        <time>2017-05-23T13:22:42Z</time>
      </trkpt>
      <trkpt lat="44.75067" lon="-0.21567">
        <ele>56</ele>
        <time>2017-05-23T13:22:58Z</time>
      </trkpt>
      <trkpt lat="44.75084" lon="-0.21581">
        <ele>56</ele>
        <time>2017-05-23T13:23:14Z</time>
      </trkpt>
      <trkpt lat="44.75088" lon="-0.21587">
        <ele>56</ele>
        <time>2017-05-23T13:23:14Z</time>
      </trkpt>
      <trkpt lat="44.75091" lon="-0.21589">
        <ele>56</ele>
        <time>2017-05-23T13:23:14Z</time>
      </trkpt>
      <trkpt lat="44.75097" lon="-0.21589">
        <ele>56</ele>
        <time>2017-05-23T13:23:30Z</time>
      </trkpt>
      <trkpt lat="44.75099" lon="-0.21592">
        <ele>56</ele>
        <time>2017-05-23T13:23:30Z</time>
      </trkpt>
      <trkpt lat="44.75107" lon="-0.21594">
        <ele>56</ele>
        <time>2017-05-23T13:23:30Z</time>
      </trkpt>
      <trkpt lat="44.75125" lon="-0.21611">
        <ele>55</ele>
        <time>2017-05-23T13:23:46Z</time>
      </trkpt>
      <trkpt lat="44.75137" lon="-0.21626">
        <ele>54</ele>
        <time>2017-05-23T13:24:02Z</time>
      </trkpt>
      <trkpt lat="44.75139" lon="-0.21631">
        <ele>54</ele>
        <time>2017-05-23T13:24:02Z</time>
      </trkpt>
      <trkpt lat="44.75147" lon="-0.2164">
        <ele>54</ele>
        <time>2017-05-23T13:24:18Z</time>
      </trkpt>
      <trkpt lat="44.75165" lon="-0.21663">
        <ele>54</ele>
        <time>2017-05-23T13:24:34Z</time>
      </trkpt>
      <trkpt lat="44.75178" lon="-0.2169">
        <ele>54</ele>
        <time>2017-05-23T13:24:50Z</time>
      </trkpt>
      <trkpt lat="44.7518" lon="-0.21699">
        <ele>54</ele>
        <time>2017-05-23T13:25:10Z</time>
      </trkpt>
      <trkpt lat="44.75182" lon="-0.21701">
        <ele>54</ele>
        <time>2017-05-23T13:25:10Z</time>
      </trkpt>
      <trkpt lat="44.75191" lon="-0.21693">
        <ele>54</ele>
        <time>2017-05-23T13:25:10Z</time>
      </trkpt>
      <trkpt lat="44.75194" lon="-0.21686">
        <ele>54</ele>
        <time>2017-05-23T13:25:26Z</time>
      </trkpt>
      <trkpt lat="44.75199" lon="-0.21682">
        <ele>54</ele>
        <time>2017-05-23T13:25:26Z</time>
      </trkpt>
      <trkpt lat="44.752" lon="-0.21679">
        <ele>54</ele>
        <time>2017-05-23T13:25:46Z</time>
      </trkpt>
      <trkpt lat="44.75202" lon="-0.21679">
        <ele>54</ele>
        <time>2017-05-23T13:25:46Z</time>
      </trkpt>
      <trkpt lat="44.75205" lon="-0.21676">
        <ele>54</ele>
        <time>2017-05-23T13:25:46Z</time>
      </trkpt>
      <trkpt lat="44.75206" lon="-0.21672">
        <ele>54</ele>
        <time>2017-05-23T13:25:46Z</time>
      </trkpt>
      <trkpt lat="44.75211" lon="-0.21665">
        <ele>54</ele>
        <time>2017-05-23T13:26:06Z</time>
      </trkpt>
      <trkpt lat="44.75213" lon="-0.21659">
        <ele>54</ele>
        <time>2017-05-23T13:26:06Z</time>
      </trkpt>
      <trkpt lat="44.75213" lon="-0.21656">
        <ele>54</ele>
        <time>2017-05-23T13:26:06Z</time>
      </trkpt>
      <trkpt lat="44.7522" lon="-0.21652">
        <ele>54</ele>
        <time>2017-05-23T13:26:06Z</time>
      </trkpt>
      <trkpt lat="44.75224" lon="-0.21641">
        <ele>54</ele>
        <time>2017-05-23T13:26:22Z</time>
      </trkpt>
      <trkpt lat="44.75229" lon="-0.21636">
        <ele>54</ele>
        <time>2017-05-23T13:26:22Z</time>
      </trkpt>
      <trkpt lat="44.75245" lon="-0.21629">
        <ele>54</ele>
        <time>2017-05-23T13:26:38Z</time>
      </trkpt>
      <trkpt lat="44.75248" lon="-0.21626">
        <ele>54</ele>
        <time>2017-05-23T13:26:38Z</time>
      </trkpt>
      <trkpt lat="44.7525" lon="-0.21629">
        <ele>54</ele>
        <time>2017-05-23T13:26:38Z</time>
      </trkpt>
      <trkpt lat="44.75254" lon="-0.21629">
        <ele>54</ele>
        <time>2017-05-23T13:26:38Z</time>
      </trkpt>
      <trkpt lat="44.75265" lon="-0.21624">
        <ele>58</ele>
        <time>2017-05-23T13:26:54Z</time>
      </trkpt>
      <trkpt lat="44.75273" lon="-0.21625">
        <ele>58</ele>
        <time>2017-05-23T13:26:54Z</time>
      </trkpt>
      <trkpt lat="44.7528" lon="-0.21621">
        <ele>58</ele>
        <time>2017-05-23T13:27:10Z</time>
      </trkpt>
      <trkpt lat="44.75298" lon="-0.21625">
        <ele>63</ele>
        <time>2017-05-23T13:27:10Z</time>
      </trkpt>
      <trkpt lat="44.75302" lon="-0.21628">
        <ele>61</ele>
        <time>2017-05-23T13:27:26Z</time>
      </trkpt>
      <trkpt lat="44.75319" lon="-0.21636">
        <ele>61</ele>
        <time>2017-05-23T13:27:42Z</time>
      </trkpt>
      <trkpt lat="44.75327" lon="-0.21634">
        <ele>61</ele>
        <time>2017-05-23T13:27:42Z</time>
      </trkpt>
      <trkpt lat="44.75335" lon="-0.21615">
        <ele>63</ele>
        <time>2017-05-23T13:27:58Z</time>
      </trkpt>
      <trkpt lat="44.75336" lon="-0.21608">
        <ele>63</ele>
        <time>2017-05-23T13:27:58Z</time>
      </trkpt>
      <trkpt lat="44.7534" lon="-0.21597">
        <ele>63</ele>
        <time>2017-05-23T13:28:14Z</time>
      </trkpt>
      <trkpt lat="44.75347" lon="-0.21587">
        <ele>63</ele>
        <time>2017-05-23T13:28:14Z</time>
      </trkpt>
      <trkpt lat="44.7535" lon="-0.21586">
        <ele>63</ele>
        <time>2017-05-23T13:28:30Z</time>
      </trkpt>
      <trkpt lat="44.75355" lon="-0.21576">
        <ele>63</ele>
        <time>2017-05-23T13:28:30Z</time>
      </trkpt>
      <trkpt lat="44.75359" lon="-0.21573">
        <ele>63</ele>
        <time>2017-05-23T13:28:30Z</time>
      </trkpt>
      <trkpt lat="44.75365" lon="-0.21547">
        <ele>63</ele>
        <time>2017-05-23T13:28:46Z</time>
      </trkpt>
      <trkpt lat="44.75368" lon="-0.21543">
        <ele>63</ele>
        <time>2017-05-23T13:29:02Z</time>
      </trkpt>
      <trkpt lat="44.75371" lon="-0.21538">
        <ele>60</ele>
        <time>2017-05-23T13:29:02Z</time>
      </trkpt>
      <trkpt lat="44.75376" lon="-0.21535">
        <ele>59</ele>
        <time>2017-05-23T13:29:02Z</time>
      </trkpt>
      <trkpt lat="44.75379" lon="-0.21529">
        <ele>59</ele>
        <time>2017-05-23T13:29:02Z</time>
      </trkpt>
      <trkpt lat="44.75393" lon="-0.21519">
        <ele>59</ele>
        <time>2017-05-23T13:29:26Z</time>
      </trkpt>
      <trkpt lat="44.75393" lon="-0.21517">
        <ele>59</ele>
        <time>2017-05-23T13:29:26Z</time>
      </trkpt>
      <trkpt lat="44.75395" lon="-0.21518">
        <ele>59</ele>
        <time>2017-05-23T13:29:26Z</time>
      </trkpt>
      <trkpt lat="44.75392" lon="-0.21521">
        <ele>59</ele>
        <time>2017-05-23T13:30:14Z</time>
      </trkpt>
      <trkpt lat="44.75393" lon="-0.21512">
        <ele>59</ele>
        <time>2017-05-23T13:30:14Z</time>
      </trkpt>
      <trkpt lat="44.75404" lon="-0.21516">
        <ele>59</ele>
        <time>2017-05-23T13:30:14Z</time>
      </trkpt>
      <trkpt lat="44.75408" lon="-0.21516">
        <ele>59</ele>
        <time>2017-05-23T13:30:14Z</time>
      </trkpt>
      <trkpt lat="44.75411" lon="-0.21511">
        <ele>59</ele>
        <time>2017-05-23T13:30:30Z</time>
      </trkpt>
      <trkpt lat="44.75415" lon="-0.21503">
        <ele>59</ele>
        <time>2017-05-23T13:30:30Z</time>
      </trkpt>
      <trkpt lat="44.75417" lon="-0.21493">
        <ele>59</ele>
        <time>2017-05-23T13:30:30Z</time>
      </trkpt>
      <trkpt lat="44.75416" lon="-0.21481">
        <ele>59</ele>
        <time>2017-05-23T13:30:30Z</time>
      </trkpt>
      <trkpt lat="44.75413" lon="-0.21467">
        <ele>59</ele>
        <time>2017-05-23T13:30:46Z</time>
      </trkpt>
      <trkpt lat="44.75411" lon="-0.21461">
        <ele>59</ele>
        <time>2017-05-23T13:30:46Z</time>
      </trkpt>
      <trkpt lat="44.75411" lon="-0.21455">
        <ele>59</ele>
        <time>2017-05-23T13:30:46Z</time>
      </trkpt>
      <trkpt lat="44.75417" lon="-0.2145">
        <ele>59</ele>
        <time>2017-05-23T13:30:46Z</time>
      </trkpt>
      <trkpt lat="44.75427" lon="-0.21446">
        <ele>59</ele>
        <time>2017-05-23T13:31:02Z</time>
      </trkpt>
      <trkpt lat="44.75431" lon="-0.21442">
        <ele>59</ele>
        <time>2017-05-23T13:31:02Z</time>
      </trkpt>
      <trkpt lat="44.75432" lon="-0.21435">
        <ele>59</ele>
        <time>2017-05-23T13:31:02Z</time>
      </trkpt>
      <trkpt lat="44.75438" lon="-0.2142">
        <ele>59</ele>
        <time>2017-05-23T13:31:18Z</time>
      </trkpt>
      <trkpt lat="44.75439" lon="-0.21415">
        <ele>59</ele>
        <time>2017-05-23T13:31:18Z</time>
      </trkpt>
      <trkpt lat="44.75442" lon="-0.21411">
        <ele>59</ele>
        <time>2017-05-23T13:31:18Z</time>
      </trkpt>
      <trkpt lat="44.75443" lon="-0.21407">
        <ele>59</ele>
        <time>2017-05-23T13:31:34Z</time>
      </trkpt>
      <trkpt lat="44.7545" lon="-0.21398">
        <ele>59</ele>
        <time>2017-05-23T13:31:34Z</time>
      </trkpt>
      <trkpt lat="44.75454" lon="-0.21395">
        <ele>59</ele>
        <time>2017-05-23T13:31:34Z</time>
      </trkpt>
      <trkpt lat="44.75456" lon="-0.21391">
        <ele>59</ele>
        <time>2017-05-23T13:31:50Z</time>
      </trkpt>
      <trkpt lat="44.75464" lon="-0.2138">
        <ele>55</ele>
        <time>2017-05-23T13:31:50Z</time>
      </trkpt>
      <trkpt lat="44.75471" lon="-0.21377">
        <ele>55</ele>
        <time>2017-05-23T13:31:50Z</time>
      </trkpt>
      <trkpt lat="44.75486" lon="-0.21362">
        <ele>56</ele>
        <time>2017-05-23T13:32:06Z</time>
      </trkpt>
      <trkpt lat="44.75495" lon="-0.21351">
        <ele>56</ele>
        <time>2017-05-23T13:32:22Z</time>
      </trkpt>
      <trkpt lat="44.75512" lon="-0.21336">
        <ele>56</ele>
        <time>2017-05-23T13:32:38Z</time>
      </trkpt>
      <trkpt lat="44.75516" lon="-0.21331">
        <ele>56</ele>
        <time>2017-05-23T13:32:38Z</time>
      </trkpt>
      <trkpt lat="44.75531" lon="-0.21322">
        <ele>56</ele>
        <time>2017-05-23T13:32:54Z</time>
      </trkpt>
      <trkpt lat="44.75534" lon="-0.21318">
        <ele>56</ele>
        <time>2017-05-23T13:32:54Z</time>
      </trkpt>
      <trkpt lat="44.75539" lon="-0.21316">
        <ele>56</ele>
        <time>2017-05-23T13:32:54Z</time>
      </trkpt>
      <trkpt lat="44.75544" lon="-0.21315">
        <ele>55</ele>
        <time>2017-05-23T13:32:54Z</time>
      </trkpt>
      <trkpt lat="44.75557" lon="-0.21309">
        <ele>55</ele>
        <time>2017-05-23T13:33:10Z</time>
      </trkpt>
      <trkpt lat="44.75563" lon="-0.21309">
        <ele>55</ele>
        <time>2017-05-23T13:33:10Z</time>
      </trkpt>
      <trkpt lat="44.75577" lon="-0.21303">
        <ele>55</ele>
        <time>2017-05-23T13:33:26Z</time>
      </trkpt>
      <trkpt lat="44.75579" lon="-0.21297">
        <ele>55</ele>
        <time>2017-05-23T13:33:26Z</time>
      </trkpt>
      <trkpt lat="44.75587" lon="-0.2129">
        <ele>56</ele>
        <time>2017-05-23T13:33:42Z</time>
      </trkpt>
      <trkpt lat="44.7559" lon="-0.21285">
        <ele>56</ele>
        <time>2017-05-23T13:33:42Z</time>
      </trkpt>
      <trkpt lat="44.75603" lon="-0.21272">
        <ele>56</ele>
        <time>2017-05-23T13:33:58Z</time>
      </trkpt>
      <trkpt lat="44.75608" lon="-0.21269">
        <ele>56</ele>
        <time>2017-05-23T13:33:58Z</time>
      </trkpt>
      <trkpt lat="44.75613" lon="-0.21257">
        <ele>56</ele>
        <time>2017-05-23T13:34:14Z</time>
      </trkpt>
      <trkpt lat="44.75617" lon="-0.21256">
        <ele>56</ele>
        <time>2017-05-23T13:34:14Z</time>
      </trkpt>
      <trkpt lat="44.75622" lon="-0.21249">
        <ele>56</ele>
        <time>2017-05-23T13:34:14Z</time>
      </trkpt>
      <trkpt lat="44.75632" lon="-0.2124">
        <ele>55</ele>
        <time>2017-05-23T13:34:30Z</time>
      </trkpt>
      <trkpt lat="44.75634" lon="-0.21236">
        <ele>55</ele>
        <time>2017-05-23T13:34:30Z</time>
      </trkpt>
      <trkpt lat="44.75639" lon="-0.21231">
        <ele>55</ele>
        <time>2017-05-23T13:34:46Z</time>
      </trkpt>
      <trkpt lat="44.75647" lon="-0.21216">
        <ele>55</ele>
        <time>2017-05-23T13:34:46Z</time>
      </trkpt>
      <trkpt lat="44.75652" lon="-0.21215">
        <ele>55</ele>
        <time>2017-05-23T13:35:02Z</time>
      </trkpt>
      <trkpt lat="44.75653" lon="-0.21209">
        <ele>55</ele>
        <time>2017-05-23T13:35:02Z</time>
      </trkpt>
      <trkpt lat="44.75661" lon="-0.21194">
        <ele>55</ele>
        <time>2017-05-23T13:35:18Z</time>
      </trkpt>
      <trkpt lat="44.7567" lon="-0.21186">
        <ele>55</ele>
        <time>2017-05-23T13:35:18Z</time>
      </trkpt>
      <trkpt lat="44.75677" lon="-0.21177">
        <ele>55</ele>
        <time>2017-05-23T13:35:34Z</time>
      </trkpt>
      <trkpt lat="44.75687" lon="-0.2117">
        <ele>55</ele>
        <time>2017-05-23T13:35:34Z</time>
      </trkpt>
      <trkpt lat="44.75696" lon="-0.21162">
        <ele>55</ele>
        <time>2017-05-23T13:35:50Z</time>
      </trkpt>
      <trkpt lat="44.75721" lon="-0.21129">
        <ele>54</ele>
        <time>2017-05-23T13:36:06Z</time>
      </trkpt>
      <trkpt lat="44.75728" lon="-0.21124">
        <ele>54</ele>
        <time>2017-05-23T13:36:22Z</time>
      </trkpt>
      <trkpt lat="44.75732" lon="-0.2112">
        <ele>54</ele>
        <time>2017-05-23T13:36:22Z</time>
      </trkpt>
      <trkpt lat="44.7574" lon="-0.21108">
        <ele>54</ele>
        <time>2017-05-23T13:36:38Z</time>
      </trkpt>
      <trkpt lat="44.75742" lon="-0.21102">
        <ele>54</ele>
        <time>2017-05-23T13:36:38Z</time>
      </trkpt>
      <trkpt lat="44.75751" lon="-0.21094">
        <ele>54</ele>
        <time>2017-05-23T13:36:38Z</time>
      </trkpt>
      <trkpt lat="44.75768" lon="-0.21066">
        <ele>54</ele>
        <time>2017-05-23T13:37:10Z</time>
      </trkpt>
      <trkpt lat="44.75773" lon="-0.21062">
        <ele>54</ele>
        <time>2017-05-23T13:37:10Z</time>
      </trkpt>
      <trkpt lat="44.75777" lon="-0.21061">
        <ele>54</ele>
        <time>2017-05-23T13:37:10Z</time>
      </trkpt>
      <trkpt lat="44.7578" lon="-0.21056">
        <ele>54</ele>
        <time>2017-05-23T13:37:10Z</time>
      </trkpt>
      <trkpt lat="44.75785" lon="-0.21058">
        <ele>54</ele>
        <time>2017-05-23T13:37:26Z</time>
      </trkpt>
      <trkpt lat="44.75794" lon="-0.2107">
        <ele>58</ele>
        <time>2017-05-23T13:37:26Z</time>
      </trkpt>
      <trkpt lat="44.75799" lon="-0.21074">
        <ele>58</ele>
        <time>2017-05-23T13:37:42Z</time>
      </trkpt>
      <trkpt lat="44.75815" lon="-0.21096">
        <ele>58</ele>
        <time>2017-05-23T13:37:42Z</time>
      </trkpt>
      <trkpt lat="44.75823" lon="-0.21105">
        <ele>58</ele>
        <time>2017-05-23T13:38:42Z</time>
      </trkpt>
      <trkpt lat="44.75852" lon="-0.21127">
        <ele>54</ele>
        <time>2017-05-23T13:38:42Z</time>
      </trkpt>
      <trkpt lat="44.75855" lon="-0.21136">
        <ele>54</ele>
        <time>2017-05-23T13:38:58Z</time>
      </trkpt>
      <trkpt lat="44.75863" lon="-0.21155">
        <ele>54</ele>
        <time>2017-05-23T13:38:58Z</time>
      </trkpt>
      <trkpt lat="44.75866" lon="-0.21165">
        <ele>54</ele>
        <time>2017-05-23T13:39:58Z</time>
      </trkpt>
      <trkpt lat="44.75894" lon="-0.21203">
        <ele>40</ele>
        <time>2017-05-23T13:39:58Z</time>
      </trkpt>
      <trkpt lat="44.759" lon="-0.21203">
        <ele>40</ele>
        <time>2017-05-23T13:39:58Z</time>
      </trkpt>
      <trkpt lat="44.75903" lon="-0.21201">
        <ele>40</ele>
        <time>2017-05-23T13:40:14Z</time>
      </trkpt>
      <trkpt lat="44.75907" lon="-0.21201">
        <ele>40</ele>
        <time>2017-05-23T13:40:14Z</time>
      </trkpt>
      <trkpt lat="44.7592" lon="-0.21208">
        <ele>40</ele>
        <time>2017-05-23T13:40:30Z</time>
      </trkpt>
      <trkpt lat="44.75923" lon="-0.21208">
        <ele>40</ele>
        <time>2017-05-23T13:40:30Z</time>
      </trkpt>
      <trkpt lat="44.75926" lon="-0.21207">
        <ele>40</ele>
        <time>2017-05-23T13:40:30Z</time>
      </trkpt>
      <trkpt lat="44.75929" lon="-0.21207">
        <ele>40</ele>
        <time>2017-05-23T13:40:30Z</time>
      </trkpt>
      <trkpt lat="44.75935" lon="-0.21213">
        <ele>33</ele>
        <time>2017-05-23T13:40:46Z</time>
      </trkpt>
      <trkpt lat="44.75939" lon="-0.21214">
        <ele>33</ele>
        <time>2017-05-23T13:40:46Z</time>
      </trkpt>
      <trkpt lat="44.75948" lon="-0.21228">
        <ele>33</ele>
        <time>2017-05-23T13:40:46Z</time>
      </trkpt>
      <trkpt lat="44.75948" lon="-0.21234">
        <ele>33</ele>
        <time>2017-05-23T13:41:14Z</time>
      </trkpt>
      <trkpt lat="44.75949" lon="-0.21238">
        <ele>33</ele>
        <time>2017-05-23T13:41:14Z</time>
      </trkpt>
      <trkpt lat="44.75951" lon="-0.2124">
        <ele>33</ele>
        <time>2017-05-23T13:41:14Z</time>
      </trkpt>
      <trkpt lat="44.75957" lon="-0.21241">
        <ele>33</ele>
        <time>2017-05-23T13:41:34Z</time>
      </trkpt>
      <trkpt lat="44.75958" lon="-0.21238">
        <ele>33</ele>
        <time>2017-05-23T13:41:34Z</time>
      </trkpt>
      <trkpt lat="44.75963" lon="-0.21241">
        <ele>31</ele>
        <time>2017-05-23T13:41:34Z</time>
      </trkpt>
      <trkpt lat="44.75964" lon="-0.21245">
        <ele>31</ele>
        <time>2017-05-23T13:41:34Z</time>
      </trkpt>
      <trkpt lat="44.75972" lon="-0.21256">
        <ele>31</ele>
        <time>2017-05-23T13:41:54Z</time>
      </trkpt>
      <trkpt lat="44.75972" lon="-0.21261">
        <ele>31</ele>
        <time>2017-05-23T13:41:54Z</time>
      </trkpt>
      <trkpt lat="44.75969" lon="-0.21268">
        <ele>31</ele>
        <time>2017-05-23T13:41:54Z</time>
      </trkpt>
      <trkpt lat="44.75968" lon="-0.21277">
        <ele>31</ele>
        <time>2017-05-23T13:42:10Z</time>
      </trkpt>
      <trkpt lat="44.75968" lon="-0.21282">
        <ele>31</ele>
        <time>2017-05-23T13:42:10Z</time>
      </trkpt>
      <trkpt lat="44.75967" lon="-0.21288">
        <ele>31</ele>
        <time>2017-05-23T13:42:10Z</time>
      </trkpt>
      <trkpt lat="44.7597" lon="-0.21301">
        <ele>31</ele>
        <time>2017-05-23T13:42:26Z</time>
      </trkpt>
      <trkpt lat="44.7597" lon="-0.21308">
        <ele>31</ele>
        <time>2017-05-23T13:42:26Z</time>
      </trkpt>
      <trkpt lat="44.75971" lon="-0.21316">
        <ele>31</ele>
        <time>2017-05-23T13:42:26Z</time>
      </trkpt>
      <trkpt lat="44.75972" lon="-0.21321">
        <ele>31</ele>
        <time>2017-05-23T13:42:42Z</time>
      </trkpt>
      <trkpt lat="44.75977" lon="-0.21326">
        <ele>31</ele>
        <time>2017-05-23T13:42:42Z</time>
      </trkpt>
      <trkpt lat="44.75979" lon="-0.21333">
        <ele>31</ele>
        <time>2017-05-23T13:42:42Z</time>
      </trkpt>
      <trkpt lat="44.75981" lon="-0.21346">
        <ele>31</ele>
        <time>2017-05-23T13:42:58Z</time>
      </trkpt>
      <trkpt lat="44.75986" lon="-0.21361">
        <ele>31</ele>
        <time>2017-05-23T13:42:58Z</time>
      </trkpt>
      <trkpt lat="44.75989" lon="-0.21367">
        <ele>31</ele>
        <time>2017-05-23T13:43:14Z</time>
      </trkpt>
      <trkpt lat="44.7599" lon="-0.21373">
        <ele>31</ele>
        <time>2017-05-23T13:43:14Z</time>
      </trkpt>
      <trkpt lat="44.75988" lon="-0.2138">
        <ele>30</ele>
        <time>2017-05-23T13:43:14Z</time>
      </trkpt>
      <trkpt lat="44.75987" lon="-0.21387">
        <ele>30</ele>
        <time>2017-05-23T13:43:14Z</time>
      </trkpt>
      <trkpt lat="44.75974" lon="-0.21411">
        <ele>30</ele>
        <time>2017-05-23T13:43:30Z</time>
      </trkpt>
      <trkpt lat="44.7597" lon="-0.2143">
        <ele>30</ele>
        <time>2017-05-23T13:43:46Z</time>
      </trkpt>
      <trkpt lat="44.75972" lon="-0.21436">
        <ele>30</ele>
        <time>2017-05-23T13:43:46Z</time>
      </trkpt>
      <trkpt lat="44.75971" lon="-0.21443">
        <ele>30</ele>
        <time>2017-05-23T13:43:46Z</time>
      </trkpt>
      <trkpt lat="44.75965" lon="-0.21466">
        <ele>31</ele>
        <time>2017-05-23T13:44:02Z</time>
      </trkpt>
      <trkpt lat="44.75965" lon="-0.21468">
        <ele>31</ele>
        <time>2017-05-23T13:44:22Z</time>
      </trkpt>
      <trkpt lat="44.75961" lon="-0.21478">
        <ele>31</ele>
        <time>2017-05-23T13:44:22Z</time>
      </trkpt>
      <trkpt lat="44.75959" lon="-0.21482">
        <ele>31</ele>
        <time>2017-05-23T13:44:22Z</time>
      </trkpt>
      <trkpt lat="44.75963" lon="-0.21487">
        <ele>31</ele>
        <time>2017-05-23T13:44:38Z</time>
      </trkpt>
      <trkpt lat="44.75968" lon="-0.21506">
        <ele>31</ele>
        <time>2017-05-23T13:44:54Z</time>
      </trkpt>
      <trkpt lat="44.75976" lon="-0.21515">
        <ele>31</ele>
        <time>2017-05-23T13:44:54Z</time>
      </trkpt>
      <trkpt lat="44.75981" lon="-0.21519">
        <ele>31</ele>
        <time>2017-05-23T13:45:10Z</time>
      </trkpt>
      <trkpt lat="44.75991" lon="-0.2153">
        <ele>31</ele>
        <time>2017-05-23T13:45:10Z</time>
      </trkpt>
      <trkpt lat="44.75994" lon="-0.21536">
        <ele>31</ele>
        <time>2017-05-23T13:45:10Z</time>
      </trkpt>
      <trkpt lat="44.75999" lon="-0.21542">
        <ele>31</ele>
        <time>2017-05-23T13:45:26Z</time>
      </trkpt>
      <trkpt lat="44.76005" lon="-0.21554">
        <ele>33</ele>
        <time>2017-05-23T13:45:26Z</time>
      </trkpt>
      <trkpt lat="44.76008" lon="-0.21551">
        <ele>33</ele>
        <time>2017-05-23T13:45:50Z</time>
      </trkpt>
      <trkpt lat="44.76013" lon="-0.21549">
        <ele>33</ele>
        <time>2017-05-23T13:45:50Z</time>
      </trkpt>
      <trkpt lat="44.76015" lon="-0.21546">
        <ele>33</ele>
        <time>2017-05-23T13:45:50Z</time>
      </trkpt>
      <trkpt lat="44.76023" lon="-0.21545">
        <ele>33</ele>
        <time>2017-05-23T13:46:06Z</time>
      </trkpt>
      <trkpt lat="44.76033" lon="-0.21535">
        <ele>31</ele>
        <time>2017-05-23T13:46:06Z</time>
      </trkpt>
      <trkpt lat="44.76035" lon="-0.21531">
        <ele>31</ele>
        <time>2017-05-23T13:46:22Z</time>
      </trkpt>
      <trkpt lat="44.76045" lon="-0.21527">
        <ele>32</ele>
        <time>2017-05-23T13:46:22Z</time>
      </trkpt>
      <trkpt lat="44.76052" lon="-0.21526">
        <ele>32</ele>
        <time>2017-05-23T13:46:22Z</time>
      </trkpt>
      <trkpt lat="44.76055" lon="-0.21523">
        <ele>32</ele>
        <time>2017-05-23T13:46:38Z</time>
      </trkpt>
      <trkpt lat="44.76063" lon="-0.21523">
        <ele>32</ele>
        <time>2017-05-23T13:46:38Z</time>
      </trkpt>
      <trkpt lat="44.76068" lon="-0.21525">
        <ele>32</ele>
        <time>2017-05-23T13:46:38Z</time>
      </trkpt>
      <trkpt lat="44.76073" lon="-0.21531">
        <ele>32</ele>
        <time>2017-05-23T13:46:54Z</time>
      </trkpt>
      <trkpt lat="44.76085" lon="-0.21555">
        <ele>36</ele>
        <time>2017-05-23T13:46:54Z</time>
      </trkpt>
      <trkpt lat="44.76087" lon="-0.21567">
        <ele>36</ele>
        <time>2017-05-23T13:48:10Z</time>
      </trkpt>
      <trkpt lat="44.76083" lon="-0.21566">
        <ele>36</ele>
        <time>2017-05-23T13:48:10Z</time>
      </trkpt>
      <trkpt lat="44.76089" lon="-0.21579">
        <ele>36</ele>
        <time>2017-05-23T13:48:26Z</time>
      </trkpt>
      <trkpt lat="44.76094" lon="-0.21591">
        <ele>36</ele>
        <time>2017-05-23T13:48:26Z</time>
      </trkpt>
      <trkpt lat="44.761" lon="-0.21602">
        <ele>36</ele>
        <time>2017-05-23T13:48:42Z</time>
      </trkpt>
      <trkpt lat="44.76107" lon="-0.21625">
        <ele>36</ele>
        <time>2017-05-23T13:49:02Z</time>
      </trkpt>
      <trkpt lat="44.76106" lon="-0.21624">
        <ele>36</ele>
        <time>2017-05-23T13:49:02Z</time>
      </trkpt>
      <trkpt lat="44.76105" lon="-0.21621">
        <ele>36</ele>
        <time>2017-05-23T13:49:02Z</time>
      </trkpt>
      <trkpt lat="44.76107" lon="-0.21605">
        <ele>36</ele>
        <time>2017-05-23T13:49:22Z</time>
      </trkpt>
      <trkpt lat="44.7611" lon="-0.21605">
        <ele>36</ele>
        <time>2017-05-23T13:49:22Z</time>
      </trkpt>
      <trkpt lat="44.76116" lon="-0.21594">
        <ele>36</ele>
        <time>2017-05-23T13:49:22Z</time>
      </trkpt>
      <trkpt lat="44.7612" lon="-0.2159">
        <ele>36</ele>
        <time>2017-05-23T13:49:38Z</time>
      </trkpt>
      <trkpt lat="44.76125" lon="-0.2159">
        <ele>36</ele>
        <time>2017-05-23T13:49:38Z</time>
      </trkpt>
      <trkpt lat="44.76135" lon="-0.21587">
        <ele>47</ele>
        <time>2017-05-23T13:49:38Z</time>
      </trkpt>
      <trkpt lat="44.76137" lon="-0.21585">
        <ele>47</ele>
        <time>2017-05-23T13:49:54Z</time>
      </trkpt>
      <trkpt lat="44.76143" lon="-0.21584">
        <ele>47</ele>
        <time>2017-05-23T13:49:54Z</time>
      </trkpt>
      <trkpt lat="44.76148" lon="-0.21582">
        <ele>47</ele>
        <time>2017-05-23T13:49:54Z</time>
      </trkpt>
      <trkpt lat="44.7615" lon="-0.21583">
        <ele>47</ele>
        <time>2017-05-23T13:50:18Z</time>
      </trkpt>
      <trkpt lat="44.76136" lon="-0.21587">
        <ele>47</ele>
        <time>2017-05-23T13:50:34Z</time>
      </trkpt>
      <trkpt lat="44.76168" lon="-0.21582">
        <ele>47</ele>
        <time>2017-05-23T13:50:34Z</time>
      </trkpt>
      <trkpt lat="44.76172" lon="-0.21583">
        <ele>47</ele>
        <time>2017-05-23T13:50:34Z</time>
      </trkpt>
      <trkpt lat="44.7618" lon="-0.21578">
        <ele>47</ele>
        <time>2017-05-23T13:50:50Z</time>
      </trkpt>
      <trkpt lat="44.76183" lon="-0.21573">
        <ele>47</ele>
        <time>2017-05-23T13:50:50Z</time>
      </trkpt>
      <trkpt lat="44.76184" lon="-0.21572">
        <ele>47</ele>
        <time>2017-05-23T13:50:50Z</time>
      </trkpt>
      <trkpt lat="44.76183" lon="-0.21569">
        <ele>47</ele>
        <time>2017-05-23T13:51:06Z</time>
      </trkpt>
      <trkpt lat="44.76186" lon="-0.21573">
        <ele>47</ele>
        <time>2017-05-23T13:51:06Z</time>
      </trkpt>
      <trkpt lat="44.762" lon="-0.2158">
        <ele>47</ele>
        <time>2017-05-23T13:51:22Z</time>
      </trkpt>
      <trkpt lat="44.76212" lon="-0.21572">
        <ele>53</ele>
        <time>2017-05-23T13:51:22Z</time>
      </trkpt>
      <trkpt lat="44.76213" lon="-0.21568">
        <ele>53</ele>
        <time>2017-05-23T13:51:38Z</time>
      </trkpt>
      <trkpt lat="44.76221" lon="-0.21555">
        <ele>53</ele>
        <time>2017-05-23T13:51:38Z</time>
      </trkpt>
      <trkpt lat="44.76227" lon="-0.21548">
        <ele>53</ele>
        <time>2017-05-23T13:51:38Z</time>
      </trkpt>
      <trkpt lat="44.76227" lon="-0.21542">
        <ele>53</ele>
        <time>2017-05-23T13:51:54Z</time>
      </trkpt>
      <trkpt lat="44.76232" lon="-0.21537">
        <ele>51</ele>
        <time>2017-05-23T13:51:54Z</time>
      </trkpt>
      <trkpt lat="44.76235" lon="-0.21532">
        <ele>51</ele>
        <time>2017-05-23T13:51:54Z</time>
      </trkpt>
      <trkpt lat="44.76242" lon="-0.21528">
        <ele>51</ele>
        <time>2017-05-23T13:52:10Z</time>
      </trkpt>
      <trkpt lat="44.76244" lon="-0.21534">
        <ele>51</ele>
        <time>2017-05-23T13:52:10Z</time>
      </trkpt>
      <trkpt lat="44.7625" lon="-0.21534">
        <ele>51</ele>
        <time>2017-05-23T13:52:10Z</time>
      </trkpt>
      <trkpt lat="44.76255" lon="-0.21531">
        <ele>51</ele>
        <time>2017-05-23T13:52:26Z</time>
      </trkpt>
      <trkpt lat="44.7626" lon="-0.21529">
        <ele>51</ele>
        <time>2017-05-23T13:52:26Z</time>
      </trkpt>
      <trkpt lat="44.76268" lon="-0.21515">
        <ele>51</ele>
        <time>2017-05-23T13:52:26Z</time>
      </trkpt>
      <trkpt lat="44.76273" lon="-0.2151">
        <ele>51</ele>
        <time>2017-05-23T13:52:42Z</time>
      </trkpt>
      <trkpt lat="44.76281" lon="-0.21505">
        <ele>51</ele>
        <time>2017-05-23T13:52:42Z</time>
      </trkpt>
      <trkpt lat="44.7629" lon="-0.2149">
        <ele>51</ele>
        <time>2017-05-23T13:52:58Z</time>
      </trkpt>
      <trkpt lat="44.76304" lon="-0.21478">
        <ele>52</ele>
        <time>2017-05-23T13:52:58Z</time>
      </trkpt>
      <trkpt lat="44.76308" lon="-0.21472">
        <ele>52</ele>
        <time>2017-05-23T13:53:14Z</time>
      </trkpt>
      <trkpt lat="44.76312" lon="-0.2147">
        <ele>52</ele>
        <time>2017-05-23T13:53:14Z</time>
      </trkpt>
      <trkpt lat="44.76317" lon="-0.21463">
        <ele>52</ele>
        <time>2017-05-23T13:53:14Z</time>
      </trkpt>
      <trkpt lat="44.7633" lon="-0.21457">
        <ele>43</ele>
        <time>2017-05-23T13:53:30Z</time>
      </trkpt>
      <trkpt lat="44.76332" lon="-0.21453">
        <ele>43</ele>
        <time>2017-05-23T13:53:30Z</time>
      </trkpt>
      <trkpt lat="44.76342" lon="-0.21442">
        <ele>43</ele>
        <time>2017-05-23T13:53:46Z</time>
      </trkpt>
      <trkpt lat="44.76345" lon="-0.2144">
        <ele>43</ele>
        <time>2017-05-23T13:53:46Z</time>
      </trkpt>
      <trkpt lat="44.76349" lon="-0.21439">
        <ele>43</ele>
        <time>2017-05-23T13:53:46Z</time>
      </trkpt>
      <trkpt lat="44.76353" lon="-0.21441">
        <ele>43</ele>
        <time>2017-05-23T13:54:02Z</time>
      </trkpt>
      <trkpt lat="44.76359" lon="-0.21439">
        <ele>43</ele>
        <time>2017-05-23T13:54:02Z</time>
      </trkpt>
      <trkpt lat="44.76367" lon="-0.21429">
        <ele>43</ele>
        <time>2017-05-23T13:54:02Z</time>
      </trkpt>
      <trkpt lat="44.76372" lon="-0.21419">
        <ele>43</ele>
        <time>2017-05-23T13:54:18Z</time>
      </trkpt>
      <trkpt lat="44.76383" lon="-0.21406">
        <ele>41</ele>
        <time>2017-05-23T13:54:34Z</time>
      </trkpt>
      <trkpt lat="44.76386" lon="-0.21398">
        <ele>41</ele>
        <time>2017-05-23T13:54:34Z</time>
      </trkpt>
      <trkpt lat="44.76391" lon="-0.21391">
        <ele>41</ele>
        <time>2017-05-23T13:54:34Z</time>
      </trkpt>
      <trkpt lat="44.76394" lon="-0.21382">
        <ele>41</ele>
        <time>2017-05-23T13:54:50Z</time>
      </trkpt>
      <trkpt lat="44.764" lon="-0.2138">
        <ele>41</ele>
        <time>2017-05-23T13:54:50Z</time>
      </trkpt>
      <trkpt lat="44.76408" lon="-0.21381">
        <ele>41</ele>
        <time>2017-05-23T13:54:50Z</time>
      </trkpt>
      <trkpt lat="44.76419" lon="-0.21387">
        <ele>41</ele>
        <time>2017-05-23T13:55:06Z</time>
      </trkpt>
      <trkpt lat="44.76422" lon="-0.21387">
        <ele>41</ele>
        <time>2017-05-23T13:55:06Z</time>
      </trkpt>
      <trkpt lat="44.76431" lon="-0.21396">
        <ele>41</ele>
        <time>2017-05-23T13:55:22Z</time>
      </trkpt>
      <trkpt lat="44.76437" lon="-0.21411">
        <ele>41</ele>
        <time>2017-05-23T13:55:38Z</time>
      </trkpt>
      <trkpt lat="44.76442" lon="-0.21418">
        <ele>41</ele>
        <time>2017-05-23T13:55:38Z</time>
      </trkpt>
      <trkpt lat="44.76449" lon="-0.21425">
        <ele>41</ele>
        <time>2017-05-23T13:55:54Z</time>
      </trkpt>
      <trkpt lat="44.76451" lon="-0.21433">
        <ele>41</ele>
        <time>2017-05-23T13:55:54Z</time>
      </trkpt>
      <trkpt lat="44.76456" lon="-0.21438">
        <ele>41</ele>
        <time>2017-05-23T13:56:10Z</time>
      </trkpt>
      <trkpt lat="44.76464" lon="-0.21452">
        <ele>54</ele>
        <time>2017-05-23T13:56:10Z</time>
      </trkpt>
      <trkpt lat="44.76474" lon="-0.21463">
        <ele>50</ele>
        <time>2017-05-23T13:56:26Z</time>
      </trkpt>
      <trkpt lat="44.7648" lon="-0.21475">
        <ele>50</ele>
        <time>2017-05-23T13:56:26Z</time>
      </trkpt>
      <trkpt lat="44.76483" lon="-0.21486">
        <ele>50</ele>
        <time>2017-05-23T13:56:26Z</time>
      </trkpt>
      <trkpt lat="44.76485" lon="-0.21497">
        <ele>50</ele>
        <time>2017-05-23T13:56:26Z</time>
      </trkpt>
      <trkpt lat="44.76484" lon="-0.21516">
        <ele>50</ele>
        <time>2017-05-23T13:56:42Z</time>
      </trkpt>
      <trkpt lat="44.76482" lon="-0.21523">
        <ele>50</ele>
        <time>2017-05-23T13:56:42Z</time>
      </trkpt>
      <trkpt lat="44.7648" lon="-0.21531">
        <ele>50</ele>
        <time>2017-05-23T13:56:58Z</time>
      </trkpt>
      <trkpt lat="44.76481" lon="-0.21536">
        <ele>50</ele>
        <time>2017-05-23T13:56:58Z</time>
      </trkpt>
      <trkpt lat="44.76481" lon="-0.21542">
        <ele>51</ele>
        <time>2017-05-23T13:56:58Z</time>
      </trkpt>
      <trkpt lat="44.76483" lon="-0.21546">
        <ele>51</ele>
        <time>2017-05-23T13:56:58Z</time>
      </trkpt>
      <trkpt lat="44.76487" lon="-0.21551">
        <ele>51</ele>
        <time>2017-05-23T13:57:18Z</time>
      </trkpt>
      <trkpt lat="44.76487" lon="-0.21554">
        <ele>51</ele>
        <time>2017-05-23T13:57:18Z</time>
      </trkpt>
      <trkpt lat="44.76494" lon="-0.21563">
        <ele>51</ele>
        <time>2017-05-23T13:57:34Z</time>
      </trkpt>
      <trkpt lat="44.7651" lon="-0.21577">
        <ele>51</ele>
        <time>2017-05-23T13:57:34Z</time>
      </trkpt>
      <trkpt lat="44.76514" lon="-0.21582">
        <ele>51</ele>
        <time>2017-05-23T13:57:50Z</time>
      </trkpt>
      <trkpt lat="44.76521" lon="-0.21587">
        <ele>51</ele>
        <time>2017-05-23T13:57:50Z</time>
      </trkpt>
      <trkpt lat="44.76539" lon="-0.21595">
        <ele>51</ele>
        <time>2017-05-23T13:58:06Z</time>
      </trkpt>
      <trkpt lat="44.76544" lon="-0.21594">
        <ele>58</ele>
        <time>2017-05-23T13:58:06Z</time>
      </trkpt>
      <trkpt lat="44.76548" lon="-0.21591">
        <ele>58</ele>
        <time>2017-05-23T13:58:22Z</time>
      </trkpt>
      <trkpt lat="44.76555" lon="-0.21583">
        <ele>58</ele>
        <time>2017-05-23T13:58:22Z</time>
      </trkpt>
      <trkpt lat="44.7656" lon="-0.21567">
        <ele>58</ele>
        <time>2017-05-23T13:58:38Z</time>
      </trkpt>
      <trkpt lat="44.76568" lon="-0.21558">
        <ele>58</ele>
        <time>2017-05-23T13:58:38Z</time>
      </trkpt>
      <trkpt lat="44.76579" lon="-0.21548">
        <ele>58</ele>
        <time>2017-05-23T13:58:54Z</time>
      </trkpt>
      <trkpt lat="44.76583" lon="-0.21544">
        <ele>58</ele>
        <time>2017-05-23T13:58:54Z</time>
      </trkpt>
      <trkpt lat="44.76587" lon="-0.21543">
        <ele>58</ele>
        <time>2017-05-23T13:59:10Z</time>
      </trkpt>
      <trkpt lat="44.76608" lon="-0.21523">
        <ele>57</ele>
        <time>2017-05-23T13:59:26Z</time>
      </trkpt>
      <trkpt lat="44.76622" lon="-0.21512">
        <ele>57</ele>
        <time>2017-05-23T13:59:42Z</time>
      </trkpt>
      <trkpt lat="44.7663" lon="-0.21502">
        <ele>61</ele>
        <time>2017-05-23T13:59:42Z</time>
      </trkpt>
      <trkpt lat="44.76635" lon="-0.21497">
        <ele>61</ele>
        <time>2017-05-23T13:59:58Z</time>
      </trkpt>
      <trkpt lat="44.76637" lon="-0.2149">
        <ele>61</ele>
        <time>2017-05-23T13:59:58Z</time>
      </trkpt>
      <trkpt lat="44.76642" lon="-0.21487">
        <ele>61</ele>
        <time>2017-05-23T13:59:58Z</time>
      </trkpt>
      <trkpt lat="44.76646" lon="-0.21482">
        <ele>61</ele>
        <time>2017-05-23T13:59:58Z</time>
      </trkpt>
      <trkpt lat="44.76648" lon="-0.2148">
        <ele>61</ele>
        <time>2017-05-23T14:00:14Z</time>
      </trkpt>
      <trkpt lat="44.76652" lon="-0.21476">
        <ele>61</ele>
        <time>2017-05-23T14:00:14Z</time>
      </trkpt>
      <trkpt lat="44.76654" lon="-0.21469">
        <ele>61</ele>
        <time>2017-05-23T14:00:14Z</time>
      </trkpt>
      <trkpt lat="44.76668" lon="-0.21463">
        <ele>61</ele>
        <time>2017-05-23T14:00:30Z</time>
      </trkpt>
      <trkpt lat="44.76671" lon="-0.21458">
        <ele>61</ele>
        <time>2017-05-23T14:00:30Z</time>
      </trkpt>
      <trkpt lat="44.76676" lon="-0.21456">
        <ele>61</ele>
        <time>2017-05-23T14:00:30Z</time>
      </trkpt>
      <trkpt lat="44.76692" lon="-0.21446">
        <ele>61</ele>
        <time>2017-05-23T14:00:46Z</time>
      </trkpt>
      <trkpt lat="44.76697" lon="-0.21442">
        <ele>61</ele>
        <time>2017-05-23T14:00:46Z</time>
      </trkpt>
      <trkpt lat="44.76707" lon="-0.21435">
        <ele>61</ele>
        <time>2017-05-23T14:01:02Z</time>
      </trkpt>
      <trkpt lat="44.76711" lon="-0.2143">
        <ele>64</ele>
        <time>2017-05-23T14:01:02Z</time>
      </trkpt>
      <trkpt lat="44.76716" lon="-0.21427">
        <ele>64</ele>
        <time>2017-05-23T14:01:02Z</time>
      </trkpt>
      <trkpt lat="44.76721" lon="-0.21425">
        <ele>64</ele>
        <time>2017-05-23T14:01:18Z</time>
      </trkpt>
      <trkpt lat="44.76725" lon="-0.2142">
        <ele>64</ele>
        <time>2017-05-23T14:01:18Z</time>
      </trkpt>
      <trkpt lat="44.7673" lon="-0.21418">
        <ele>64</ele>
        <time>2017-05-23T14:01:18Z</time>
      </trkpt>
      <trkpt lat="44.76734" lon="-0.21412">
        <ele>64</ele>
        <time>2017-05-23T14:01:18Z</time>
      </trkpt>
      <trkpt lat="44.76739" lon="-0.21409">
        <ele>64</ele>
        <time>2017-05-23T14:01:34Z</time>
      </trkpt>
      <trkpt lat="44.76742" lon="-0.21405">
        <ele>64</ele>
        <time>2017-05-23T14:01:34Z</time>
      </trkpt>
      <trkpt lat="44.76745" lon="-0.21404">
        <ele>64</ele>
        <time>2017-05-23T14:01:34Z</time>
      </trkpt>
      <trkpt lat="44.76759" lon="-0.2139">
        <ele>64</ele>
        <time>2017-05-23T14:01:50Z</time>
      </trkpt>
      <trkpt lat="44.76767" lon="-0.21386">
        <ele>64</ele>
        <time>2017-05-23T14:01:50Z</time>
      </trkpt>
      <trkpt lat="44.76771" lon="-0.21379">
        <ele>64</ele>
        <time>2017-05-23T14:02:06Z</time>
      </trkpt>
      <trkpt lat="44.76785" lon="-0.21376">
        <ele>64</ele>
        <time>2017-05-23T14:02:06Z</time>
      </trkpt>
      <trkpt lat="44.7679" lon="-0.21371">
        <ele>66</ele>
        <time>2017-05-23T14:02:06Z</time>
      </trkpt>
      <trkpt lat="44.76794" lon="-0.21363">
        <ele>71</ele>
        <time>2017-05-23T14:02:22Z</time>
      </trkpt>
      <trkpt lat="44.768" lon="-0.21366">
        <ele>71</ele>
        <time>2017-05-23T14:02:22Z</time>
      </trkpt>
      <trkpt lat="44.76805" lon="-0.21366">
        <ele>71</ele>
        <time>2017-05-23T14:02:22Z</time>
      </trkpt>
      <trkpt lat="44.76816" lon="-0.21368">
        <ele>71</ele>
        <time>2017-05-23T14:02:38Z</time>
      </trkpt>
      <trkpt lat="44.7682" lon="-0.21362">
        <ele>71</ele>
        <time>2017-05-23T14:02:38Z</time>
      </trkpt>
      <trkpt lat="44.76825" lon="-0.21361">
        <ele>71</ele>
        <time>2017-05-23T14:02:38Z</time>
      </trkpt>
      <trkpt lat="44.76836" lon="-0.21351">
        <ele>71</ele>
        <time>2017-05-23T14:02:54Z</time>
      </trkpt>
      <trkpt lat="44.76841" lon="-0.21355">
        <ele>71</ele>
        <time>2017-05-23T14:02:54Z</time>
      </trkpt>
      <trkpt lat="44.76861" lon="-0.21348">
        <ele>71</ele>
        <time>2017-05-23T14:03:10Z</time>
      </trkpt>
      <trkpt lat="44.76865" lon="-0.21349">
        <ele>71</ele>
        <time>2017-05-23T14:03:26Z</time>
      </trkpt>
      <trkpt lat="44.76868" lon="-0.21345">
        <ele>71</ele>
        <time>2017-05-23T14:03:26Z</time>
      </trkpt>
      <trkpt lat="44.76873" lon="-0.21344">
        <ele>71</ele>
        <time>2017-05-23T14:03:26Z</time>
      </trkpt>
      <trkpt lat="44.76881" lon="-0.21347">
        <ele>75</ele>
        <time>2017-05-23T14:03:26Z</time>
      </trkpt>
      <trkpt lat="44.76892" lon="-0.21356">
        <ele>75</ele>
        <time>2017-05-23T14:03:42Z</time>
      </trkpt>
      <trkpt lat="44.76908" lon="-0.21365">
        <ele>75</ele>
        <time>2017-05-23T14:03:58Z</time>
      </trkpt>
      <trkpt lat="44.76913" lon="-0.21366">
        <ele>75</ele>
        <time>2017-05-23T14:03:58Z</time>
      </trkpt>
      <trkpt lat="44.76921" lon="-0.21364">
        <ele>75</ele>
        <time>2017-05-23T14:03:58Z</time>
      </trkpt>
      <trkpt lat="44.7693" lon="-0.2136">
        <ele>75</ele>
        <time>2017-05-23T14:04:14Z</time>
      </trkpt>
      <trkpt lat="44.76934" lon="-0.21356">
        <ele>75</ele>
        <time>2017-05-23T14:04:14Z</time>
      </trkpt>
      <trkpt lat="44.76958" lon="-0.21352">
        <ele>75</ele>
        <time>2017-05-23T14:04:30Z</time>
      </trkpt>
      <trkpt lat="44.76969" lon="-0.21346">
        <ele>76</ele>
        <time>2017-05-23T14:04:46Z</time>
      </trkpt>
      <trkpt lat="44.76987" lon="-0.21331">
        <ele>76</ele>
        <time>2017-05-23T14:05:02Z</time>
      </trkpt>
      <trkpt lat="44.76997" lon="-0.21326">
        <ele>76</ele>
        <time>2017-05-23T14:05:02Z</time>
      </trkpt>
      <trkpt lat="44.77006" lon="-0.21319">
        <ele>76</ele>
        <time>2017-05-23T14:05:18Z</time>
      </trkpt>
      <trkpt lat="44.77015" lon="-0.21316">
        <ele>76</ele>
        <time>2017-05-23T14:05:18Z</time>
      </trkpt>
      <trkpt lat="44.7702" lon="-0.21312">
        <ele>76</ele>
        <time>2017-05-23T14:05:18Z</time>
      </trkpt>
      <trkpt lat="44.77038" lon="-0.21304">
        <ele>76</ele>
        <time>2017-05-23T14:05:34Z</time>
      </trkpt>
      <trkpt lat="44.77041" lon="-0.21298">
        <ele>76</ele>
        <time>2017-05-23T14:05:50Z</time>
      </trkpt>
      <trkpt lat="44.77044" lon="-0.21293">
        <ele>77</ele>
        <time>2017-05-23T14:05:50Z</time>
      </trkpt>
      <trkpt lat="44.77046" lon="-0.21287">
        <ele>73</ele>
        <time>2017-05-23T14:05:50Z</time>
      </trkpt>
      <trkpt lat="44.77046" lon="-0.21281">
        <ele>73</ele>
        <time>2017-05-23T14:05:50Z</time>
      </trkpt>
      <trkpt lat="44.77037" lon="-0.21261">
        <ele>78</ele>
        <time>2017-05-23T14:06:06Z</time>
      </trkpt>
      <trkpt lat="44.77035" lon="-0.21255">
        <ele>78</ele>
        <time>2017-05-23T14:06:22Z</time>
      </trkpt>
      <trkpt lat="44.77029" lon="-0.21246">
        <ele>78</ele>
        <time>2017-05-23T14:06:22Z</time>
      </trkpt>
      <trkpt lat="44.77028" lon="-0.21239">
        <ele>78</ele>
        <time>2017-05-23T14:06:22Z</time>
      </trkpt>
      <trkpt lat="44.7703" lon="-0.21231">
        <ele>78</ele>
        <time>2017-05-23T14:06:38Z</time>
      </trkpt>
      <trkpt lat="44.77028" lon="-0.21206">
        <ele>77</ele>
        <time>2017-05-23T14:06:54Z</time>
      </trkpt>
      <trkpt lat="44.77032" lon="-0.21194">
        <ele>77</ele>
        <time>2017-05-23T14:06:54Z</time>
      </trkpt>
      <trkpt lat="44.77035" lon="-0.2119">
        <ele>77</ele>
        <time>2017-05-23T14:06:54Z</time>
      </trkpt>
      <trkpt lat="44.77047" lon="-0.21187">
        <ele>71</ele>
        <time>2017-05-23T14:07:10Z</time>
      </trkpt>
      <trkpt lat="44.77051" lon="-0.21188">
        <ele>71</ele>
        <time>2017-05-23T14:07:10Z</time>
      </trkpt>
      <trkpt lat="44.77059" lon="-0.21194">
        <ele>71</ele>
        <time>2017-05-23T14:07:30Z</time>
      </trkpt>
      <trkpt lat="44.77061" lon="-0.21194">
        <ele>71</ele>
        <time>2017-05-23T14:07:30Z</time>
      </trkpt>
      <trkpt lat="44.77078" lon="-0.21213">
        <ele>73</ele>
        <time>2017-05-23T14:07:46Z</time>
      </trkpt>
      <trkpt lat="44.77094" lon="-0.21228">
        <ele>73</ele>
        <time>2017-05-23T14:08:02Z</time>
      </trkpt>
      <trkpt lat="44.771" lon="-0.21237">
        <ele>73</ele>
        <time>2017-05-23T14:08:18Z</time>
      </trkpt>
      <trkpt lat="44.77104" lon="-0.21245">
        <ele>73</ele>
        <time>2017-05-23T14:08:18Z</time>
      </trkpt>
      <trkpt lat="44.77116" lon="-0.21262">
        <ele>73</ele>
        <time>2017-05-23T14:08:34Z</time>
      </trkpt>
      <trkpt lat="44.7713" lon="-0.21284">
        <ele>73</ele>
        <time>2017-05-23T14:08:50Z</time>
      </trkpt>
      <trkpt lat="44.77134" lon="-0.21289">
        <ele>73</ele>
        <time>2017-05-23T14:08:50Z</time>
      </trkpt>
      <trkpt lat="44.7714" lon="-0.21299">
        <ele>76</ele>
        <time>2017-05-23T14:08:50Z</time>
      </trkpt>
      <trkpt lat="44.77141" lon="-0.21303">
        <ele>76</ele>
        <time>2017-05-23T14:09:06Z</time>
      </trkpt>
      <trkpt lat="44.77152" lon="-0.21318">
        <ele>76</ele>
        <time>2017-05-23T14:09:06Z</time>
      </trkpt>
      <trkpt lat="44.77161" lon="-0.21338">
        <ele>76</ele>
        <time>2017-05-23T14:09:22Z</time>
      </trkpt>
      <trkpt lat="44.77167" lon="-0.21342">
        <ele>76</ele>
        <time>2017-05-23T14:09:58Z</time>
      </trkpt>
      <trkpt lat="44.7717" lon="-0.21348">
        <ele>76</ele>
        <time>2017-05-23T14:09:58Z</time>
      </trkpt>
      <trkpt lat="44.77175" lon="-0.21353">
        <ele>76</ele>
        <time>2017-05-23T14:09:58Z</time>
      </trkpt>
      <trkpt lat="44.77186" lon="-0.21371">
        <ele>76</ele>
        <time>2017-05-23T14:09:58Z</time>
      </trkpt>
      <trkpt lat="44.77192" lon="-0.21384">
        <ele>79</ele>
        <time>2017-05-23T14:10:14Z</time>
      </trkpt>
      <trkpt lat="44.77193" lon="-0.2139">
        <ele>79</ele>
        <time>2017-05-23T14:10:14Z</time>
      </trkpt>
      <trkpt lat="44.77195" lon="-0.21393">
        <ele>79</ele>
        <time>2017-05-23T14:10:14Z</time>
      </trkpt>
      <trkpt lat="44.77198" lon="-0.21395">
        <ele>79</ele>
        <time>2017-05-23T14:10:30Z</time>
      </trkpt>
      <trkpt lat="44.77201" lon="-0.214">
        <ele>79</ele>
        <time>2017-05-23T14:10:30Z</time>
      </trkpt>
      <trkpt lat="44.77209" lon="-0.21422">
        <ele>75</ele>
        <time>2017-05-23T14:10:46Z</time>
      </trkpt>
      <trkpt lat="44.77212" lon="-0.21424">
        <ele>75</ele>
        <time>2017-05-23T14:10:46Z</time>
      </trkpt>
      <trkpt lat="44.77221" lon="-0.2145">
        <ele>75</ele>
        <time>2017-05-23T14:11:02Z</time>
      </trkpt>
      <trkpt lat="44.77227" lon="-0.21456">
        <ele>75</ele>
        <time>2017-05-23T14:11:18Z</time>
      </trkpt>
      <trkpt lat="44.77236" lon="-0.21475">
        <ele>81</ele>
        <time>2017-05-23T14:11:18Z</time>
      </trkpt>
      <trkpt lat="44.77238" lon="-0.21481">
        <ele>81</ele>
        <time>2017-05-23T14:11:38Z</time>
      </trkpt>
      <trkpt lat="44.77241" lon="-0.21485">
        <ele>81</ele>
        <time>2017-05-23T14:11:38Z</time>
      </trkpt>
      <trkpt lat="44.7724" lon="-0.21488">
        <ele>81</ele>
        <time>2017-05-23T14:11:38Z</time>
      </trkpt>
      <trkpt lat="44.77238" lon="-0.21488">
        <ele>81</ele>
        <time>2017-05-23T14:11:38Z</time>
      </trkpt>
      <trkpt lat="44.77242" lon="-0.21494">
        <ele>81</ele>
        <time>2017-05-23T14:11:38Z</time>
      </trkpt>
      <trkpt lat="44.77249" lon="-0.21501">
        <ele>81</ele>
        <time>2017-05-23T14:11:54Z</time>
      </trkpt>
      <trkpt lat="44.77253" lon="-0.2151">
        <ele>81</ele>
        <time>2017-05-23T14:11:54Z</time>
      </trkpt>
      <trkpt lat="44.77258" lon="-0.21526">
        <ele>81</ele>
        <time>2017-05-23T14:11:54Z</time>
      </trkpt>
      <trkpt lat="44.77252" lon="-0.21543">
        <ele>81</ele>
        <time>2017-05-23T14:12:10Z</time>
      </trkpt>
      <trkpt lat="44.7725" lon="-0.21555">
        <ele>81</ele>
        <time>2017-05-23T14:12:10Z</time>
      </trkpt>
      <trkpt lat="44.77244" lon="-0.21566">
        <ele>81</ele>
        <time>2017-05-23T14:12:26Z</time>
      </trkpt>
      <trkpt lat="44.7724" lon="-0.21569">
        <ele>81</ele>
        <time>2017-05-23T14:12:26Z</time>
      </trkpt>
      <trkpt lat="44.7724" lon="-0.21575">
        <ele>81</ele>
        <time>2017-05-23T14:12:26Z</time>
      </trkpt>
      <trkpt lat="44.77237" lon="-0.21581">
        <ele>81</ele>
        <time>2017-05-23T14:12:26Z</time>
      </trkpt>
      <trkpt lat="44.77232" lon="-0.21585">
        <ele>81</ele>
        <time>2017-05-23T14:12:42Z</time>
      </trkpt>
      <trkpt lat="44.77227" lon="-0.21592">
        <ele>81</ele>
        <time>2017-05-23T14:12:42Z</time>
      </trkpt>
      <trkpt lat="44.77227" lon="-0.21597">
        <ele>81</ele>
        <time>2017-05-23T14:12:42Z</time>
      </trkpt>
      <trkpt lat="44.77223" lon="-0.21603">
        <ele>81</ele>
        <time>2017-05-23T14:12:42Z</time>
      </trkpt>
      <trkpt lat="44.77212" lon="-0.21608">
        <ele>81</ele>
        <time>2017-05-23T14:12:58Z</time>
      </trkpt>
      <trkpt lat="44.77201" lon="-0.21611">
        <ele>81</ele>
        <time>2017-05-23T14:12:58Z</time>
      </trkpt>
      <trkpt lat="44.77185" lon="-0.21627">
        <ele>80</ele>
        <time>2017-05-23T14:13:14Z</time>
      </trkpt>
      <trkpt lat="44.77183" lon="-0.21634">
        <ele>80</ele>
        <time>2017-05-23T14:13:30Z</time>
      </trkpt>
      <trkpt lat="44.77174" lon="-0.21647">
        <ele>80</ele>
        <time>2017-05-23T14:13:30Z</time>
      </trkpt>
      <trkpt lat="44.77172" lon="-0.21651">
        <ele>80</ele>
        <time>2017-05-23T14:13:46Z</time>
      </trkpt>
      <trkpt lat="44.77174" lon="-0.21658">
        <ele>80</ele>
        <time>2017-05-23T14:13:46Z</time>
      </trkpt>
      <trkpt lat="44.77182" lon="-0.21669">
        <ele>80</ele>
        <time>2017-05-23T14:13:46Z</time>
      </trkpt>
      <trkpt lat="44.77184" lon="-0.21676">
        <ele>80</ele>
        <time>2017-05-23T14:14:02Z</time>
      </trkpt>
      <trkpt lat="44.77193" lon="-0.21684">
        <ele>80</ele>
        <time>2017-05-23T14:14:02Z</time>
      </trkpt>
      <trkpt lat="44.77197" lon="-0.2169">
        <ele>80</ele>
        <time>2017-05-23T14:14:02Z</time>
      </trkpt>
      <trkpt lat="44.772" lon="-0.21702">
        <ele>80</ele>
        <time>2017-05-23T14:14:18Z</time>
      </trkpt>
      <trkpt lat="44.77199" lon="-0.21708">
        <ele>80</ele>
        <time>2017-05-23T14:14:18Z</time>
      </trkpt>
      <trkpt lat="44.772" lon="-0.21714">
        <ele>80</ele>
        <time>2017-05-23T14:14:18Z</time>
      </trkpt>
      <trkpt lat="44.77202" lon="-0.21719">
        <ele>80</ele>
        <time>2017-05-23T14:14:34Z</time>
      </trkpt>
      <trkpt lat="44.77208" lon="-0.21725">
        <ele>80</ele>
        <time>2017-05-23T14:14:34Z</time>
      </trkpt>
      <trkpt lat="44.77212" lon="-0.21733">
        <ele>84</ele>
        <time>2017-05-23T14:14:34Z</time>
      </trkpt>
      <trkpt lat="44.77215" lon="-0.21742">
        <ele>84</ele>
        <time>2017-05-23T14:14:50Z</time>
      </trkpt>
      <trkpt lat="44.77218" lon="-0.2176">
        <ele>84</ele>
        <time>2017-05-23T14:14:50Z</time>
      </trkpt>
      <trkpt lat="44.77222" lon="-0.21766">
        <ele>84</ele>
        <time>2017-05-23T14:15:06Z</time>
      </trkpt>
      <trkpt lat="44.77228" lon="-0.21786">
        <ele>84</ele>
        <time>2017-05-23T14:15:06Z</time>
      </trkpt>
      <trkpt lat="44.7723" lon="-0.21808">
        <ele>82</ele>
        <time>2017-05-23T14:15:22Z</time>
      </trkpt>
      <trkpt lat="44.77241" lon="-0.21825">
        <ele>82</ele>
        <time>2017-05-23T14:15:38Z</time>
      </trkpt>
      <trkpt lat="44.77247" lon="-0.21837">
        <ele>82</ele>
        <time>2017-05-23T14:15:54Z</time>
      </trkpt>
      <trkpt lat="44.77275" lon="-0.21884">
        <ele>79</ele>
        <time>2017-05-23T14:16:26Z</time>
      </trkpt>
      <trkpt lat="44.77279" lon="-0.21894">
        <ele>79</ele>
        <time>2017-05-23T14:16:26Z</time>
      </trkpt>
      <trkpt lat="44.77288" lon="-0.21908">
        <ele>79</ele>
        <time>2017-05-23T14:16:42Z</time>
      </trkpt>
      <trkpt lat="44.77296" lon="-0.21917">
        <ele>85</ele>
        <time>2017-05-23T14:16:58Z</time>
      </trkpt>
      <trkpt lat="44.77301" lon="-0.21929">
        <ele>85</ele>
        <time>2017-05-23T14:16:58Z</time>
      </trkpt>
      <trkpt lat="44.77303" lon="-0.21937">
        <ele>85</ele>
        <time>2017-05-23T14:16:58Z</time>
      </trkpt>
      <trkpt lat="44.77303" lon="-0.2195">
        <ele>85</ele>
        <time>2017-05-23T14:17:14Z</time>
      </trkpt>
      <trkpt lat="44.7731" lon="-0.21968">
        <ele>85</ele>
        <time>2017-05-23T14:17:30Z</time>
      </trkpt>
      <trkpt lat="44.7731" lon="-0.21974">
        <ele>85</ele>
        <time>2017-05-23T14:17:30Z</time>
      </trkpt>
      <trkpt lat="44.77311" lon="-0.2198">
        <ele>85</ele>
        <time>2017-05-23T14:17:30Z</time>
      </trkpt>
      <trkpt lat="44.77318" lon="-0.21994">
        <ele>85</ele>
        <time>2017-05-23T14:17:46Z</time>
      </trkpt>
      <trkpt lat="44.77319" lon="-0.22001">
        <ele>85</ele>
        <time>2017-05-23T14:17:46Z</time>
      </trkpt>
      <trkpt lat="44.77322" lon="-0.22008">
        <ele>85</ele>
        <time>2017-05-23T14:17:46Z</time>
      </trkpt>
      <trkpt lat="44.77329" lon="-0.22018">
        <ele>85</ele>
        <time>2017-05-23T14:18:22Z</time>
      </trkpt>
      <trkpt lat="44.77335" lon="-0.22012">
        <ele>85</ele>
        <time>2017-05-23T14:18:22Z</time>
      </trkpt>
      <trkpt lat="44.77341" lon="-0.22014">
        <ele>85</ele>
        <time>2017-05-23T14:18:22Z</time>
      </trkpt>
      <trkpt lat="44.77353" lon="-0.22039">
        <ele>85</ele>
        <time>2017-05-23T14:18:54Z</time>
      </trkpt>
      <trkpt lat="44.77356" lon="-0.2206">
        <ele>85</ele>
        <time>2017-05-23T14:18:54Z</time>
      </trkpt>
      <trkpt lat="44.77358" lon="-0.22066">
        <ele>85</ele>
        <time>2017-05-23T14:19:14Z</time>
      </trkpt>
      <trkpt lat="44.77356" lon="-0.22069">
        <ele>85</ele>
        <time>2017-05-23T14:19:14Z</time>
      </trkpt>
      <trkpt lat="44.77356" lon="-0.22075">
        <ele>85</ele>
        <time>2017-05-23T14:19:14Z</time>
      </trkpt>
      <trkpt lat="44.77358" lon="-0.22081">
        <ele>85</ele>
        <time>2017-05-23T14:19:14Z</time>
      </trkpt>
      <trkpt lat="44.77357" lon="-0.22088">
        <ele>85</ele>
        <time>2017-05-23T14:19:30Z</time>
      </trkpt>
      <trkpt lat="44.77364" lon="-0.22094">
        <ele>85</ele>
        <time>2017-05-23T14:19:30Z</time>
      </trkpt>
      <trkpt lat="44.77367" lon="-0.22101">
        <ele>85</ele>
        <time>2017-05-23T14:19:30Z</time>
      </trkpt>
      <trkpt lat="44.77369" lon="-0.2211">
        <ele>85</ele>
        <time>2017-05-23T14:19:30Z</time>
      </trkpt>
      <trkpt lat="44.77368" lon="-0.22119">
        <ele>85</ele>
        <time>2017-05-23T14:19:46Z</time>
      </trkpt>
      <trkpt lat="44.77364" lon="-0.22124">
        <ele>85</ele>
        <time>2017-05-23T14:19:46Z</time>
      </trkpt>
      <trkpt lat="44.77364" lon="-0.22133">
        <ele>89</ele>
        <time>2017-05-23T14:19:46Z</time>
      </trkpt>
      <trkpt lat="44.77366" lon="-0.22141">
        <ele>89</ele>
        <time>2017-05-23T14:20:02Z</time>
      </trkpt>
      <trkpt lat="44.77364" lon="-0.22151">
        <ele>89</ele>
        <time>2017-05-23T14:20:02Z</time>
      </trkpt>
      <trkpt lat="44.77366" lon="-0.22172">
        <ele>89</ele>
        <time>2017-05-23T14:20:18Z</time>
      </trkpt>
      <trkpt lat="44.77363" lon="-0.22176">
        <ele>89</ele>
        <time>2017-05-23T14:20:18Z</time>
      </trkpt>
      <trkpt lat="44.77364" lon="-0.22187">
        <ele>89</ele>
        <time>2017-05-23T14:20:18Z</time>
      </trkpt>
      <trkpt lat="44.77361" lon="-0.22197">
        <ele>89</ele>
        <time>2017-05-23T14:20:42Z</time>
      </trkpt>
      <trkpt lat="44.77364" lon="-0.222">
        <ele>89</ele>
        <time>2017-05-23T14:20:43Z</time>
      </trkpt>
      <trkpt lat="44.77362" lon="-0.22208">
        <ele>89</ele>
        <time>2017-05-23T14:20:43Z</time>
      </trkpt>
      <trkpt lat="44.77362" lon="-0.22232">
        <ele>91</ele>
        <time>2017-05-23T14:20:58Z</time>
      </trkpt>
      <trkpt lat="44.77369" lon="-0.22253">
        <ele>91</ele>
        <time>2017-05-23T14:21:30Z</time>
      </trkpt>
      <trkpt lat="44.77361" lon="-0.22258">
        <ele>91</ele>
        <time>2017-05-23T14:21:30Z</time>
      </trkpt>
      <trkpt lat="44.7736" lon="-0.22262">
        <ele>91</ele>
        <time>2017-05-23T14:21:30Z</time>
      </trkpt>
      <trkpt lat="44.77356" lon="-0.22266">
        <ele>91</ele>
        <time>2017-05-23T14:21:46Z</time>
      </trkpt>
      <trkpt lat="44.77354" lon="-0.22271">
        <ele>91</ele>
        <time>2017-05-23T14:21:46Z</time>
      </trkpt>
      <trkpt lat="44.7735" lon="-0.22274">
        <ele>91</ele>
        <time>2017-05-23T14:21:46Z</time>
      </trkpt>
      <trkpt lat="44.77337" lon="-0.22279">
        <ele>91</ele>
        <time>2017-05-23T14:22:02Z</time>
      </trkpt>
      <trkpt lat="44.77332" lon="-0.22283">
        <ele>91</ele>
        <time>2017-05-23T14:22:02Z</time>
      </trkpt>
      <trkpt lat="44.77321" lon="-0.22286">
        <ele>91</ele>
        <time>2017-05-23T14:22:02Z</time>
      </trkpt>
      <trkpt lat="44.77319" lon="-0.22291">
        <ele>91</ele>
        <time>2017-05-23T14:22:02Z</time>
      </trkpt>
      <trkpt lat="44.773" lon="-0.22299">
        <ele>91</ele>
        <time>2017-05-23T14:22:18Z</time>
      </trkpt>
      <trkpt lat="44.77295" lon="-0.22304">
        <ele>91</ele>
        <time>2017-05-23T14:22:18Z</time>
      </trkpt>
      <trkpt lat="44.77291" lon="-0.22304">
        <ele>81</ele>
        <time>2017-05-23T14:22:34Z</time>
      </trkpt>
      <trkpt lat="44.77286" lon="-0.22308">
        <ele>81</ele>
        <time>2017-05-23T14:22:34Z</time>
      </trkpt>
      <trkpt lat="44.77281" lon="-0.22309">
        <ele>81</ele>
        <time>2017-05-23T14:22:34Z</time>
      </trkpt>
      <trkpt lat="44.77276" lon="-0.22314">
        <ele>81</ele>
        <time>2017-05-23T14:22:34Z</time>
      </trkpt>
      <trkpt lat="44.77265" lon="-0.22317">
        <ele>81</ele>
        <time>2017-05-23T14:22:50Z</time>
      </trkpt>
      <trkpt lat="44.77252" lon="-0.22323">
        <ele>81</ele>
        <time>2017-05-23T14:22:50Z</time>
      </trkpt>
      <trkpt lat="44.77241" lon="-0.22331">
        <ele>81</ele>
        <time>2017-05-23T14:23:06Z</time>
      </trkpt>
      <trkpt lat="44.77235" lon="-0.22333">
        <ele>81</ele>
        <time>2017-05-23T14:23:06Z</time>
      </trkpt>
      <trkpt lat="44.77227" lon="-0.22338">
        <ele>81</ele>
        <time>2017-05-23T14:23:22Z</time>
      </trkpt>
      <trkpt lat="44.77223" lon="-0.22343">
        <ele>81</ele>
        <time>2017-05-23T14:23:22Z</time>
      </trkpt>
      <trkpt lat="44.77213" lon="-0.2235">
        <ele>81</ele>
        <time>2017-05-23T14:23:22Z</time>
      </trkpt>
      <trkpt lat="44.77204" lon="-0.2236">
        <ele>76</ele>
        <time>2017-05-23T14:23:38Z</time>
      </trkpt>
      <trkpt lat="44.772" lon="-0.22369">
        <ele>76</ele>
        <time>2017-05-23T14:23:38Z</time>
      </trkpt>
      <trkpt lat="44.77202" lon="-0.22401">
        <ele>78</ele>
        <time>2017-05-23T14:24:10Z</time>
      </trkpt>
      <trkpt lat="44.77205" lon="-0.22418">
        <ele>78</ele>
        <time>2017-05-23T14:24:10Z</time>
      </trkpt>
      <trkpt lat="44.77214" lon="-0.22446">
        <ele>82</ele>
        <time>2017-05-23T14:24:26Z</time>
      </trkpt>
      <trkpt lat="44.77224" lon="-0.22462">
        <ele>82</ele>
        <time>2017-05-23T14:24:42Z</time>
      </trkpt>
      <trkpt lat="44.77225" lon="-0.22469">
        <ele>82</ele>
        <time>2017-05-23T14:24:42Z</time>
      </trkpt>
      <trkpt lat="44.77228" lon="-0.22472">
        <ele>82</ele>
        <time>2017-05-23T14:24:58Z</time>
      </trkpt>
      <trkpt lat="44.7724" lon="-0.22496">
        <ele>82</ele>
        <time>2017-05-23T14:25:14Z</time>
      </trkpt>
      <trkpt lat="44.77249" lon="-0.22511">
        <ele>82</ele>
        <time>2017-05-23T14:25:14Z</time>
      </trkpt>
      <trkpt lat="44.77254" lon="-0.22526">
        <ele>82</ele>
        <time>2017-05-23T14:25:30Z</time>
      </trkpt>
      <trkpt lat="44.77258" lon="-0.22532">
        <ele>82</ele>
        <time>2017-05-23T14:25:30Z</time>
      </trkpt>
      <trkpt lat="44.77265" lon="-0.22549">
        <ele>80</ele>
        <time>2017-05-23T14:25:46Z</time>
      </trkpt>
      <trkpt lat="44.77266" lon="-0.22555">
        <ele>80</ele>
        <time>2017-05-23T14:25:46Z</time>
      </trkpt>
      <trkpt lat="44.77266" lon="-0.22562">
        <ele>80</ele>
        <time>2017-05-23T14:25:46Z</time>
      </trkpt>
      <trkpt lat="44.77263" lon="-0.22569">
        <ele>80</ele>
        <time>2017-05-23T14:26:02Z</time>
      </trkpt>
      <trkpt lat="44.77259" lon="-0.22573">
        <ele>80</ele>
        <time>2017-05-23T14:26:02Z</time>
      </trkpt>
      <trkpt lat="44.7725" lon="-0.22579">
        <ele>80</ele>
        <time>2017-05-23T14:26:02Z</time>
      </trkpt>
      <trkpt lat="44.77247" lon="-0.22584">
        <ele>80</ele>
        <time>2017-05-23T14:26:18Z</time>
      </trkpt>
      <trkpt lat="44.77237" lon="-0.22594">
        <ele>80</ele>
        <time>2017-05-23T14:26:18Z</time>
      </trkpt>
      <trkpt lat="44.7723" lon="-0.22603">
        <ele>80</ele>
        <time>2017-05-23T14:26:34Z</time>
      </trkpt>
      <trkpt lat="44.77218" lon="-0.22616">
        <ele>80</ele>
        <time>2017-05-23T14:26:50Z</time>
      </trkpt>
      <trkpt lat="44.77209" lon="-0.22622">
        <ele>80</ele>
        <time>2017-05-23T14:26:50Z</time>
      </trkpt>
      <trkpt lat="44.77206" lon="-0.22626">
        <ele>78</ele>
        <time>2017-05-23T14:26:50Z</time>
      </trkpt>
      <trkpt lat="44.77202" lon="-0.2263">
        <ele>78</ele>
        <time>2017-05-23T14:27:06Z</time>
      </trkpt>
      <trkpt lat="44.77194" lon="-0.22634">
        <ele>78</ele>
        <time>2017-05-23T14:27:06Z</time>
      </trkpt>
      <trkpt lat="44.77184" lon="-0.2264">
        <ele>78</ele>
        <time>2017-05-23T14:27:22Z</time>
      </trkpt>
      <trkpt lat="44.77179" lon="-0.22642">
        <ele>78</ele>
        <time>2017-05-23T14:27:22Z</time>
      </trkpt>
      <trkpt lat="44.77175" lon="-0.22647">
        <ele>78</ele>
        <time>2017-05-23T14:27:22Z</time>
      </trkpt>
      <trkpt lat="44.77156" lon="-0.22658">
        <ele>78</ele>
        <time>2017-05-23T14:27:38Z</time>
      </trkpt>
      <trkpt lat="44.7714" lon="-0.2266">
        <ele>78</ele>
        <time>2017-05-23T14:27:54Z</time>
      </trkpt>
      <trkpt lat="44.77137" lon="-0.22663">
        <ele>78</ele>
        <time>2017-05-23T14:27:54Z</time>
      </trkpt>
      <trkpt lat="44.77134" lon="-0.22673">
        <ele>78</ele>
        <time>2017-05-23T14:27:54Z</time>
      </trkpt>
      <trkpt lat="44.77134" lon="-0.2268">
        <ele>78</ele>
        <time>2017-05-23T14:28:10Z</time>
      </trkpt>
      <trkpt lat="44.77135" lon="-0.22696">
        <ele>78</ele>
        <time>2017-05-23T14:28:10Z</time>
      </trkpt>
      <trkpt lat="44.77134" lon="-0.22713">
        <ele>79</ele>
        <time>2017-05-23T14:28:26Z</time>
      </trkpt>
      <trkpt lat="44.77132" lon="-0.22719">
        <ele>79</ele>
        <time>2017-05-23T14:28:26Z</time>
      </trkpt>
      <trkpt lat="44.77132" lon="-0.22726">
        <ele>79</ele>
        <time>2017-05-23T14:28:26Z</time>
      </trkpt>
      <trkpt lat="44.77134" lon="-0.22734">
        <ele>79</ele>
        <time>2017-05-23T14:28:26Z</time>
      </trkpt>
      <trkpt lat="44.77135" lon="-0.22748">
        <ele>79</ele>
        <time>2017-05-23T14:28:42Z</time>
      </trkpt>
      <trkpt lat="44.77134" lon="-0.22756">
        <ele>79</ele>
        <time>2017-05-23T14:28:42Z</time>
      </trkpt>
      <trkpt lat="44.77128" lon="-0.2276">
        <ele>79</ele>
        <time>2017-05-23T14:28:42Z</time>
      </trkpt>
      <trkpt lat="44.77128" lon="-0.22782">
        <ele>79</ele>
        <time>2017-05-23T14:28:58Z</time>
      </trkpt>
      <trkpt lat="44.77124" lon="-0.22804">
        <ele>77</ele>
        <time>2017-05-23T14:29:14Z</time>
      </trkpt>
      <trkpt lat="44.7712" lon="-0.22809">
        <ele>77</ele>
        <time>2017-05-23T14:29:14Z</time>
      </trkpt>
      <trkpt lat="44.77116" lon="-0.2281">
        <ele>77</ele>
        <time>2017-05-23T14:29:14Z</time>
      </trkpt>
    </trkseg>
  </trk>
</gpx>